<?xml version="1.0" encoding="UTF-8" standalone="no" ?>
<gpx xmlns="http://www.topografix.com/GPX/1/1" xmlns:xsi="http://www.w3.org/2001/XMLSchema-instance" xsi:schemaLocation="http://www.topografix.com/GPX/1/1 http://www.topografix.com/GPX/1/1/gpx.xsd" version="1.1" creator="VisuGPX - https://www.visugpx.com">
  <metadata>
    <name>4S-Bleue-58-1400</name>
    <desc><![CDATA[Rando "La 4S du Salève" - Parcours bleu - 58 km - D+ 1400 m]]></desc>
  </metadata>
  <trk>
    <name><![CDATA[4S-Bleue]]></name>
    <trkseg>
      <trkpt lat="46.03766" lon="6.11841">
        <ele>785.319214</ele>
        <time>2020-01-07T11:51:44Z</time>
      </trkpt>
      <trkpt lat="46.0376" lon="6.11858">
        <ele>782.658691</ele>
        <time>2020-01-07T11:51:46Z</time>
      </trkpt>
      <trkpt lat="46.03757" lon="6.11887">
        <ele>781.375977</ele>
        <time>2020-01-07T11:51:50Z</time>
      </trkpt>
      <trkpt lat="46.03719" lon="6.11802">
        <ele>780.99408</ele>
        <time>2020-01-07T11:52:02Z</time>
      </trkpt>
      <trkpt lat="46.03701" lon="6.11754">
        <ele>782.480774</ele>
        <time>2020-01-07T11:52:09Z</time>
      </trkpt>
      <trkpt lat="46.03645" lon="6.11566">
        <ele>779.543396</ele>
        <time>2020-01-07T11:52:34Z</time>
      </trkpt>
      <trkpt lat="46.03624" lon="6.11489">
        <ele>779.338989</ele>
        <time>2020-01-07T11:52:45Z</time>
      </trkpt>
      <trkpt lat="46.0357" lon="6.11265">
        <ele>780.329285</ele>
        <time>2020-01-07T11:53:14Z</time>
      </trkpt>
      <trkpt lat="46.03518" lon="6.11084">
        <ele>777.884521</ele>
        <time>2020-01-07T11:53:38Z</time>
      </trkpt>
      <trkpt lat="46.03561" lon="6.11068">
        <ele>776.845398</ele>
        <time>2020-01-07T11:53:46Z</time>
      </trkpt>
      <trkpt lat="46.03577" lon="6.11043">
        <ele>781.022034</ele>
        <time>2020-01-07T11:53:50Z</time>
      </trkpt>
      <trkpt lat="46.03581" lon="6.11024">
        <ele>782.652527</ele>
        <time>2020-01-07T11:53:53Z</time>
      </trkpt>
      <trkpt lat="46.03583" lon="6.10973">
        <ele>784.315613</ele>
        <time>2020-01-07T11:53:59Z</time>
      </trkpt>
      <trkpt lat="46.03586" lon="6.10958">
        <ele>785.282288</ele>
        <time>2020-01-07T11:54:01Z</time>
      </trkpt>
      <trkpt lat="46.03594" lon="6.10933">
        <ele>786.822571</ele>
        <time>2020-01-07T11:54:04Z</time>
      </trkpt>
      <trkpt lat="46.0361" lon="6.10906">
        <ele>788.930664</ele>
        <time>2020-01-07T11:54:09Z</time>
      </trkpt>
      <trkpt lat="46.03635" lon="6.10866">
        <ele>791.630005</ele>
        <time>2020-01-07T11:54:15Z</time>
      </trkpt>
      <trkpt lat="46.03645" lon="6.10844">
        <ele>791.130005</ele>
        <time>2020-01-07T11:54:19Z</time>
      </trkpt>
      <trkpt lat="46.03677" lon="6.10786">
        <ele>790.353882</ele>
        <time>2020-01-07T11:54:28Z</time>
      </trkpt>
      <trkpt lat="46.03693" lon="6.10766">
        <ele>790.67926</ele>
        <time>2020-01-07T11:54:32Z</time>
      </trkpt>
      <trkpt lat="46.03751" lon="6.10708">
        <ele>794.011414</ele>
        <time>2020-01-07T11:54:44Z</time>
      </trkpt>
      <trkpt lat="46.03815" lon="6.10619">
        <ele>793.903381</ele>
        <time>2020-01-07T11:55:00Z</time>
      </trkpt>
      <trkpt lat="46.03851" lon="6.10576">
        <ele>798.708435</ele>
        <time>2020-01-07T11:55:08Z</time>
      </trkpt>
      <trkpt lat="46.03868" lon="6.10541">
        <ele>800.500916</ele>
        <time>2020-01-07T11:55:14Z</time>
      </trkpt>
      <trkpt lat="46.03875" lon="6.10513">
        <ele>800.668335</ele>
        <time>2020-01-07T11:55:17Z</time>
      </trkpt>
      <trkpt lat="46.03878" lon="6.10494">
        <ele>801.705994</ele>
        <time>2020-01-07T11:55:20Z</time>
      </trkpt>
      <trkpt lat="46.0388" lon="6.10431">
        <ele>802.678101</ele>
        <time>2020-01-07T11:55:27Z</time>
      </trkpt>
      <trkpt lat="46.03885" lon="6.1042">
        <ele>803.452515</ele>
        <time>2020-01-07T11:55:29Z</time>
      </trkpt>
      <trkpt lat="46.03892" lon="6.10415">
        <ele>805.4198</ele>
        <time>2020-01-07T11:55:30Z</time>
      </trkpt>
      <trkpt lat="46.03903" lon="6.1041">
        <ele>806.927124</ele>
        <time>2020-01-07T11:55:32Z</time>
      </trkpt>
      <trkpt lat="46.03912" lon="6.10413">
        <ele>808.112793</ele>
        <time>2020-01-07T11:55:34Z</time>
      </trkpt>
      <trkpt lat="46.03921" lon="6.10419">
        <ele>809.542236</ele>
        <time>2020-01-07T11:55:36Z</time>
      </trkpt>
      <trkpt lat="46.03955" lon="6.10452">
        <ele>816.017761</ele>
        <time>2020-01-07T11:55:43Z</time>
      </trkpt>
      <trkpt lat="46.03961" lon="6.10453">
        <ele>816.743408</ele>
        <time>2020-01-07T11:55:44Z</time>
      </trkpt>
      <trkpt lat="46.03971" lon="6.10449">
        <ele>817.531616</ele>
        <time>2020-01-07T11:55:46Z</time>
      </trkpt>
      <trkpt lat="46.04019" lon="6.10412">
        <ele>819.498413</ele>
        <time>2020-01-07T11:55:56Z</time>
      </trkpt>
      <trkpt lat="46.04037" lon="6.104">
        <ele>820.019104</ele>
        <time>2020-01-07T11:55:59Z</time>
      </trkpt>
      <trkpt lat="46.04052" lon="6.10395">
        <ele>820.906311</ele>
        <time>2020-01-07T11:56:02Z</time>
      </trkpt>
      <trkpt lat="46.04068" lon="6.10394">
        <ele>822.412964</ele>
        <time>2020-01-07T11:56:05Z</time>
      </trkpt>
      <trkpt lat="46.04165" lon="6.10408">
        <ele>828.360168</ele>
        <time>2020-01-07T11:56:22Z</time>
      </trkpt>
      <trkpt lat="46.04217" lon="6.10423">
        <ele>832.840759</ele>
        <time>2020-01-07T11:56:32Z</time>
      </trkpt>
      <trkpt lat="46.04246" lon="6.10427">
        <ele>833.638489</ele>
        <time>2020-01-07T11:56:37Z</time>
      </trkpt>
      <trkpt lat="46.04296" lon="6.10419">
        <ele>832.43811</ele>
        <time>2020-01-07T11:56:46Z</time>
      </trkpt>
      <trkpt lat="46.04306" lon="6.10433">
        <ele>834.928406</ele>
        <time>2020-01-07T11:56:48Z</time>
      </trkpt>
      <trkpt lat="46.0431" lon="6.1045">
        <ele>837.765686</ele>
        <time>2020-01-07T11:56:51Z</time>
      </trkpt>
      <trkpt lat="46.04302" lon="6.10476">
        <ele>840.929199</ele>
        <time>2020-01-07T11:56:54Z</time>
      </trkpt>
      <trkpt lat="46.04253" lon="6.10474">
        <ele>841.657837</ele>
        <time>2020-01-07T11:57:03Z</time>
      </trkpt>
      <trkpt lat="46.04234" lon="6.10477">
        <ele>842.454163</ele>
        <time>2020-01-07T11:57:06Z</time>
      </trkpt>
      <trkpt lat="46.04227" lon="6.10481">
        <ele>843.268616</ele>
        <time>2020-01-07T11:57:08Z</time>
      </trkpt>
      <trkpt lat="46.0422" lon="6.10487">
        <ele>844.483704</ele>
        <time>2020-01-07T11:57:09Z</time>
      </trkpt>
      <trkpt lat="46.0419" lon="6.10523">
        <ele>851.165588</ele>
        <time>2020-01-07T11:57:16Z</time>
      </trkpt>
      <trkpt lat="46.04178" lon="6.10534">
        <ele>852.7099</ele>
        <time>2020-01-07T11:57:18Z</time>
      </trkpt>
      <trkpt lat="46.04151" lon="6.10548">
        <ele>851.843872</ele>
        <time>2020-01-07T11:57:24Z</time>
      </trkpt>
      <trkpt lat="46.04142" lon="6.10555">
        <ele>851.007385</ele>
        <time>2020-01-07T11:57:25Z</time>
      </trkpt>
      <trkpt lat="46.04137" lon="6.10563">
        <ele>850.650574</ele>
        <time>2020-01-07T11:57:27Z</time>
      </trkpt>
      <trkpt lat="46.04134" lon="6.10572">
        <ele>850.552734</ele>
        <time>2020-01-07T11:57:28Z</time>
      </trkpt>
      <trkpt lat="46.04133" lon="6.10585">
        <ele>850.833313</ele>
        <time>2020-01-07T11:57:30Z</time>
      </trkpt>
      <trkpt lat="46.04135" lon="6.10599">
        <ele>851.213196</ele>
        <time>2020-01-07T11:57:31Z</time>
      </trkpt>
      <trkpt lat="46.04142" lon="6.10618">
        <ele>852.038574</ele>
        <time>2020-01-07T11:57:34Z</time>
      </trkpt>
      <trkpt lat="46.04161" lon="6.1065">
        <ele>854.796021</ele>
        <time>2020-01-07T11:57:39Z</time>
      </trkpt>
      <trkpt lat="46.04185" lon="6.10697">
        <ele>858.108765</ele>
        <time>2020-01-07T11:57:46Z</time>
      </trkpt>
      <trkpt lat="46.0419" lon="6.10715">
        <ele>858.710022</ele>
        <time>2020-01-07T11:57:49Z</time>
      </trkpt>
      <trkpt lat="46.04192" lon="6.1078">
        <ele>860.151123</ele>
        <time>2020-01-07T11:57:57Z</time>
      </trkpt>
      <trkpt lat="46.04196" lon="6.1079">
        <ele>860.887634</ele>
        <time>2020-01-07T11:57:58Z</time>
      </trkpt>
      <trkpt lat="46.04205" lon="6.10798">
        <ele>862.07251</ele>
        <time>2020-01-07T11:58:00Z</time>
      </trkpt>
      <trkpt lat="46.04211" lon="6.10801">
        <ele>862.787476</ele>
        <time>2020-01-07T11:58:01Z</time>
      </trkpt>
      <trkpt lat="46.04223" lon="6.10798">
        <ele>864.05249</ele>
        <time>2020-01-07T11:58:03Z</time>
      </trkpt>
      <trkpt lat="46.04234" lon="6.10789">
        <ele>865.076233</ele>
        <time>2020-01-07T11:58:06Z</time>
      </trkpt>
      <trkpt lat="46.04273" lon="6.10744">
        <ele>867.85498</ele>
        <time>2020-01-07T11:58:15Z</time>
      </trkpt>
      <trkpt lat="46.0428" lon="6.10739">
        <ele>868.369995</ele>
        <time>2020-01-07T11:58:16Z</time>
      </trkpt>
      <trkpt lat="46.04287" lon="6.10737">
        <ele>868.951233</ele>
        <time>2020-01-07T11:58:17Z</time>
      </trkpt>
      <trkpt lat="46.04299" lon="6.1074">
        <ele>869.786255</ele>
        <time>2020-01-07T11:58:19Z</time>
      </trkpt>
      <trkpt lat="46.0438" lon="6.10775">
        <ele>874.086914</ele>
        <time>2020-01-07T11:58:34Z</time>
      </trkpt>
      <trkpt lat="46.0449" lon="6.10799">
        <ele>878.949341</ele>
        <time>2020-01-07T11:58:54Z</time>
      </trkpt>
      <trkpt lat="46.04502" lon="6.10807">
        <ele>879.56842</ele>
        <time>2020-01-07T11:58:57Z</time>
      </trkpt>
      <trkpt lat="46.04511" lon="6.10821">
        <ele>879.848755</ele>
        <time>2020-01-07T11:58:59Z</time>
      </trkpt>
      <trkpt lat="46.04522" lon="6.10844">
        <ele>880.025024</ele>
        <time>2020-01-07T11:59:02Z</time>
      </trkpt>
      <trkpt lat="46.04535" lon="6.10861">
        <ele>880.376221</ele>
        <time>2020-01-07T11:59:06Z</time>
      </trkpt>
      <trkpt lat="46.04546" lon="6.10871">
        <ele>880.742493</ele>
        <time>2020-01-07T11:59:08Z</time>
      </trkpt>
      <trkpt lat="46.04557" lon="6.10876">
        <ele>881.173218</ele>
        <time>2020-01-07T11:59:10Z</time>
      </trkpt>
      <trkpt lat="46.04594" lon="6.10883">
        <ele>882.697327</ele>
        <time>2020-01-07T11:59:17Z</time>
      </trkpt>
      <trkpt lat="46.04605" lon="6.10895">
        <ele>882.752686</ele>
        <time>2020-01-07T11:59:19Z</time>
      </trkpt>
      <trkpt lat="46.04652" lon="6.10985">
        <ele>882.695618</ele>
        <time>2020-01-07T11:59:33Z</time>
      </trkpt>
      <trkpt lat="46.04655" lon="6.10999">
        <ele>882.974976</ele>
        <time>2020-01-07T11:59:35Z</time>
      </trkpt>
      <trkpt lat="46.04655" lon="6.11015">
        <ele>882.723328</ele>
        <time>2020-01-07T11:59:37Z</time>
      </trkpt>
      <trkpt lat="46.04648" lon="6.11045">
        <ele>884.220642</ele>
        <time>2020-01-07T11:59:41Z</time>
      </trkpt>
      <trkpt lat="46.04648" lon="6.11058">
        <ele>885.404785</ele>
        <time>2020-01-07T11:59:42Z</time>
      </trkpt>
      <trkpt lat="46.04659" lon="6.11104">
        <ele>891.983643</ele>
        <time>2020-01-07T11:59:48Z</time>
      </trkpt>
      <trkpt lat="46.04659" lon="6.11116">
        <ele>893.094177</ele>
        <time>2020-01-07T11:59:50Z</time>
      </trkpt>
      <trkpt lat="46.04656" lon="6.11131">
        <ele>893.963501</ele>
        <time>2020-01-07T11:59:52Z</time>
      </trkpt>
      <trkpt lat="46.04629" lon="6.11184">
        <ele>892.592468</ele>
        <time>2020-01-07T12:00:00Z</time>
      </trkpt>
      <trkpt lat="46.04619" lon="6.11223">
        <ele>892.366333</ele>
        <time>2020-01-07T12:00:05Z</time>
      </trkpt>
      <trkpt lat="46.04615" lon="6.11263">
        <ele>894.036865</ele>
        <time>2020-01-07T12:00:10Z</time>
      </trkpt>
      <trkpt lat="46.04627" lon="6.11311">
        <ele>899.13623</ele>
        <time>2020-01-07T12:00:16Z</time>
      </trkpt>
      <trkpt lat="46.04635" lon="6.11348">
        <ele>901.667114</ele>
        <time>2020-01-07T12:00:21Z</time>
      </trkpt>
      <trkpt lat="46.04629" lon="6.11417">
        <ele>901.033813</ele>
        <time>2020-01-07T12:00:30Z</time>
      </trkpt>
      <trkpt lat="46.04635" lon="6.11455">
        <ele>903.297974</ele>
        <time>2020-01-07T12:00:34Z</time>
      </trkpt>
      <trkpt lat="46.0465" lon="6.11462">
        <ele>905.844116</ele>
        <time>2020-01-07T12:00:37Z</time>
      </trkpt>
      <trkpt lat="46.04666" lon="6.11455">
        <ele>908.36908</ele>
        <time>2020-01-07T12:00:40Z</time>
      </trkpt>
      <trkpt lat="46.04674" lon="6.11444">
        <ele>909.684814</ele>
        <time>2020-01-07T12:00:42Z</time>
      </trkpt>
      <trkpt lat="46.04675" lon="6.1142">
        <ele>909.854248</ele>
        <time>2020-01-07T12:00:45Z</time>
      </trkpt>
      <trkpt lat="46.04666" lon="6.1138">
        <ele>908.647278</ele>
        <time>2020-01-07T12:00:50Z</time>
      </trkpt>
      <trkpt lat="46.04656" lon="6.11323">
        <ele>906.937683</ele>
        <time>2020-01-07T12:00:57Z</time>
      </trkpt>
      <trkpt lat="46.0466" lon="6.11284">
        <ele>907.248291</ele>
        <time>2020-01-07T12:01:02Z</time>
      </trkpt>
      <trkpt lat="46.0467" lon="6.11256">
        <ele>907.942505</ele>
        <time>2020-01-07T12:01:06Z</time>
      </trkpt>
      <trkpt lat="46.04688" lon="6.11245">
        <ele>911.415833</ele>
        <time>2020-01-07T12:01:10Z</time>
      </trkpt>
      <trkpt lat="46.0471" lon="6.11214">
        <ele>913.89563</ele>
        <time>2020-01-07T12:01:15Z</time>
      </trkpt>
      <trkpt lat="46.04718" lon="6.11187">
        <ele>912.700012</ele>
        <time>2020-01-07T12:01:19Z</time>
      </trkpt>
      <trkpt lat="46.04735" lon="6.11159">
        <ele>913.833801</ele>
        <time>2020-01-07T12:01:23Z</time>
      </trkpt>
      <trkpt lat="46.0475" lon="6.11153">
        <ele>917.391724</ele>
        <time>2020-01-07T12:01:26Z</time>
      </trkpt>
      <trkpt lat="46.04784" lon="6.1112">
        <ele>923.262512</ele>
        <time>2020-01-07T12:01:33Z</time>
      </trkpt>
      <trkpt lat="46.048" lon="6.11084">
        <ele>923.34491</ele>
        <time>2020-01-07T12:01:39Z</time>
      </trkpt>
      <trkpt lat="46.04825" lon="6.11039">
        <ele>922.580017</ele>
        <time>2020-01-07T12:01:46Z</time>
      </trkpt>
      <trkpt lat="46.04866" lon="6.10997">
        <ele>926.578674</ele>
        <time>2020-01-07T12:01:55Z</time>
      </trkpt>
      <trkpt lat="46.04885" lon="6.10968">
        <ele>927.575378</ele>
        <time>2020-01-07T12:02:00Z</time>
      </trkpt>
      <trkpt lat="46.0491" lon="6.10938">
        <ele>926.510559</ele>
        <time>2020-01-07T12:02:06Z</time>
      </trkpt>
      <trkpt lat="46.04938" lon="6.1094">
        <ele>928.676636</ele>
        <time>2020-01-07T12:02:11Z</time>
      </trkpt>
      <trkpt lat="46.05025" lon="6.10997">
        <ele>936.756531</ele>
        <time>2020-01-07T12:02:28Z</time>
      </trkpt>
      <trkpt lat="46.05043" lon="6.10989">
        <ele>937.458923</ele>
        <time>2020-01-07T12:02:31Z</time>
      </trkpt>
      <trkpt lat="46.05052" lon="6.10964">
        <ele>939.42157</ele>
        <time>2020-01-07T12:02:34Z</time>
      </trkpt>
      <trkpt lat="46.05051" lon="6.10943">
        <ele>941.038696</ele>
        <time>2020-01-07T12:02:37Z</time>
      </trkpt>
      <trkpt lat="46.0504" lon="6.10928">
        <ele>940.279175</ele>
        <time>2020-01-07T12:02:40Z</time>
      </trkpt>
      <trkpt lat="46.05022" lon="6.10909">
        <ele>938.35083</ele>
        <time>2020-01-07T12:02:44Z</time>
      </trkpt>
      <trkpt lat="46.05016" lon="6.10892">
        <ele>937.836304</ele>
        <time>2020-01-07T12:02:46Z</time>
      </trkpt>
      <trkpt lat="46.05016" lon="6.10877">
        <ele>938.337891</ele>
        <time>2020-01-07T12:02:48Z</time>
      </trkpt>
      <trkpt lat="46.0502" lon="6.10851">
        <ele>939.779602</ele>
        <time>2020-01-07T12:02:51Z</time>
      </trkpt>
      <trkpt lat="46.05027" lon="6.10827">
        <ele>941.066284</ele>
        <time>2020-01-07T12:02:54Z</time>
      </trkpt>
      <trkpt lat="46.05038" lon="6.10815">
        <ele>942.673767</ele>
        <time>2020-01-07T12:02:57Z</time>
      </trkpt>
      <trkpt lat="46.05102" lon="6.10792">
        <ele>953.779724</ele>
        <time>2020-01-07T12:03:09Z</time>
      </trkpt>
      <trkpt lat="46.05109" lon="6.10779">
        <ele>954.883057</ele>
        <time>2020-01-07T12:03:11Z</time>
      </trkpt>
      <trkpt lat="46.05114" lon="6.10763">
        <ele>955.937866</ele>
        <time>2020-01-07T12:03:13Z</time>
      </trkpt>
      <trkpt lat="46.05108" lon="6.10686">
        <ele>955.41748</ele>
        <time>2020-01-07T12:03:22Z</time>
      </trkpt>
      <trkpt lat="46.0511" lon="6.10654">
        <ele>955.875488</ele>
        <time>2020-01-07T12:03:26Z</time>
      </trkpt>
      <trkpt lat="46.05138" lon="6.106">
        <ele>962.757874</ele>
        <time>2020-01-07T12:03:35Z</time>
      </trkpt>
      <trkpt lat="46.05131" lon="6.10512">
        <ele>964.960022</ele>
        <time>2020-01-07T12:03:46Z</time>
      </trkpt>
      <trkpt lat="46.05118" lon="6.10447">
        <ele>965.077515</ele>
        <time>2020-01-07T12:03:54Z</time>
      </trkpt>
      <trkpt lat="46.05115" lon="6.1042">
        <ele>964.727478</ele>
        <time>2020-01-07T12:03:57Z</time>
      </trkpt>
      <trkpt lat="46.05127" lon="6.10398">
        <ele>967.080688</ele>
        <time>2020-01-07T12:04:01Z</time>
      </trkpt>
      <trkpt lat="46.05153" lon="6.10397">
        <ele>972.26123</ele>
        <time>2020-01-07T12:04:05Z</time>
      </trkpt>
      <trkpt lat="46.05162" lon="6.10412">
        <ele>974.106384</ele>
        <time>2020-01-07T12:04:08Z</time>
      </trkpt>
      <trkpt lat="46.05169" lon="6.10459">
        <ele>975.446777</ele>
        <time>2020-01-07T12:04:14Z</time>
      </trkpt>
      <trkpt lat="46.05178" lon="6.10497">
        <ele>976.220825</ele>
        <time>2020-01-07T12:04:19Z</time>
      </trkpt>
      <trkpt lat="46.05196" lon="6.10548">
        <ele>977.859009</ele>
        <time>2020-01-07T12:04:26Z</time>
      </trkpt>
      <trkpt lat="46.05223" lon="6.1059">
        <ele>981.226929</ele>
        <time>2020-01-07T12:04:33Z</time>
      </trkpt>
      <trkpt lat="46.05261" lon="6.10623">
        <ele>986.425842</ele>
        <time>2020-01-07T12:04:41Z</time>
      </trkpt>
      <trkpt lat="46.05304" lon="6.10655">
        <ele>991.556702</ele>
        <time>2020-01-07T12:04:49Z</time>
      </trkpt>
      <trkpt lat="46.05323" lon="6.10675">
        <ele>994.005005</ele>
        <time>2020-01-07T12:04:54Z</time>
      </trkpt>
      <trkpt lat="46.05328" lon="6.10692">
        <ele>994.150757</ele>
        <time>2020-01-07T12:04:56Z</time>
      </trkpt>
      <trkpt lat="46.0533" lon="6.10708">
        <ele>993.581238</ele>
        <time>2020-01-07T12:04:58Z</time>
      </trkpt>
      <trkpt lat="46.05328" lon="6.10778">
        <ele>990.102661</ele>
        <time>2020-01-07T12:05:06Z</time>
      </trkpt>
      <trkpt lat="46.0533" lon="6.10834">
        <ele>988.318726</ele>
        <time>2020-01-07T12:05:13Z</time>
      </trkpt>
      <trkpt lat="46.05342" lon="6.10856">
        <ele>989.856262</ele>
        <time>2020-01-07T12:05:17Z</time>
      </trkpt>
      <trkpt lat="46.05372" lon="6.10856">
        <ele>995.142639</ele>
        <time>2020-01-07T12:05:22Z</time>
      </trkpt>
      <trkpt lat="46.05414" lon="6.10834">
        <ele>999.596619</ele>
        <time>2020-01-07T12:05:30Z</time>
      </trkpt>
      <trkpt lat="46.0547" lon="6.10814">
        <ele>1005.066101</ele>
        <time>2020-01-07T12:05:40Z</time>
      </trkpt>
      <trkpt lat="46.05491" lon="6.10822">
        <ele>1006.613708</ele>
        <time>2020-01-07T12:05:44Z</time>
      </trkpt>
      <trkpt lat="46.05511" lon="6.10845">
        <ele>1008.59198</ele>
        <time>2020-01-07T12:05:49Z</time>
      </trkpt>
      <trkpt lat="46.05519" lon="6.10891">
        <ele>1009.101563</ele>
        <time>2020-01-07T12:05:55Z</time>
      </trkpt>
      <trkpt lat="46.05524" lon="6.10931">
        <ele>1009.651001</ele>
        <time>2020-01-07T12:06:00Z</time>
      </trkpt>
      <trkpt lat="46.0553" lon="6.10961">
        <ele>1009.552307</ele>
        <time>2020-01-07T12:06:04Z</time>
      </trkpt>
      <trkpt lat="46.05539" lon="6.10985">
        <ele>1009.329895</ele>
        <time>2020-01-07T12:06:07Z</time>
      </trkpt>
      <trkpt lat="46.05553" lon="6.10994">
        <ele>1010.888428</ele>
        <time>2020-01-07T12:06:10Z</time>
      </trkpt>
      <trkpt lat="46.05572" lon="6.10991">
        <ele>1014.216919</ele>
        <time>2020-01-07T12:06:13Z</time>
      </trkpt>
      <trkpt lat="46.05582" lon="6.1097">
        <ele>1017.096863</ele>
        <time>2020-01-07T12:06:16Z</time>
      </trkpt>
      <trkpt lat="46.05581" lon="6.10946">
        <ele>1018.307495</ele>
        <time>2020-01-07T12:06:19Z</time>
      </trkpt>
      <trkpt lat="46.05584" lon="6.10927">
        <ele>1018.878723</ele>
        <time>2020-01-07T12:06:22Z</time>
      </trkpt>
      <trkpt lat="46.05598" lon="6.1091">
        <ele>1020.809998</ele>
        <time>2020-01-07T12:06:25Z</time>
      </trkpt>
      <trkpt lat="46.05615" lon="6.10903">
        <ele>1023.364197</ele>
        <time>2020-01-07T12:06:28Z</time>
      </trkpt>
      <trkpt lat="46.05628" lon="6.10917">
        <ele>1024.511841</ele>
        <time>2020-01-07T12:06:31Z</time>
      </trkpt>
      <trkpt lat="46.05648" lon="6.10924">
        <ele>1025.704956</ele>
        <time>2020-01-07T12:06:35Z</time>
      </trkpt>
      <trkpt lat="46.05667" lon="6.1092">
        <ele>1026.941162</ele>
        <time>2020-01-07T12:06:38Z</time>
      </trkpt>
      <trkpt lat="46.05673" lon="6.10899">
        <ele>1027.691406</ele>
        <time>2020-01-07T12:06:41Z</time>
      </trkpt>
      <trkpt lat="46.05675" lon="6.10869">
        <ele>1028.922485</ele>
        <time>2020-01-07T12:06:44Z</time>
      </trkpt>
      <trkpt lat="46.0569" lon="6.1085">
        <ele>1030.972534</ele>
        <time>2020-01-07T12:06:48Z</time>
      </trkpt>
      <trkpt lat="46.05709" lon="6.10848">
        <ele>1033.226196</ele>
        <time>2020-01-07T12:06:51Z</time>
      </trkpt>
      <trkpt lat="46.05719" lon="6.10872">
        <ele>1033.346191</ele>
        <time>2020-01-07T12:06:55Z</time>
      </trkpt>
      <trkpt lat="46.05718" lon="6.10948">
        <ele>1031.647461</ele>
        <time>2020-01-07T12:07:04Z</time>
      </trkpt>
      <trkpt lat="46.05722" lon="6.10971">
        <ele>1032.536255</ele>
        <time>2020-01-07T12:07:07Z</time>
      </trkpt>
      <trkpt lat="46.05734" lon="6.10989">
        <ele>1036.167236</ele>
        <time>2020-01-07T12:07:10Z</time>
      </trkpt>
      <trkpt lat="46.05749" lon="6.10989">
        <ele>1039.437012</ele>
        <time>2020-01-07T12:07:13Z</time>
      </trkpt>
      <trkpt lat="46.05762" lon="6.10978">
        <ele>1040.534912</ele>
        <time>2020-01-07T12:07:16Z</time>
      </trkpt>
      <trkpt lat="46.05765" lon="6.10961">
        <ele>1038.751953</ele>
        <time>2020-01-07T12:07:18Z</time>
      </trkpt>
      <trkpt lat="46.05764" lon="6.10916">
        <ele>1041.496094</ele>
        <time>2020-01-07T12:07:23Z</time>
      </trkpt>
      <trkpt lat="46.05765" lon="6.10868">
        <ele>1046.074707</ele>
        <time>2020-01-07T12:07:29Z</time>
      </trkpt>
      <trkpt lat="46.05757" lon="6.10837">
        <ele>1046.432007</ele>
        <time>2020-01-07T12:07:33Z</time>
      </trkpt>
      <trkpt lat="46.0574" lon="6.10796">
        <ele>1046.124268</ele>
        <time>2020-01-07T12:07:39Z</time>
      </trkpt>
      <trkpt lat="46.05737" lon="6.10725">
        <ele>1053.745972</ele>
        <time>2020-01-07T12:07:48Z</time>
      </trkpt>
      <trkpt lat="46.05731" lon="6.10691">
        <ele>1055.424683</ele>
        <time>2020-01-07T12:07:52Z</time>
      </trkpt>
      <trkpt lat="46.05712" lon="6.1065">
        <ele>1054.662109</ele>
        <time>2020-01-07T12:07:58Z</time>
      </trkpt>
      <trkpt lat="46.0571" lon="6.10626">
        <ele>1055.15686</ele>
        <time>2020-01-07T12:08:01Z</time>
      </trkpt>
      <trkpt lat="46.05721" lon="6.10608">
        <ele>1057.303589</ele>
        <time>2020-01-07T12:08:04Z</time>
      </trkpt>
      <trkpt lat="46.05726" lon="6.10619">
        <ele>1057.688232</ele>
        <time>2020-01-07T12:08:06Z</time>
      </trkpt>
      <trkpt lat="46.05721" lon="6.10608">
        <ele>1057.303589</ele>
        <time>2020-01-07T12:08:08Z</time>
      </trkpt>
      <trkpt lat="46.05735" lon="6.10601">
        <ele>1059.811646</ele>
        <time>2020-01-07T12:08:10Z</time>
      </trkpt>
      <trkpt lat="46.05753" lon="6.10611">
        <ele>1063.075562</ele>
        <time>2020-01-07T12:08:14Z</time>
      </trkpt>
      <trkpt lat="46.05789" lon="6.10665">
        <ele>1066.629395</ele>
        <time>2020-01-07T12:08:23Z</time>
      </trkpt>
      <trkpt lat="46.05805" lon="6.10704">
        <ele>1068.582153</ele>
        <time>2020-01-07T12:08:29Z</time>
      </trkpt>
      <trkpt lat="46.05813" lon="6.10742">
        <ele>1068.411377</ele>
        <time>2020-01-07T12:08:33Z</time>
      </trkpt>
      <trkpt lat="46.05816" lon="6.10785">
        <ele>1068.059326</ele>
        <time>2020-01-07T12:08:39Z</time>
      </trkpt>
      <trkpt lat="46.05829" lon="6.10822">
        <ele>1072.063477</ele>
        <time>2020-01-07T12:08:44Z</time>
      </trkpt>
      <trkpt lat="46.0586" lon="6.10893">
        <ele>1076.200439</ele>
        <time>2020-01-07T12:08:54Z</time>
      </trkpt>
      <trkpt lat="46.05878" lon="6.10942">
        <ele>1076.220825</ele>
        <time>2020-01-07T12:09:01Z</time>
      </trkpt>
      <trkpt lat="46.05893" lon="6.1097">
        <ele>1076.830078</ele>
        <time>2020-01-07T12:09:05Z</time>
      </trkpt>
      <trkpt lat="46.05909" lon="6.10977">
        <ele>1079.063721</ele>
        <time>2020-01-07T12:09:08Z</time>
      </trkpt>
      <trkpt lat="46.0592" lon="6.10969">
        <ele>1080.557495</ele>
        <time>2020-01-07T12:09:11Z</time>
      </trkpt>
      <trkpt lat="46.05924" lon="6.10951">
        <ele>1081.85498</ele>
        <time>2020-01-07T12:09:13Z</time>
      </trkpt>
      <trkpt lat="46.05922" lon="6.1091">
        <ele>1083.30249</ele>
        <time>2020-01-07T12:09:18Z</time>
      </trkpt>
      <trkpt lat="46.05905" lon="6.10841">
        <ele>1083.831055</ele>
        <time>2020-01-07T12:09:27Z</time>
      </trkpt>
      <trkpt lat="46.05906" lon="6.10768">
        <ele>1086.535278</ele>
        <time>2020-01-07T12:09:36Z</time>
      </trkpt>
      <trkpt lat="46.05912" lon="6.10723">
        <ele>1088.20752</ele>
        <time>2020-01-07T12:09:42Z</time>
      </trkpt>
      <trkpt lat="46.05915" lon="6.10685">
        <ele>1090.126099</ele>
        <time>2020-01-07T12:09:46Z</time>
      </trkpt>
      <trkpt lat="46.05911" lon="6.10648">
        <ele>1090.821289</ele>
        <time>2020-01-07T12:09:51Z</time>
      </trkpt>
      <trkpt lat="46.05899" lon="6.10614">
        <ele>1092.516724</ele>
        <time>2020-01-07T12:09:56Z</time>
      </trkpt>
      <trkpt lat="46.05898" lon="6.10585">
        <ele>1095.311035</ele>
        <time>2020-01-07T12:09:59Z</time>
      </trkpt>
      <trkpt lat="46.05914" lon="6.10562">
        <ele>1097.507202</ele>
        <time>2020-01-07T12:10:03Z</time>
      </trkpt>
      <trkpt lat="46.05935" lon="6.10558">
        <ele>1100.415039</ele>
        <time>2020-01-07T12:10:07Z</time>
      </trkpt>
      <trkpt lat="46.05927" lon="6.10521">
        <ele>1100.3125</ele>
        <time>2020-01-07T12:10:12Z</time>
      </trkpt>
      <trkpt lat="46.05911" lon="6.10469">
        <ele>1100.160522</ele>
        <time>2020-01-07T12:10:19Z</time>
      </trkpt>
      <trkpt lat="46.05901" lon="6.10406">
        <ele>1103.280396</ele>
        <time>2020-01-07T12:10:27Z</time>
      </trkpt>
      <trkpt lat="46.05905" lon="6.10375">
        <ele>1105.273804</ele>
        <time>2020-01-07T12:10:31Z</time>
      </trkpt>
      <trkpt lat="46.05923" lon="6.10361">
        <ele>1107.04541</ele>
        <time>2020-01-07T12:10:34Z</time>
      </trkpt>
      <trkpt lat="46.05942" lon="6.10361">
        <ele>1108.963989</ele>
        <time>2020-01-07T12:10:38Z</time>
      </trkpt>
      <trkpt lat="46.06004" lon="6.10435">
        <ele>1115.412476</ele>
        <time>2020-01-07T12:10:52Z</time>
      </trkpt>
      <trkpt lat="46.06017" lon="6.10446">
        <ele>1116.553711</ele>
        <time>2020-01-07T12:10:55Z</time>
      </trkpt>
      <trkpt lat="46.0603" lon="6.10445">
        <ele>1118.089966</ele>
        <time>2020-01-07T12:10:57Z</time>
      </trkpt>
      <trkpt lat="46.06041" lon="6.10436">
        <ele>1119.71875</ele>
        <time>2020-01-07T12:10:59Z</time>
      </trkpt>
      <trkpt lat="46.0606" lon="6.10382">
        <ele>1123.280029</ele>
        <time>2020-01-07T12:11:07Z</time>
      </trkpt>
      <trkpt lat="46.06065" lon="6.10358">
        <ele>1123.640015</ele>
        <time>2020-01-07T12:11:10Z</time>
      </trkpt>
      <trkpt lat="46.06074" lon="6.10337">
        <ele>1124.380005</ele>
        <time>2020-01-07T12:11:13Z</time>
      </trkpt>
      <trkpt lat="46.06119" lon="6.10279">
        <ele>1129.441284</ele>
        <time>2020-01-07T12:11:24Z</time>
      </trkpt>
      <trkpt lat="46.06141" lon="6.10256">
        <ele>1132.834961</ele>
        <time>2020-01-07T12:11:29Z</time>
      </trkpt>
      <trkpt lat="46.06182" lon="6.10195">
        <ele>1139.950195</ele>
        <time>2020-01-07T12:11:39Z</time>
      </trkpt>
      <trkpt lat="46.06217" lon="6.10132">
        <ele>1143.532471</ele>
        <time>2020-01-07T12:11:49Z</time>
      </trkpt>
      <trkpt lat="46.06234" lon="6.10123">
        <ele>1145.224976</ele>
        <time>2020-01-07T12:11:52Z</time>
      </trkpt>
      <trkpt lat="46.06249" lon="6.10132">
        <ele>1147.15686</ele>
        <time>2020-01-07T12:11:55Z</time>
      </trkpt>
      <trkpt lat="46.0626" lon="6.10149">
        <ele>1148.943481</ele>
        <time>2020-01-07T12:11:58Z</time>
      </trkpt>
      <trkpt lat="46.0627" lon="6.1017">
        <ele>1150.327148</ele>
        <time>2020-01-07T12:12:01Z</time>
      </trkpt>
      <trkpt lat="46.0632" lon="6.103">
        <ele>1154.647461</ele>
        <time>2020-01-07T12:12:20Z</time>
      </trkpt>
      <trkpt lat="46.06341" lon="6.1035">
        <ele>1154.117798</ele>
        <time>2020-01-07T12:12:27Z</time>
      </trkpt>
      <trkpt lat="46.0636" lon="6.10361">
        <ele>1154.795044</ele>
        <time>2020-01-07T12:12:30Z</time>
      </trkpt>
      <trkpt lat="46.06381" lon="6.10368">
        <ele>1156.398071</ele>
        <time>2020-01-07T12:12:34Z</time>
      </trkpt>
      <trkpt lat="46.06397" lon="6.10385">
        <ele>1156.988037</ele>
        <time>2020-01-07T12:12:38Z</time>
      </trkpt>
      <trkpt lat="46.06422" lon="6.10427">
        <ele>1154.669556</ele>
        <time>2020-01-07T12:12:45Z</time>
      </trkpt>
      <trkpt lat="46.06479" lon="6.10481">
        <ele>1158.477661</ele>
        <time>2020-01-07T12:12:57Z</time>
      </trkpt>
      <trkpt lat="46.06496" lon="6.10506">
        <ele>1160.191284</ele>
        <time>2020-01-07T12:13:01Z</time>
      </trkpt>
      <trkpt lat="46.06498" lon="6.1053">
        <ele>1162.295044</ele>
        <time>2020-01-07T12:13:04Z</time>
      </trkpt>
      <trkpt lat="46.06493" lon="6.10553">
        <ele>1163.721191</ele>
        <time>2020-01-07T12:13:07Z</time>
      </trkpt>
      <trkpt lat="46.06472" lon="6.10612">
        <ele>1164.839111</ele>
        <time>2020-01-07T12:13:15Z</time>
      </trkpt>
      <trkpt lat="46.06467" lon="6.10642">
        <ele>1164.590942</ele>
        <time>2020-01-07T12:13:19Z</time>
      </trkpt>
      <trkpt lat="46.06466" lon="6.10668">
        <ele>1164.27478</ele>
        <time>2020-01-07T12:13:22Z</time>
      </trkpt>
      <trkpt lat="46.06469" lon="6.10705">
        <ele>1164.127808</ele>
        <time>2020-01-07T12:13:27Z</time>
      </trkpt>
      <trkpt lat="46.0649" lon="6.10749">
        <ele>1167.096924</ele>
        <time>2020-01-07T12:13:33Z</time>
      </trkpt>
      <trkpt lat="46.06497" lon="6.10771">
        <ele>1168.302734</ele>
        <time>2020-01-07T12:13:36Z</time>
      </trkpt>
      <trkpt lat="46.06496" lon="6.10808">
        <ele>1168.476807</ele>
        <time>2020-01-07T12:13:41Z</time>
      </trkpt>
      <trkpt lat="46.0649" lon="6.10844">
        <ele>1169.325928</ele>
        <time>2020-01-07T12:13:46Z</time>
      </trkpt>
      <trkpt lat="46.06482" lon="6.10876">
        <ele>1170.410522</ele>
        <time>2020-01-07T12:13:50Z</time>
      </trkpt>
      <trkpt lat="46.06481" lon="6.10902">
        <ele>1171.344482</ele>
        <time>2020-01-07T12:13:53Z</time>
      </trkpt>
      <trkpt lat="46.06484" lon="6.10945">
        <ele>1173.233521</ele>
        <time>2020-01-07T12:13:58Z</time>
      </trkpt>
      <trkpt lat="46.06494" lon="6.1097">
        <ele>1174.055176</ele>
        <time>2020-01-07T12:14:02Z</time>
      </trkpt>
      <trkpt lat="46.06505" lon="6.1097">
        <ele>1175.961914</ele>
        <time>2020-01-07T12:14:04Z</time>
      </trkpt>
      <trkpt lat="46.06514" lon="6.10957">
        <ele>1177.807617</ele>
        <time>2020-01-07T12:14:06Z</time>
      </trkpt>
      <trkpt lat="46.0652" lon="6.10927">
        <ele>1178.572876</ele>
        <time>2020-01-07T12:14:10Z</time>
      </trkpt>
      <trkpt lat="46.06529" lon="6.10898">
        <ele>1179.836304</ele>
        <time>2020-01-07T12:14:14Z</time>
      </trkpt>
      <trkpt lat="46.06541" lon="6.10874">
        <ele>1180.769409</ele>
        <time>2020-01-07T12:14:18Z</time>
      </trkpt>
      <trkpt lat="46.06557" lon="6.10863">
        <ele>1181.787598</ele>
        <time>2020-01-07T12:14:21Z</time>
      </trkpt>
      <trkpt lat="46.06597" lon="6.10857">
        <ele>1185.939941</ele>
        <time>2020-01-07T12:14:28Z</time>
      </trkpt>
      <trkpt lat="46.06618" lon="6.10846">
        <ele>1187.160034</ele>
        <time>2020-01-07T12:14:32Z</time>
      </trkpt>
      <trkpt lat="46.0664" lon="6.10824">
        <ele>1187.452393</ele>
        <time>2020-01-07T12:14:37Z</time>
      </trkpt>
      <trkpt lat="46.0665" lon="6.108">
        <ele>1187.736572</ele>
        <time>2020-01-07T12:14:40Z</time>
      </trkpt>
      <trkpt lat="46.0665" lon="6.10778">
        <ele>1186.777832</ele>
        <time>2020-01-07T12:14:43Z</time>
      </trkpt>
      <trkpt lat="46.06642" lon="6.10756">
        <ele>1184.923706</ele>
        <time>2020-01-07T12:14:46Z</time>
      </trkpt>
      <trkpt lat="46.06638" lon="6.10736">
        <ele>1184.225952</ele>
        <time>2020-01-07T12:14:48Z</time>
      </trkpt>
      <trkpt lat="46.06638" lon="6.10709">
        <ele>1184.137939</ele>
        <time>2020-01-07T12:14:52Z</time>
      </trkpt>
      <trkpt lat="46.06644" lon="6.10677">
        <ele>1184.95105</ele>
        <time>2020-01-07T12:14:56Z</time>
      </trkpt>
      <trkpt lat="46.06654" lon="6.1066">
        <ele>1186.431152</ele>
        <time>2020-01-07T12:14:59Z</time>
      </trkpt>
      <trkpt lat="46.06701" lon="6.10617">
        <ele>1189.621826</ele>
        <time>2020-01-07T12:15:08Z</time>
      </trkpt>
      <trkpt lat="46.06719" lon="6.10614">
        <ele>1189.838135</ele>
        <time>2020-01-07T12:15:12Z</time>
      </trkpt>
      <trkpt lat="46.06748" lon="6.10621">
        <ele>1189.530029</ele>
        <time>2020-01-07T12:15:17Z</time>
      </trkpt>
      <trkpt lat="46.06762" lon="6.10637">
        <ele>1191.146729</ele>
        <time>2020-01-07T12:15:20Z</time>
      </trkpt>
      <trkpt lat="46.06828" lon="6.10779">
        <ele>1195.560303</ele>
        <time>2020-01-07T12:15:41Z</time>
      </trkpt>
      <trkpt lat="46.06841" lon="6.108">
        <ele>1196.180786</ele>
        <time>2020-01-07T12:15:45Z</time>
      </trkpt>
      <trkpt lat="46.069" lon="6.10852">
        <ele>1196.981079</ele>
        <time>2020-01-07T12:15:57Z</time>
      </trkpt>
      <trkpt lat="46.06922" lon="6.10878">
        <ele>1194.736572</ele>
        <time>2020-01-07T12:16:02Z</time>
      </trkpt>
      <trkpt lat="46.06935" lon="6.10901">
        <ele>1197.21106</ele>
        <time>2020-01-07T12:16:06Z</time>
      </trkpt>
      <trkpt lat="46.0694" lon="6.10923">
        <ele>1200.60144</ele>
        <time>2020-01-07T12:16:09Z</time>
      </trkpt>
      <trkpt lat="46.06938" lon="6.10997">
        <ele>1206.361572</ele>
        <time>2020-01-07T12:16:18Z</time>
      </trkpt>
      <trkpt lat="46.06939" lon="6.11031">
        <ele>1207.152954</ele>
        <time>2020-01-07T12:16:22Z</time>
      </trkpt>
      <trkpt lat="46.06947" lon="6.11069">
        <ele>1208.006592</ele>
        <time>2020-01-07T12:16:27Z</time>
      </trkpt>
      <trkpt lat="46.06964" lon="6.11091">
        <ele>1207.316284</ele>
        <time>2020-01-07T12:16:31Z</time>
      </trkpt>
      <trkpt lat="46.07055" lon="6.11167">
        <ele>1205.480591</ele>
        <time>2020-01-07T12:16:50Z</time>
      </trkpt>
      <trkpt lat="46.07074" lon="6.11191">
        <ele>1206.499878</ele>
        <time>2020-01-07T12:16:54Z</time>
      </trkpt>
      <trkpt lat="46.07073" lon="6.11209">
        <ele>1208.316284</ele>
        <time>2020-01-07T12:16:56Z</time>
      </trkpt>
      <trkpt lat="46.06958" lon="6.11515">
        <ele>1217.142212</ele>
        <time>2020-01-07T12:17:39Z</time>
      </trkpt>
      <trkpt lat="46.06938" lon="6.11533">
        <ele>1215.231689</ele>
        <time>2020-01-07T12:17:43Z</time>
      </trkpt>
      <trkpt lat="46.06895" lon="6.11531">
        <ele>1214.250854</ele>
        <time>2020-01-07T12:17:51Z</time>
      </trkpt>
      <trkpt lat="46.06872" lon="6.11539">
        <ele>1212.720459</ele>
        <time>2020-01-07T12:17:55Z</time>
      </trkpt>
      <trkpt lat="46.06856" lon="6.11551">
        <ele>1211.026611</ele>
        <time>2020-01-07T12:17:59Z</time>
      </trkpt>
      <trkpt lat="46.06824" lon="6.11557">
        <ele>1210.047119</ele>
        <time>2020-01-07T12:18:04Z</time>
      </trkpt>
      <trkpt lat="46.06806" lon="6.11555">
        <ele>1209.448608</ele>
        <time>2020-01-07T12:18:08Z</time>
      </trkpt>
      <trkpt lat="46.06786" lon="6.11563">
        <ele>1207.154663</ele>
        <time>2020-01-07T12:18:11Z</time>
      </trkpt>
      <trkpt lat="46.06784" lon="6.11583">
        <ele>1203.966919</ele>
        <time>2020-01-07T12:18:14Z</time>
      </trkpt>
      <trkpt lat="46.06798" lon="6.116">
        <ele>1201.382324</ele>
        <time>2020-01-07T12:18:17Z</time>
      </trkpt>
      <trkpt lat="46.0685" lon="6.11611">
        <ele>1199.202515</ele>
        <time>2020-01-07T12:18:26Z</time>
      </trkpt>
      <trkpt lat="46.06864" lon="6.11619">
        <ele>1197.46875</ele>
        <time>2020-01-07T12:18:29Z</time>
      </trkpt>
      <trkpt lat="46.06881" lon="6.11636">
        <ele>1196.789429</ele>
        <time>2020-01-07T12:18:33Z</time>
      </trkpt>
      <trkpt lat="46.06903" lon="6.11683">
        <ele>1194.366333</ele>
        <time>2020-01-07T12:18:40Z</time>
      </trkpt>
      <trkpt lat="46.06917" lon="6.11692">
        <ele>1195.674194</ele>
        <time>2020-01-07T12:18:42Z</time>
      </trkpt>
      <trkpt lat="46.06924" lon="6.11709">
        <ele>1197.389893</ele>
        <time>2020-01-07T12:18:45Z</time>
      </trkpt>
      <trkpt lat="46.06934" lon="6.11765">
        <ele>1200.945068</ele>
        <time>2020-01-07T12:18:52Z</time>
      </trkpt>
      <trkpt lat="46.06925" lon="6.11795">
        <ele>1202.608398</ele>
        <time>2020-01-07T12:18:56Z</time>
      </trkpt>
      <trkpt lat="46.06888" lon="6.11829">
        <ele>1204.004761</ele>
        <time>2020-01-07T12:19:04Z</time>
      </trkpt>
      <trkpt lat="46.06867" lon="6.11863">
        <ele>1205.484131</ele>
        <time>2020-01-07T12:19:09Z</time>
      </trkpt>
      <trkpt lat="46.06869" lon="6.11979">
        <ele>1209.417236</ele>
        <time>2020-01-07T12:19:24Z</time>
      </trkpt>
      <trkpt lat="46.06868" lon="6.12003">
        <ele>1210.451904</ele>
        <time>2020-01-07T12:19:27Z</time>
      </trkpt>
      <trkpt lat="46.06817" lon="6.12161">
        <ele>1220.651489</ele>
        <time>2020-01-07T12:19:48Z</time>
      </trkpt>
      <trkpt lat="46.06809" lon="6.12203">
        <ele>1222.046997</ele>
        <time>2020-01-07T12:19:54Z</time>
      </trkpt>
      <trkpt lat="46.06813" lon="6.12232">
        <ele>1220.546631</ele>
        <time>2020-01-07T12:19:57Z</time>
      </trkpt>
      <trkpt lat="46.06821" lon="6.12252">
        <ele>1220.174194</ele>
        <time>2020-01-07T12:20:00Z</time>
      </trkpt>
      <trkpt lat="46.06839" lon="6.12261">
        <ele>1221.991943</ele>
        <time>2020-01-07T12:20:04Z</time>
      </trkpt>
      <trkpt lat="46.06924" lon="6.12233">
        <ele>1228.014771</ele>
        <time>2020-01-07T12:20:19Z</time>
      </trkpt>
      <trkpt lat="46.0704" lon="6.12209">
        <ele>1233.190308</ele>
        <time>2020-01-07T12:20:40Z</time>
      </trkpt>
      <trkpt lat="46.0707" lon="6.12224">
        <ele>1234.595703</ele>
        <time>2020-01-07T12:20:46Z</time>
      </trkpt>
      <trkpt lat="46.07108" lon="6.12265">
        <ele>1235.854126</ele>
        <time>2020-01-07T12:20:54Z</time>
      </trkpt>
      <trkpt lat="46.07146" lon="6.1229">
        <ele>1241.005981</ele>
        <time>2020-01-07T12:21:01Z</time>
      </trkpt>
      <trkpt lat="46.07174" lon="6.12327">
        <ele>1242.464966</ele>
        <time>2020-01-07T12:21:08Z</time>
      </trkpt>
      <trkpt lat="46.07193" lon="6.12345">
        <ele>1245.464966</ele>
        <time>2020-01-07T12:21:12Z</time>
      </trkpt>
      <trkpt lat="46.0724" lon="6.12368">
        <ele>1250.390015</ele>
        <time>2020-01-07T12:21:21Z</time>
      </trkpt>
      <trkpt lat="46.07304" lon="6.12386">
        <ele>1255.972046</ele>
        <time>2020-01-07T12:21:33Z</time>
      </trkpt>
      <trkpt lat="46.07371" lon="6.12444">
        <ele>1257.967285</ele>
        <time>2020-01-07T12:21:47Z</time>
      </trkpt>
      <trkpt lat="46.07383" lon="6.12461">
        <ele>1259.822021</ele>
        <time>2020-01-07T12:21:50Z</time>
      </trkpt>
      <trkpt lat="46.07394" lon="6.1248">
        <ele>1263.53125</ele>
        <time>2020-01-07T12:21:53Z</time>
      </trkpt>
      <trkpt lat="46.0739" lon="6.12508">
        <ele>1260.987915</ele>
        <time>2020-01-07T12:21:56Z</time>
      </trkpt>
      <trkpt lat="46.07379" lon="6.12571">
        <ele>1263.039185</ele>
        <time>2020-01-07T12:22:04Z</time>
      </trkpt>
      <trkpt lat="46.07387" lon="6.12606">
        <ele>1265.503662</ele>
        <time>2020-01-07T12:22:09Z</time>
      </trkpt>
      <trkpt lat="46.07404" lon="6.1262">
        <ele>1266.875488</ele>
        <time>2020-01-07T12:22:12Z</time>
      </trkpt>
      <trkpt lat="46.07448" lon="6.12614">
        <ele>1271.730591</ele>
        <time>2020-01-07T12:22:20Z</time>
      </trkpt>
      <trkpt lat="46.07488" lon="6.1262">
        <ele>1275.063354</ele>
        <time>2020-01-07T12:22:27Z</time>
      </trkpt>
      <trkpt lat="46.07521" lon="6.12633">
        <ele>1278.01062</ele>
        <time>2020-01-07T12:22:33Z</time>
      </trkpt>
      <trkpt lat="46.07535" lon="6.12654">
        <ele>1278.382568</ele>
        <time>2020-01-07T12:22:37Z</time>
      </trkpt>
      <trkpt lat="46.0756" lon="6.12733">
        <ele>1274.775024</ele>
        <time>2020-01-07T12:22:48Z</time>
      </trkpt>
      <trkpt lat="46.07596" lon="6.12806">
        <ele>1279.710327</ele>
        <time>2020-01-07T12:22:59Z</time>
      </trkpt>
      <trkpt lat="46.07642" lon="6.1286">
        <ele>1285.183716</ele>
        <time>2020-01-07T12:23:09Z</time>
      </trkpt>
      <trkpt lat="46.07687" lon="6.12888">
        <ele>1288.956421</ele>
        <time>2020-01-07T12:23:18Z</time>
      </trkpt>
      <trkpt lat="46.07717" lon="6.1289">
        <ele>1290.498901</ele>
        <time>2020-01-07T12:23:23Z</time>
      </trkpt>
      <trkpt lat="46.0776" lon="6.12856">
        <ele>1293.057251</ele>
        <time>2020-01-07T12:23:32Z</time>
      </trkpt>
      <trkpt lat="46.078" lon="6.12802">
        <ele>1296.48938</ele>
        <time>2020-01-07T12:23:42Z</time>
      </trkpt>
      <trkpt lat="46.07847" lon="6.12706">
        <ele>1303.338623</ele>
        <time>2020-01-07T12:23:56Z</time>
      </trkpt>
      <trkpt lat="46.07869" lon="6.12683">
        <ele>1302.462769</ele>
        <time>2020-01-07T12:24:01Z</time>
      </trkpt>
      <trkpt lat="46.07922" lon="6.1264">
        <ele>1299.25354</ele>
        <time>2020-01-07T12:24:12Z</time>
      </trkpt>
      <trkpt lat="46.07974" lon="6.12607">
        <ele>1298.660034</ele>
        <time>2020-01-07T12:24:22Z</time>
      </trkpt>
      <trkpt lat="46.08018" lon="6.12574">
        <ele>1299.525024</ele>
        <time>2020-01-07T12:24:31Z</time>
      </trkpt>
      <trkpt lat="46.08037" lon="6.12541">
        <ele>1299.025269</ele>
        <time>2020-01-07T12:24:36Z</time>
      </trkpt>
      <trkpt lat="46.0805" lon="6.12501">
        <ele>1295.78186</ele>
        <time>2020-01-07T12:24:42Z</time>
      </trkpt>
      <trkpt lat="46.08061" lon="6.1248">
        <ele>1295.067261</ele>
        <time>2020-01-07T12:24:45Z</time>
      </trkpt>
      <trkpt lat="46.08074" lon="6.12477">
        <ele>1294.947754</ele>
        <time>2020-01-07T12:24:47Z</time>
      </trkpt>
      <trkpt lat="46.08104" lon="6.1249">
        <ele>1296.306274</ele>
        <time>2020-01-07T12:24:53Z</time>
      </trkpt>
      <trkpt lat="46.08138" lon="6.12521">
        <ele>1296.857544</ele>
        <time>2020-01-07T12:25:00Z</time>
      </trkpt>
      <trkpt lat="46.08157" lon="6.12534">
        <ele>1296.277466</ele>
        <time>2020-01-07T12:25:04Z</time>
      </trkpt>
      <trkpt lat="46.08176" lon="6.12567">
        <ele>1296.34021</ele>
        <time>2020-01-07T12:25:09Z</time>
      </trkpt>
      <trkpt lat="46.08198" lon="6.12644">
        <ele>1299.931641</ele>
        <time>2020-01-07T12:25:19Z</time>
      </trkpt>
      <trkpt lat="46.08218" lon="6.12668">
        <ele>1300.725586</ele>
        <time>2020-01-07T12:25:24Z</time>
      </trkpt>
      <trkpt lat="46.08252" lon="6.12689">
        <ele>1301.300049</ele>
        <time>2020-01-07T12:25:30Z</time>
      </trkpt>
      <trkpt lat="46.0829" lon="6.12732">
        <ele>1304.744019</ele>
        <time>2020-01-07T12:25:39Z</time>
      </trkpt>
      <trkpt lat="46.08349" lon="6.12781">
        <ele>1308.499268</ele>
        <time>2020-01-07T12:25:51Z</time>
      </trkpt>
      <trkpt lat="46.08367" lon="6.12806">
        <ele>1309.907593</ele>
        <time>2020-01-07T12:25:56Z</time>
      </trkpt>
      <trkpt lat="46.08415" lon="6.12887">
        <ele>1311.469849</ele>
        <time>2020-01-07T12:26:09Z</time>
      </trkpt>
      <trkpt lat="46.08436" lon="6.12928">
        <ele>1311.860352</ele>
        <time>2020-01-07T12:26:15Z</time>
      </trkpt>
      <trkpt lat="46.08456" lon="6.1299">
        <ele>1314.199951</ele>
        <time>2020-01-07T12:26:23Z</time>
      </trkpt>
      <trkpt lat="46.08494" lon="6.13077">
        <ele>1315.373779</ele>
        <time>2020-01-07T12:26:36Z</time>
      </trkpt>
      <trkpt lat="46.08534" lon="6.13133">
        <ele>1315.008423</ele>
        <time>2020-01-07T12:26:46Z</time>
      </trkpt>
      <trkpt lat="46.08554" lon="6.13145">
        <ele>1315.247559</ele>
        <time>2020-01-07T12:26:50Z</time>
      </trkpt>
      <trkpt lat="46.08583" lon="6.13151">
        <ele>1315.617554</ele>
        <time>2020-01-07T12:26:55Z</time>
      </trkpt>
      <trkpt lat="46.08606" lon="6.1316">
        <ele>1315.847534</ele>
        <time>2020-01-07T12:26:59Z</time>
      </trkpt>
      <trkpt lat="46.08749" lon="6.13257">
        <ele>1317.543945</ele>
        <time>2020-01-07T12:27:28Z</time>
      </trkpt>
      <trkpt lat="46.08805" lon="6.1329">
        <ele>1321.058105</ele>
        <time>2020-01-07T12:27:38Z</time>
      </trkpt>
      <trkpt lat="46.08824" lon="6.1332">
        <ele>1323.193237</ele>
        <time>2020-01-07T12:27:43Z</time>
      </trkpt>
      <trkpt lat="46.0884" lon="6.13371">
        <ele>1327.403442</ele>
        <time>2020-01-07T12:27:50Z</time>
      </trkpt>
      <trkpt lat="46.08849" lon="6.13389">
        <ele>1327.37793</ele>
        <time>2020-01-07T12:27:53Z</time>
      </trkpt>
      <trkpt lat="46.08884" lon="6.13433">
        <ele>1327.561279</ele>
        <time>2020-01-07T12:28:01Z</time>
      </trkpt>
      <trkpt lat="46.08891" lon="6.13449">
        <ele>1327.929321</ele>
        <time>2020-01-07T12:28:04Z</time>
      </trkpt>
      <trkpt lat="46.08932" lon="6.13619">
        <ele>1340.160034</ele>
        <time>2020-01-07T12:28:26Z</time>
      </trkpt>
      <trkpt lat="46.08936" lon="6.13639">
        <ele>1341.968018</ele>
        <time>2020-01-07T12:28:28Z</time>
      </trkpt>
      <trkpt lat="46.08938" lon="6.13678">
        <ele>1340.02771</ele>
        <time>2020-01-07T12:28:33Z</time>
      </trkpt>
      <trkpt lat="46.08941" lon="6.13696">
        <ele>1339.223267</ele>
        <time>2020-01-07T12:28:35Z</time>
      </trkpt>
      <trkpt lat="46.08945" lon="6.13705">
        <ele>1339.097778</ele>
        <time>2020-01-07T12:28:37Z</time>
      </trkpt>
      <trkpt lat="46.08959" lon="6.13726">
        <ele>1338.271729</ele>
        <time>2020-01-07T12:28:40Z</time>
      </trkpt>
      <trkpt lat="46.08976" lon="6.13744">
        <ele>1338.530029</ele>
        <time>2020-01-07T12:28:44Z</time>
      </trkpt>
      <trkpt lat="46.08994" lon="6.13762">
        <ele>1338.920044</ele>
        <time>2020-01-07T12:28:48Z</time>
      </trkpt>
      <trkpt lat="46.09026" lon="6.13786">
        <ele>1340.25354</ele>
        <time>2020-01-07T12:28:54Z</time>
      </trkpt>
      <trkpt lat="46.09037" lon="6.138">
        <ele>1340.61499</ele>
        <time>2020-01-07T12:28:57Z</time>
      </trkpt>
      <trkpt lat="46.09046" lon="6.13821">
        <ele>1340.639771</ele>
        <time>2020-01-07T12:29:00Z</time>
      </trkpt>
      <trkpt lat="46.09066" lon="6.13882">
        <ele>1339.344971</ele>
        <time>2020-01-07T12:29:08Z</time>
      </trkpt>
      <trkpt lat="46.09087" lon="6.1394">
        <ele>1335.634521</ele>
        <time>2020-01-07T12:29:16Z</time>
      </trkpt>
      <trkpt lat="46.0909" lon="6.13944">
        <ele>1335.35376</ele>
        <time>2020-01-07T12:29:17Z</time>
      </trkpt>
      <trkpt lat="46.09101" lon="6.13949">
        <ele>1335.013794</ele>
        <time>2020-01-07T12:29:19Z</time>
      </trkpt>
      <trkpt lat="46.09114" lon="6.13952">
        <ele>1335.016235</ele>
        <time>2020-01-07T12:29:22Z</time>
      </trkpt>
      <trkpt lat="46.09162" lon="6.13953">
        <ele>1335.546875</ele>
        <time>2020-01-07T12:29:30Z</time>
      </trkpt>
      <trkpt lat="46.09176" lon="6.13956">
        <ele>1335.163208</ele>
        <time>2020-01-07T12:29:33Z</time>
      </trkpt>
      <trkpt lat="46.09189" lon="6.13962">
        <ele>1334.263794</ele>
        <time>2020-01-07T12:29:35Z</time>
      </trkpt>
      <trkpt lat="46.09198" lon="6.1397">
        <ele>1333.595215</ele>
        <time>2020-01-07T12:29:37Z</time>
      </trkpt>
      <trkpt lat="46.09208" lon="6.13983">
        <ele>1333.31311</ele>
        <time>2020-01-07T12:29:39Z</time>
      </trkpt>
      <trkpt lat="46.09215" lon="6.13997">
        <ele>1333.64502</ele>
        <time>2020-01-07T12:29:41Z</time>
      </trkpt>
      <trkpt lat="46.0922" lon="6.14013">
        <ele>1334.168701</ele>
        <time>2020-01-07T12:29:44Z</time>
      </trkpt>
      <trkpt lat="46.09261" lon="6.14194">
        <ele>1345.498291</ele>
        <time>2020-01-07T12:30:07Z</time>
      </trkpt>
      <trkpt lat="46.0927" lon="6.14223">
        <ele>1346.061401</ele>
        <time>2020-01-07T12:30:11Z</time>
      </trkpt>
      <trkpt lat="46.09277" lon="6.14235">
        <ele>1346.51123</ele>
        <time>2020-01-07T12:30:13Z</time>
      </trkpt>
      <trkpt lat="46.09305" lon="6.14272">
        <ele>1345.230347</ele>
        <time>2020-01-07T12:30:20Z</time>
      </trkpt>
      <trkpt lat="46.09334" lon="6.14303">
        <ele>1344.048096</ele>
        <time>2020-01-07T12:30:26Z</time>
      </trkpt>
      <trkpt lat="46.09357" lon="6.14346">
        <ele>1340.590942</ele>
        <time>2020-01-07T12:30:33Z</time>
      </trkpt>
      <trkpt lat="46.09366" lon="6.14358">
        <ele>1339.347534</ele>
        <time>2020-01-07T12:30:35Z</time>
      </trkpt>
      <trkpt lat="46.09403" lon="6.14384">
        <ele>1337.452881</ele>
        <time>2020-01-07T12:30:42Z</time>
      </trkpt>
      <trkpt lat="46.09439" lon="6.144">
        <ele>1337.155029</ele>
        <time>2020-01-07T12:30:49Z</time>
      </trkpt>
      <trkpt lat="46.09446" lon="6.14407">
        <ele>1337.255005</ele>
        <time>2020-01-07T12:30:51Z</time>
      </trkpt>
      <trkpt lat="46.09459" lon="6.14429">
        <ele>1336.496216</ele>
        <time>2020-01-07T12:30:54Z</time>
      </trkpt>
      <trkpt lat="46.09514" lon="6.14573">
        <ele>1329.550049</ele>
        <time>2020-01-07T12:31:14Z</time>
      </trkpt>
      <trkpt lat="46.09522" lon="6.14598">
        <ele>1329.0802</ele>
        <time>2020-01-07T12:31:18Z</time>
      </trkpt>
      <trkpt lat="46.0953" lon="6.14644">
        <ele>1328.489136</ele>
        <time>2020-01-07T12:31:24Z</time>
      </trkpt>
      <trkpt lat="46.09536" lon="6.14664">
        <ele>1328.302856</ele>
        <time>2020-01-07T12:31:26Z</time>
      </trkpt>
      <trkpt lat="46.09544" lon="6.14676">
        <ele>1328.411255</ele>
        <time>2020-01-07T12:31:28Z</time>
      </trkpt>
      <trkpt lat="46.09562" lon="6.14693">
        <ele>1328.701904</ele>
        <time>2020-01-07T12:31:32Z</time>
      </trkpt>
      <trkpt lat="46.09574" lon="6.14698">
        <ele>1328.540894</ele>
        <time>2020-01-07T12:31:34Z</time>
      </trkpt>
      <trkpt lat="46.09584" lon="6.14698">
        <ele>1328.664795</ele>
        <time>2020-01-07T12:31:36Z</time>
      </trkpt>
      <trkpt lat="46.09603" lon="6.14691">
        <ele>1329.456421</ele>
        <time>2020-01-07T12:31:40Z</time>
      </trkpt>
      <trkpt lat="46.09645" lon="6.14686">
        <ele>1328.218018</ele>
        <time>2020-01-07T12:31:47Z</time>
      </trkpt>
      <trkpt lat="46.09661" lon="6.14681">
        <ele>1328.151611</ele>
        <time>2020-01-07T12:31:50Z</time>
      </trkpt>
      <trkpt lat="46.09737" lon="6.1462">
        <ele>1326.50415</ele>
        <time>2020-01-07T12:32:06Z</time>
      </trkpt>
      <trkpt lat="46.09751" lon="6.14614">
        <ele>1326.030029</ele>
        <time>2020-01-07T12:32:08Z</time>
      </trkpt>
      <trkpt lat="46.09765" lon="6.14618">
        <ele>1325.214966</ele>
        <time>2020-01-07T12:32:11Z</time>
      </trkpt>
      <trkpt lat="46.0978" lon="6.14627">
        <ele>1324.045044</ele>
        <time>2020-01-07T12:32:14Z</time>
      </trkpt>
      <trkpt lat="46.09797" lon="6.14644">
        <ele>1322.850098</ele>
        <time>2020-01-07T12:32:17Z</time>
      </trkpt>
      <trkpt lat="46.09841" lon="6.14703">
        <ele>1320.045166</ele>
        <time>2020-01-07T12:32:28Z</time>
      </trkpt>
      <trkpt lat="46.0985" lon="6.14718">
        <ele>1319.326172</ele>
        <time>2020-01-07T12:32:30Z</time>
      </trkpt>
      <trkpt lat="46.09886" lon="6.14795">
        <ele>1315.224487</ele>
        <time>2020-01-07T12:32:42Z</time>
      </trkpt>
      <trkpt lat="46.09895" lon="6.1481">
        <ele>1314.382568</ele>
        <time>2020-01-07T12:32:44Z</time>
      </trkpt>
      <trkpt lat="46.09909" lon="6.14823">
        <ele>1313.777466</ele>
        <time>2020-01-07T12:32:47Z</time>
      </trkpt>
      <trkpt lat="46.09977" lon="6.14873">
        <ele>1310.127808</ele>
        <time>2020-01-07T12:33:01Z</time>
      </trkpt>
      <trkpt lat="46.09987" lon="6.14879">
        <ele>1310.003418</ele>
        <time>2020-01-07T12:33:03Z</time>
      </trkpt>
      <trkpt lat="46.09994" lon="6.1488">
        <ele>1310.000122</ele>
        <time>2020-01-07T12:33:04Z</time>
      </trkpt>
      <trkpt lat="46.10001" lon="6.14879">
        <ele>1309.985107</ele>
        <time>2020-01-07T12:33:05Z</time>
      </trkpt>
      <trkpt lat="46.10025" lon="6.14865">
        <ele>1309.380127</ele>
        <time>2020-01-07T12:33:10Z</time>
      </trkpt>
      <trkpt lat="46.10038" lon="6.14861">
        <ele>1308.910278</ele>
        <time>2020-01-07T12:33:12Z</time>
      </trkpt>
      <trkpt lat="46.10052" lon="6.14863">
        <ele>1308.450806</ele>
        <time>2020-01-07T12:33:15Z</time>
      </trkpt>
      <trkpt lat="46.1006" lon="6.14868">
        <ele>1307.712646</ele>
        <time>2020-01-07T12:33:16Z</time>
      </trkpt>
      <trkpt lat="46.10115" lon="6.14947">
        <ele>1305.46936</ele>
        <time>2020-01-07T12:33:30Z</time>
      </trkpt>
      <trkpt lat="46.10175" lon="6.15048">
        <ele>1302.961792</ele>
        <time>2020-01-07T12:33:47Z</time>
      </trkpt>
      <trkpt lat="46.10197" lon="6.15079">
        <ele>1301.659546</ele>
        <time>2020-01-07T12:33:52Z</time>
      </trkpt>
      <trkpt lat="46.10262" lon="6.15157">
        <ele>1294.386841</ele>
        <time>2020-01-07T12:34:07Z</time>
      </trkpt>
      <trkpt lat="46.10289" lon="6.15184">
        <ele>1292.974121</ele>
        <time>2020-01-07T12:34:13Z</time>
      </trkpt>
      <trkpt lat="46.10407" lon="6.15285">
        <ele>1289.993774</ele>
        <time>2020-01-07T12:34:37Z</time>
      </trkpt>
      <trkpt lat="46.10421" lon="6.15293">
        <ele>1289.705566</ele>
        <time>2020-01-07T12:34:40Z</time>
      </trkpt>
      <trkpt lat="46.10443" lon="6.15305">
        <ele>1289.372437</ele>
        <time>2020-01-07T12:34:44Z</time>
      </trkpt>
      <trkpt lat="46.10499" lon="6.15328">
        <ele>1289.434204</ele>
        <time>2020-01-07T12:34:55Z</time>
      </trkpt>
      <trkpt lat="46.10522" lon="6.15326">
        <ele>1288.685425</ele>
        <time>2020-01-07T12:34:59Z</time>
      </trkpt>
      <trkpt lat="46.10549" lon="6.15318">
        <ele>1287.057373</ele>
        <time>2020-01-07T12:35:04Z</time>
      </trkpt>
      <trkpt lat="46.10562" lon="6.15318">
        <ele>1286.738281</ele>
        <time>2020-01-07T12:35:06Z</time>
      </trkpt>
      <trkpt lat="46.1063" lon="6.15331">
        <ele>1285.96814</ele>
        <time>2020-01-07T12:35:18Z</time>
      </trkpt>
      <trkpt lat="46.10661" lon="6.15344">
        <ele>1284.985962</ele>
        <time>2020-01-07T12:35:24Z</time>
      </trkpt>
      <trkpt lat="46.1077" lon="6.15403">
        <ele>1281.753296</ele>
        <time>2020-01-07T12:35:45Z</time>
      </trkpt>
      <trkpt lat="46.1079" lon="6.15416">
        <ele>1280.861816</ele>
        <time>2020-01-07T12:35:48Z</time>
      </trkpt>
      <trkpt lat="46.1083" lon="6.15448">
        <ele>1278.569946</ele>
        <time>2020-01-07T12:35:57Z</time>
      </trkpt>
      <trkpt lat="46.1098" lon="6.15553">
        <ele>1267.846924</ele>
        <time>2020-01-07T12:36:26Z</time>
      </trkpt>
      <trkpt lat="46.11071" lon="6.15625">
        <ele>1265.4823</ele>
        <time>2020-01-07T12:36:45Z</time>
      </trkpt>
      <trkpt lat="46.11186" lon="6.15731">
        <ele>1260.275269</ele>
        <time>2020-01-07T12:37:09Z</time>
      </trkpt>
      <trkpt lat="46.11247" lon="6.15797">
        <ele>1256.413452</ele>
        <time>2020-01-07T12:37:23Z</time>
      </trkpt>
      <trkpt lat="46.11274" lon="6.1582">
        <ele>1253.736206</ele>
        <time>2020-01-07T12:37:28Z</time>
      </trkpt>
      <trkpt lat="46.11345" lon="6.1589">
        <ele>1249.324585</ele>
        <time>2020-01-07T12:37:43Z</time>
      </trkpt>
      <trkpt lat="46.1138" lon="6.15914">
        <ele>1245.971924</ele>
        <time>2020-01-07T12:37:50Z</time>
      </trkpt>
      <trkpt lat="46.11403" lon="6.15932">
        <ele>1244.739746</ele>
        <time>2020-01-07T12:37:55Z</time>
      </trkpt>
      <trkpt lat="46.11456" lon="6.15986">
        <ele>1241.89502</ele>
        <time>2020-01-07T12:38:07Z</time>
      </trkpt>
      <trkpt lat="46.11481" lon="6.1602">
        <ele>1240.565918</ele>
        <time>2020-01-07T12:38:13Z</time>
      </trkpt>
      <trkpt lat="46.11509" lon="6.16081">
        <ele>1237.805786</ele>
        <time>2020-01-07T12:38:22Z</time>
      </trkpt>
      <trkpt lat="46.11528" lon="6.16124">
        <ele>1235.165527</ele>
        <time>2020-01-07T12:38:28Z</time>
      </trkpt>
      <trkpt lat="46.11538" lon="6.16157">
        <ele>1235.257446</ele>
        <time>2020-01-07T12:38:32Z</time>
      </trkpt>
      <trkpt lat="46.11547" lon="6.16174">
        <ele>1234.753418</ele>
        <time>2020-01-07T12:38:35Z</time>
      </trkpt>
      <trkpt lat="46.11556" lon="6.16185">
        <ele>1233.706665</ele>
        <time>2020-01-07T12:38:37Z</time>
      </trkpt>
      <trkpt lat="46.1157" lon="6.16197">
        <ele>1231.754639</ele>
        <time>2020-01-07T12:38:40Z</time>
      </trkpt>
      <trkpt lat="46.116" lon="6.16216">
        <ele>1227.854492</ele>
        <time>2020-01-07T12:38:46Z</time>
      </trkpt>
      <trkpt lat="46.1165" lon="6.16233">
        <ele>1222.349609</ele>
        <time>2020-01-07T12:38:55Z</time>
      </trkpt>
      <trkpt lat="46.11673" lon="6.16246">
        <ele>1221.835938</ele>
        <time>2020-01-07T12:38:59Z</time>
      </trkpt>
      <trkpt lat="46.11785" lon="6.16317">
        <ele>1216.075317</ele>
        <time>2020-01-07T12:39:21Z</time>
      </trkpt>
      <trkpt lat="46.11811" lon="6.16343">
        <ele>1213.977539</ele>
        <time>2020-01-07T12:39:27Z</time>
      </trkpt>
      <trkpt lat="46.1184" lon="6.16384">
        <ele>1213.10498</ele>
        <time>2020-01-07T12:39:34Z</time>
      </trkpt>
      <trkpt lat="46.11882" lon="6.1646">
        <ele>1210.61499</ele>
        <time>2020-01-07T12:39:46Z</time>
      </trkpt>
      <trkpt lat="46.11895" lon="6.16488">
        <ele>1208.944336</ele>
        <time>2020-01-07T12:39:50Z</time>
      </trkpt>
      <trkpt lat="46.11912" lon="6.16533">
        <ele>1204.782959</ele>
        <time>2020-01-07T12:39:57Z</time>
      </trkpt>
      <trkpt lat="46.11924" lon="6.16573">
        <ele>1200.581543</ele>
        <time>2020-01-07T12:40:02Z</time>
      </trkpt>
      <trkpt lat="46.11927" lon="6.16593">
        <ele>1199.307373</ele>
        <time>2020-01-07T12:40:04Z</time>
      </trkpt>
      <trkpt lat="46.11933" lon="6.16709">
        <ele>1194.020508</ele>
        <time>2020-01-07T12:40:19Z</time>
      </trkpt>
      <trkpt lat="46.11931" lon="6.16728">
        <ele>1193.396118</ele>
        <time>2020-01-07T12:40:21Z</time>
      </trkpt>
      <trkpt lat="46.1192" lon="6.16803">
        <ele>1191.785278</ele>
        <time>2020-01-07T12:40:31Z</time>
      </trkpt>
      <trkpt lat="46.11919" lon="6.16829">
        <ele>1190.179565</ele>
        <time>2020-01-07T12:40:34Z</time>
      </trkpt>
      <trkpt lat="46.11924" lon="6.16908">
        <ele>1184.250977</ele>
        <time>2020-01-07T12:40:44Z</time>
      </trkpt>
      <trkpt lat="46.11933" lon="6.16965">
        <ele>1179.087891</ele>
        <time>2020-01-07T12:40:51Z</time>
      </trkpt>
      <trkpt lat="46.11928" lon="6.1702">
        <ele>1176.241577</ele>
        <time>2020-01-07T12:40:58Z</time>
      </trkpt>
      <trkpt lat="46.11935" lon="6.17055">
        <ele>1173.994873</ele>
        <time>2020-01-07T12:41:02Z</time>
      </trkpt>
      <trkpt lat="46.11939" lon="6.17068">
        <ele>1173.297974</ele>
        <time>2020-01-07T12:41:04Z</time>
      </trkpt>
      <trkpt lat="46.11941" lon="6.17093">
        <ele>1172.645386</ele>
        <time>2020-01-07T12:41:07Z</time>
      </trkpt>
      <trkpt lat="46.11941" lon="6.17126">
        <ele>1172.480225</ele>
        <time>2020-01-07T12:41:11Z</time>
      </trkpt>
      <trkpt lat="46.11944" lon="6.17152">
        <ele>1172.547974</ele>
        <time>2020-01-07T12:41:14Z</time>
      </trkpt>
      <trkpt lat="46.11948" lon="6.17163">
        <ele>1172.54895</ele>
        <time>2020-01-07T12:41:16Z</time>
      </trkpt>
      <trkpt lat="46.11959" lon="6.17179">
        <ele>1173.027466</ele>
        <time>2020-01-07T12:41:19Z</time>
      </trkpt>
      <trkpt lat="46.11981" lon="6.17186">
        <ele>1174.65686</ele>
        <time>2020-01-07T12:41:23Z</time>
      </trkpt>
      <trkpt lat="46.12041" lon="6.17185">
        <ele>1179.957642</ele>
        <time>2020-01-07T12:41:33Z</time>
      </trkpt>
      <trkpt lat="46.12052" lon="6.17183">
        <ele>1181.027466</ele>
        <time>2020-01-07T12:41:35Z</time>
      </trkpt>
      <trkpt lat="46.12059" lon="6.17179">
        <ele>1181.567505</ele>
        <time>2020-01-07T12:41:37Z</time>
      </trkpt>
      <trkpt lat="46.12099" lon="6.17144">
        <ele>1183.015869</ele>
        <time>2020-01-07T12:41:45Z</time>
      </trkpt>
      <trkpt lat="46.12111" lon="6.17136">
        <ele>1183.477173</ele>
        <time>2020-01-07T12:41:47Z</time>
      </trkpt>
      <trkpt lat="46.12127" lon="6.1713">
        <ele>1184.587524</ele>
        <time>2020-01-07T12:41:50Z</time>
      </trkpt>
      <trkpt lat="46.1217" lon="6.17121">
        <ele>1188.108276</ele>
        <time>2020-01-07T12:41:58Z</time>
      </trkpt>
      <trkpt lat="46.12187" lon="6.17113">
        <ele>1189.230591</ele>
        <time>2020-01-07T12:42:01Z</time>
      </trkpt>
      <trkpt lat="46.12197" lon="6.17104">
        <ele>1190.007568</ele>
        <time>2020-01-07T12:42:03Z</time>
      </trkpt>
      <trkpt lat="46.12223" lon="6.17076">
        <ele>1192.2229</ele>
        <time>2020-01-07T12:42:09Z</time>
      </trkpt>
      <trkpt lat="46.12241" lon="6.1706">
        <ele>1193.232544</ele>
        <time>2020-01-07T12:42:13Z</time>
      </trkpt>
      <trkpt lat="46.12264" lon="6.1705">
        <ele>1195.182495</ele>
        <time>2020-01-07T12:42:17Z</time>
      </trkpt>
      <trkpt lat="46.12278" lon="6.17049">
        <ele>1196.175781</ele>
        <time>2020-01-07T12:42:20Z</time>
      </trkpt>
      <trkpt lat="46.12293" lon="6.17052">
        <ele>1196.378906</ele>
        <time>2020-01-07T12:42:22Z</time>
      </trkpt>
      <trkpt lat="46.12304" lon="6.17059">
        <ele>1197.038452</ele>
        <time>2020-01-07T12:42:24Z</time>
      </trkpt>
      <trkpt lat="46.12384" lon="6.17124">
        <ele>1202.868652</ele>
        <time>2020-01-07T12:42:41Z</time>
      </trkpt>
      <trkpt lat="46.12412" lon="6.17139">
        <ele>1203.474976</ele>
        <time>2020-01-07T12:42:46Z</time>
      </trkpt>
      <trkpt lat="46.12444" lon="6.17153">
        <ele>1203.842529</ele>
        <time>2020-01-07T12:42:52Z</time>
      </trkpt>
      <trkpt lat="46.12471" lon="6.17172">
        <ele>1205.165161</ele>
        <time>2020-01-07T12:42:57Z</time>
      </trkpt>
      <trkpt lat="46.12553" lon="6.17236">
        <ele>1212.946777</ele>
        <time>2020-01-07T12:43:14Z</time>
      </trkpt>
      <trkpt lat="46.12561" lon="6.17245">
        <ele>1214.557007</ele>
        <time>2020-01-07T12:43:16Z</time>
      </trkpt>
      <trkpt lat="46.12566" lon="6.17256">
        <ele>1215.995117</ele>
        <time>2020-01-07T12:43:17Z</time>
      </trkpt>
      <trkpt lat="46.12571" lon="6.1727">
        <ele>1217.174683</ele>
        <time>2020-01-07T12:43:19Z</time>
      </trkpt>
      <trkpt lat="46.1258" lon="6.17324">
        <ele>1219.27771</ele>
        <time>2020-01-07T12:43:26Z</time>
      </trkpt>
      <trkpt lat="46.1259" lon="6.17358">
        <ele>1219.724976</ele>
        <time>2020-01-07T12:43:31Z</time>
      </trkpt>
      <trkpt lat="46.12598" lon="6.17375">
        <ele>1220.546265</ele>
        <time>2020-01-07T12:43:33Z</time>
      </trkpt>
      <trkpt lat="46.12622" lon="6.17415">
        <ele>1224.095825</ele>
        <time>2020-01-07T12:43:40Z</time>
      </trkpt>
      <trkpt lat="46.12649" lon="6.17477">
        <ele>1225.716431</ele>
        <time>2020-01-07T12:43:49Z</time>
      </trkpt>
      <trkpt lat="46.12661" lon="6.17492">
        <ele>1226.065552</ele>
        <time>2020-01-07T12:43:52Z</time>
      </trkpt>
      <trkpt lat="46.12693" lon="6.17506">
        <ele>1229.454102</ele>
        <time>2020-01-07T12:43:58Z</time>
      </trkpt>
      <trkpt lat="46.12724" lon="6.17516">
        <ele>1231.846313</ele>
        <time>2020-01-07T12:44:03Z</time>
      </trkpt>
      <trkpt lat="46.12753" lon="6.17519">
        <ele>1234.525269</ele>
        <time>2020-01-07T12:44:08Z</time>
      </trkpt>
      <trkpt lat="46.12817" lon="6.17516">
        <ele>1241.152466</ele>
        <time>2020-01-07T12:44:20Z</time>
      </trkpt>
      <trkpt lat="46.12833" lon="6.17518">
        <ele>1242.025024</ele>
        <time>2020-01-07T12:44:23Z</time>
      </trkpt>
      <trkpt lat="46.12875" lon="6.17534">
        <ele>1242.04248</ele>
        <time>2020-01-07T12:44:30Z</time>
      </trkpt>
      <trkpt lat="46.13006" lon="6.17538">
        <ele>1252.332031</ele>
        <time>2020-01-07T12:44:54Z</time>
      </trkpt>
      <trkpt lat="46.13065" lon="6.17533">
        <ele>1256.846558</ele>
        <time>2020-01-07T12:45:04Z</time>
      </trkpt>
      <trkpt lat="46.13094" lon="6.17535">
        <ele>1258.927979</ele>
        <time>2020-01-07T12:45:09Z</time>
      </trkpt>
      <trkpt lat="46.13106" lon="6.17539">
        <ele>1259.21936</ele>
        <time>2020-01-07T12:45:12Z</time>
      </trkpt>
      <trkpt lat="46.13149" lon="6.17561">
        <ele>1261.179443</ele>
        <time>2020-01-07T12:45:20Z</time>
      </trkpt>
      <trkpt lat="46.13212" lon="6.17589">
        <ele>1265.48999</ele>
        <time>2020-01-07T12:45:31Z</time>
      </trkpt>
      <trkpt lat="46.13234" lon="6.17594">
        <ele>1267.51001</ele>
        <time>2020-01-07T12:45:35Z</time>
      </trkpt>
      <trkpt lat="46.13278" lon="6.17597">
        <ele>1273.304199</ele>
        <time>2020-01-07T12:45:43Z</time>
      </trkpt>
      <trkpt lat="46.1329" lon="6.17603">
        <ele>1274.581299</ele>
        <time>2020-01-07T12:45:45Z</time>
      </trkpt>
      <trkpt lat="46.13299" lon="6.17618">
        <ele>1275.004761</ele>
        <time>2020-01-07T12:45:48Z</time>
      </trkpt>
      <trkpt lat="46.1333" lon="6.17712">
        <ele>1276.793701</ele>
        <time>2020-01-07T12:46:01Z</time>
      </trkpt>
      <trkpt lat="46.13348" lon="6.17784">
        <ele>1280.0979</ele>
        <time>2020-01-07T12:46:10Z</time>
      </trkpt>
      <trkpt lat="46.13351" lon="6.17802">
        <ele>1280.776978</ele>
        <time>2020-01-07T12:46:12Z</time>
      </trkpt>
      <trkpt lat="46.13352" lon="6.1783">
        <ele>1281.264038</ele>
        <time>2020-01-07T12:46:16Z</time>
      </trkpt>
      <trkpt lat="46.13343" lon="6.18114">
        <ele>1291.949707</ele>
        <time>2020-01-07T12:46:51Z</time>
      </trkpt>
      <trkpt lat="46.13347" lon="6.18135">
        <ele>1292.645264</ele>
        <time>2020-01-07T12:46:54Z</time>
      </trkpt>
      <trkpt lat="46.13352" lon="6.18151">
        <ele>1293.380005</ele>
        <time>2020-01-07T12:46:56Z</time>
      </trkpt>
      <trkpt lat="46.13368" lon="6.18172">
        <ele>1294.421143</ele>
        <time>2020-01-07T12:47:00Z</time>
      </trkpt>
      <trkpt lat="46.13432" lon="6.18235">
        <ele>1294.468506</ele>
        <time>2020-01-07T12:47:13Z</time>
      </trkpt>
      <trkpt lat="46.13447" lon="6.18246">
        <ele>1294.044067</ele>
        <time>2020-01-07T12:47:16Z</time>
      </trkpt>
      <trkpt lat="46.13464" lon="6.18249">
        <ele>1292.574097</ele>
        <time>2020-01-07T12:47:20Z</time>
      </trkpt>
      <trkpt lat="46.13475" lon="6.18246">
        <ele>1292.376953</ele>
        <time>2020-01-07T12:47:22Z</time>
      </trkpt>
      <trkpt lat="46.13482" lon="6.18242">
        <ele>1292.543091</ele>
        <time>2020-01-07T12:47:23Z</time>
      </trkpt>
      <trkpt lat="46.13495" lon="6.18228">
        <ele>1293.429443</ele>
        <time>2020-01-07T12:47:26Z</time>
      </trkpt>
      <trkpt lat="46.13514" lon="6.18202">
        <ele>1293.388916</ele>
        <time>2020-01-07T12:47:30Z</time>
      </trkpt>
      <trkpt lat="46.13526" lon="6.18191">
        <ele>1293.139526</ele>
        <time>2020-01-07T12:47:33Z</time>
      </trkpt>
      <trkpt lat="46.1354" lon="6.18185">
        <ele>1292.115845</ele>
        <time>2020-01-07T12:47:36Z</time>
      </trkpt>
      <trkpt lat="46.13567" lon="6.18181">
        <ele>1290.663696</ele>
        <time>2020-01-07T12:47:40Z</time>
      </trkpt>
      <trkpt lat="46.1358" lon="6.18176">
        <ele>1290.385986</ele>
        <time>2020-01-07T12:47:43Z</time>
      </trkpt>
      <trkpt lat="46.1359" lon="6.18169">
        <ele>1290.1521</ele>
        <time>2020-01-07T12:47:45Z</time>
      </trkpt>
      <trkpt lat="46.13631" lon="6.18124">
        <ele>1288.734131</ele>
        <time>2020-01-07T12:47:54Z</time>
      </trkpt>
      <trkpt lat="46.13641" lon="6.1811">
        <ele>1288.052002</ele>
        <time>2020-01-07T12:47:56Z</time>
      </trkpt>
      <trkpt lat="46.137" lon="6.18005">
        <ele>1284.938843</ele>
        <time>2020-01-07T12:48:13Z</time>
      </trkpt>
      <trkpt lat="46.13709" lon="6.17994">
        <ele>1284.970459</ele>
        <time>2020-01-07T12:48:15Z</time>
      </trkpt>
      <trkpt lat="46.13727" lon="6.17981">
        <ele>1284.498779</ele>
        <time>2020-01-07T12:48:19Z</time>
      </trkpt>
      <trkpt lat="46.13747" lon="6.17975">
        <ele>1284.150513</ele>
        <time>2020-01-07T12:48:22Z</time>
      </trkpt>
      <trkpt lat="46.13771" lon="6.17977">
        <ele>1283.319946</ele>
        <time>2020-01-07T12:48:27Z</time>
      </trkpt>
      <trkpt lat="46.13921" lon="6.18021">
        <ele>1279.857544</ele>
        <time>2020-01-07T12:48:54Z</time>
      </trkpt>
      <trkpt lat="46.13928" lon="6.18028">
        <ele>1278.748535</ele>
        <time>2020-01-07T12:48:55Z</time>
      </trkpt>
      <trkpt lat="46.13932" lon="6.18033">
        <ele>1278.11792</ele>
        <time>2020-01-07T12:48:56Z</time>
      </trkpt>
      <trkpt lat="46.13937" lon="6.18052">
        <ele>1277.27478</ele>
        <time>2020-01-07T12:48:59Z</time>
      </trkpt>
      <trkpt lat="46.13937" lon="6.1807">
        <ele>1277.236816</ele>
        <time>2020-01-07T12:49:01Z</time>
      </trkpt>
      <trkpt lat="46.13933" lon="6.18109">
        <ele>1277.70813</ele>
        <time>2020-01-07T12:49:06Z</time>
      </trkpt>
      <trkpt lat="46.13926" lon="6.1813">
        <ele>1278.431885</ele>
        <time>2020-01-07T12:49:09Z</time>
      </trkpt>
      <trkpt lat="46.13921" lon="6.18137">
        <ele>1278.711426</ele>
        <time>2020-01-07T12:49:10Z</time>
      </trkpt>
      <trkpt lat="46.13912" lon="6.18145">
        <ele>1278.83667</ele>
        <time>2020-01-07T12:49:12Z</time>
      </trkpt>
      <trkpt lat="46.13901" lon="6.18147">
        <ele>1279.472168</ele>
        <time>2020-01-07T12:49:14Z</time>
      </trkpt>
      <trkpt lat="46.1388" lon="6.18148">
        <ele>1278.987061</ele>
        <time>2020-01-07T12:49:18Z</time>
      </trkpt>
      <trkpt lat="46.1387" lon="6.18153">
        <ele>1278.641235</ele>
        <time>2020-01-07T12:49:19Z</time>
      </trkpt>
      <trkpt lat="46.13861" lon="6.18165">
        <ele>1278.333862</ele>
        <time>2020-01-07T12:49:22Z</time>
      </trkpt>
      <trkpt lat="46.13859" lon="6.18176">
        <ele>1278.131836</ele>
        <time>2020-01-07T12:49:23Z</time>
      </trkpt>
      <trkpt lat="46.1386" lon="6.18188">
        <ele>1277.77002</ele>
        <time>2020-01-07T12:49:25Z</time>
      </trkpt>
      <trkpt lat="46.13863" lon="6.18197">
        <ele>1277.340454</ele>
        <time>2020-01-07T12:49:26Z</time>
      </trkpt>
      <trkpt lat="46.13868" lon="6.18205">
        <ele>1277.072998</ele>
        <time>2020-01-07T12:49:27Z</time>
      </trkpt>
      <trkpt lat="46.13897" lon="6.18225">
        <ele>1275.432495</ele>
        <time>2020-01-07T12:49:33Z</time>
      </trkpt>
      <trkpt lat="46.13903" lon="6.18232">
        <ele>1275.20459</ele>
        <time>2020-01-07T12:49:34Z</time>
      </trkpt>
      <trkpt lat="46.13913" lon="6.18245">
        <ele>1274.453613</ele>
        <time>2020-01-07T12:49:37Z</time>
      </trkpt>
      <trkpt lat="46.13921" lon="6.18262">
        <ele>1273.431763</ele>
        <time>2020-01-07T12:49:39Z</time>
      </trkpt>
      <trkpt lat="46.13924" lon="6.18272">
        <ele>1272.875244</ele>
        <time>2020-01-07T12:49:40Z</time>
      </trkpt>
      <trkpt lat="46.13931" lon="6.18303">
        <ele>1271.819458</ele>
        <time>2020-01-07T12:49:45Z</time>
      </trkpt>
      <trkpt lat="46.13956" lon="6.18456">
        <ele>1262.03833</ele>
        <time>2020-01-07T12:50:04Z</time>
      </trkpt>
      <trkpt lat="46.1396" lon="6.18474">
        <ele>1261.454956</ele>
        <time>2020-01-07T12:50:06Z</time>
      </trkpt>
      <trkpt lat="46.13966" lon="6.18487">
        <ele>1260.633789</ele>
        <time>2020-01-07T12:50:08Z</time>
      </trkpt>
      <trkpt lat="46.13976" lon="6.18498">
        <ele>1259.182495</ele>
        <time>2020-01-07T12:50:10Z</time>
      </trkpt>
      <trkpt lat="46.13987" lon="6.18503">
        <ele>1257.532471</ele>
        <time>2020-01-07T12:50:12Z</time>
      </trkpt>
      <trkpt lat="46.14003" lon="6.18502">
        <ele>1255.015015</ele>
        <time>2020-01-07T12:50:15Z</time>
      </trkpt>
      <trkpt lat="46.14145" lon="6.18453">
        <ele>1245.589111</ele>
        <time>2020-01-07T12:50:41Z</time>
      </trkpt>
      <trkpt lat="46.14152" lon="6.18452">
        <ele>1245.075684</ele>
        <time>2020-01-07T12:50:43Z</time>
      </trkpt>
      <trkpt lat="46.1418" lon="6.18459">
        <ele>1247.043335</ele>
        <time>2020-01-07T12:50:48Z</time>
      </trkpt>
      <trkpt lat="46.14347" lon="6.18582">
        <ele>1247.13501</ele>
        <time>2020-01-07T12:51:21Z</time>
      </trkpt>
      <trkpt lat="46.14365" lon="6.18606">
        <ele>1245.943726</ele>
        <time>2020-01-07T12:51:25Z</time>
      </trkpt>
      <trkpt lat="46.14378" lon="6.18633">
        <ele>1244.892456</ele>
        <time>2020-01-07T12:51:29Z</time>
      </trkpt>
      <trkpt lat="46.1438" lon="6.18642">
        <ele>1244.674927</ele>
        <time>2020-01-07T12:51:31Z</time>
      </trkpt>
      <trkpt lat="46.14401" lon="6.18761">
        <ele>1239.917969</ele>
        <time>2020-01-07T12:51:46Z</time>
      </trkpt>
      <trkpt lat="46.14415" lon="6.18817">
        <ele>1238.308472</ele>
        <time>2020-01-07T12:51:53Z</time>
      </trkpt>
      <trkpt lat="46.14423" lon="6.18839">
        <ele>1237.088379</ele>
        <time>2020-01-07T12:51:56Z</time>
      </trkpt>
      <trkpt lat="46.1444" lon="6.18877">
        <ele>1235.174316</ele>
        <time>2020-01-07T12:52:02Z</time>
      </trkpt>
      <trkpt lat="46.14463" lon="6.18923">
        <ele>1231.832642</ele>
        <time>2020-01-07T12:52:09Z</time>
      </trkpt>
      <trkpt lat="46.14469" lon="6.18932">
        <ele>1230.814209</ele>
        <time>2020-01-07T12:52:10Z</time>
      </trkpt>
      <trkpt lat="46.14487" lon="6.18948">
        <ele>1229.158691</ele>
        <time>2020-01-07T12:52:14Z</time>
      </trkpt>
      <trkpt lat="46.14508" lon="6.1896">
        <ele>1227.51123</ele>
        <time>2020-01-07T12:52:18Z</time>
      </trkpt>
      <trkpt lat="46.14524" lon="6.18963">
        <ele>1226.41748</ele>
        <time>2020-01-07T12:52:21Z</time>
      </trkpt>
      <trkpt lat="46.14576" lon="6.18949">
        <ele>1226.450562</ele>
        <time>2020-01-07T12:52:30Z</time>
      </trkpt>
      <trkpt lat="46.147" lon="6.18927">
        <ele>1214.905029</ele>
        <time>2020-01-07T12:52:52Z</time>
      </trkpt>
      <trkpt lat="46.14714" lon="6.18921">
        <ele>1213.307495</ele>
        <time>2020-01-07T12:52:55Z</time>
      </trkpt>
      <trkpt lat="46.14727" lon="6.18908">
        <ele>1212.422485</ele>
        <time>2020-01-07T12:52:58Z</time>
      </trkpt>
      <trkpt lat="46.14732" lon="6.189">
        <ele>1212.463745</ele>
        <time>2020-01-07T12:52:59Z</time>
      </trkpt>
      <trkpt lat="46.14743" lon="6.18869">
        <ele>1215.08667</ele>
        <time>2020-01-07T12:53:03Z</time>
      </trkpt>
      <trkpt lat="46.14747" lon="6.18864">
        <ele>1215.269165</ele>
        <time>2020-01-07T12:53:04Z</time>
      </trkpt>
      <trkpt lat="46.14754" lon="6.18861">
        <ele>1214.971802</ele>
        <time>2020-01-07T12:53:06Z</time>
      </trkpt>
      <trkpt lat="46.1476" lon="6.18863">
        <ele>1214.291016</ele>
        <time>2020-01-07T12:53:07Z</time>
      </trkpt>
      <trkpt lat="46.14766" lon="6.18871">
        <ele>1213.191528</ele>
        <time>2020-01-07T12:53:08Z</time>
      </trkpt>
      <trkpt lat="46.14769" lon="6.18879">
        <ele>1212.361572</ele>
        <time>2020-01-07T12:53:09Z</time>
      </trkpt>
      <trkpt lat="46.14774" lon="6.1892">
        <ele>1208.572388</ele>
        <time>2020-01-07T12:53:15Z</time>
      </trkpt>
      <trkpt lat="46.14777" lon="6.18933">
        <ele>1206.900024</ele>
        <time>2020-01-07T12:53:16Z</time>
      </trkpt>
      <trkpt lat="46.14782" lon="6.18946">
        <ele>1205.579956</ele>
        <time>2020-01-07T12:53:18Z</time>
      </trkpt>
      <trkpt lat="46.14793" lon="6.18963">
        <ele>1204.079956</ele>
        <time>2020-01-07T12:53:21Z</time>
      </trkpt>
      <trkpt lat="46.148" lon="6.18971">
        <ele>1203.48999</ele>
        <time>2020-01-07T12:53:22Z</time>
      </trkpt>
      <trkpt lat="46.14917" lon="6.1905">
        <ele>1195.4104</ele>
        <time>2020-01-07T12:53:45Z</time>
      </trkpt>
      <trkpt lat="46.14947" lon="6.19057">
        <ele>1194.239014</ele>
        <time>2020-01-07T12:53:51Z</time>
      </trkpt>
      <trkpt lat="46.14952" lon="6.19061">
        <ele>1193.714111</ele>
        <time>2020-01-07T12:53:52Z</time>
      </trkpt>
      <trkpt lat="46.14958" lon="6.19068">
        <ele>1192.123657</ele>
        <time>2020-01-07T12:53:53Z</time>
      </trkpt>
      <trkpt lat="46.1496" lon="6.19075">
        <ele>1191.18811</ele>
        <time>2020-01-07T12:53:54Z</time>
      </trkpt>
      <trkpt lat="46.1496" lon="6.19082">
        <ele>1190.536255</ele>
        <time>2020-01-07T12:53:55Z</time>
      </trkpt>
      <trkpt lat="46.14959" lon="6.19089">
        <ele>1189.98584</ele>
        <time>2020-01-07T12:53:56Z</time>
      </trkpt>
      <trkpt lat="46.14956" lon="6.19098">
        <ele>1189.36145</ele>
        <time>2020-01-07T12:53:57Z</time>
      </trkpt>
      <trkpt lat="46.14948" lon="6.19105">
        <ele>1188.96936</ele>
        <time>2020-01-07T12:53:59Z</time>
      </trkpt>
      <trkpt lat="46.14922" lon="6.19113">
        <ele>1187.89856</ele>
        <time>2020-01-07T12:54:04Z</time>
      </trkpt>
      <trkpt lat="46.14914" lon="6.19119">
        <ele>1187.171387</ele>
        <time>2020-01-07T12:54:05Z</time>
      </trkpt>
      <trkpt lat="46.14825" lon="6.19234">
        <ele>1175.762451</ele>
        <time>2020-01-07T12:54:26Z</time>
      </trkpt>
      <trkpt lat="46.14814" lon="6.19246">
        <ele>1174.633789</ele>
        <time>2020-01-07T12:54:29Z</time>
      </trkpt>
      <trkpt lat="46.14802" lon="6.19256">
        <ele>1173.77771</ele>
        <time>2020-01-07T12:54:31Z</time>
      </trkpt>
      <trkpt lat="46.14777" lon="6.19265">
        <ele>1173.477661</ele>
        <time>2020-01-07T12:54:36Z</time>
      </trkpt>
      <trkpt lat="46.14768" lon="6.19271">
        <ele>1173.150391</ele>
        <time>2020-01-07T12:54:38Z</time>
      </trkpt>
      <trkpt lat="46.14762" lon="6.19281">
        <ele>1172.422241</ele>
        <time>2020-01-07T12:54:39Z</time>
      </trkpt>
      <trkpt lat="46.14761" lon="6.19293">
        <ele>1171.318848</ele>
        <time>2020-01-07T12:54:41Z</time>
      </trkpt>
      <trkpt lat="46.14764" lon="6.19307">
        <ele>1169.163574</ele>
        <time>2020-01-07T12:54:43Z</time>
      </trkpt>
      <trkpt lat="46.14771" lon="6.19315">
        <ele>1167.730835</ele>
        <time>2020-01-07T12:54:44Z</time>
      </trkpt>
      <trkpt lat="46.14781" lon="6.19317">
        <ele>1167.167603</ele>
        <time>2020-01-07T12:54:46Z</time>
      </trkpt>
      <trkpt lat="46.14804" lon="6.19318">
        <ele>1166.387695</ele>
        <time>2020-01-07T12:54:50Z</time>
      </trkpt>
      <trkpt lat="46.14823" lon="6.19327">
        <ele>1164.841309</ele>
        <time>2020-01-07T12:54:54Z</time>
      </trkpt>
      <trkpt lat="46.149" lon="6.19367">
        <ele>1158.297485</ele>
        <time>2020-01-07T12:55:08Z</time>
      </trkpt>
      <trkpt lat="46.14934" lon="6.19382">
        <ele>1155.940063</ele>
        <time>2020-01-07T12:55:15Z</time>
      </trkpt>
      <trkpt lat="46.15005" lon="6.19403">
        <ele>1150.915771</ele>
        <time>2020-01-07T12:55:27Z</time>
      </trkpt>
      <trkpt lat="46.1502" lon="6.19406">
        <ele>1149.484009</ele>
        <time>2020-01-07T12:55:30Z</time>
      </trkpt>
      <trkpt lat="46.15034" lon="6.19407">
        <ele>1148.146729</ele>
        <time>2020-01-07T12:55:33Z</time>
      </trkpt>
      <trkpt lat="46.1505" lon="6.19404">
        <ele>1146.668213</ele>
        <time>2020-01-07T12:55:36Z</time>
      </trkpt>
      <trkpt lat="46.15128" lon="6.19374">
        <ele>1142.952393</ele>
        <time>2020-01-07T12:55:50Z</time>
      </trkpt>
      <trkpt lat="46.15146" lon="6.19371">
        <ele>1141.324341</ele>
        <time>2020-01-07T12:55:53Z</time>
      </trkpt>
      <trkpt lat="46.15213" lon="6.19371">
        <ele>1134.30481</ele>
        <time>2020-01-07T12:56:05Z</time>
      </trkpt>
      <trkpt lat="46.15227" lon="6.19368">
        <ele>1132.701904</ele>
        <time>2020-01-07T12:56:08Z</time>
      </trkpt>
      <trkpt lat="46.15238" lon="6.19361">
        <ele>1131.848145</ele>
        <time>2020-01-07T12:56:10Z</time>
      </trkpt>
      <trkpt lat="46.15251" lon="6.19349">
        <ele>1130.802612</ele>
        <time>2020-01-07T12:56:12Z</time>
      </trkpt>
      <trkpt lat="46.15264" lon="6.19326">
        <ele>1129.775269</ele>
        <time>2020-01-07T12:56:16Z</time>
      </trkpt>
      <trkpt lat="46.15271" lon="6.19291">
        <ele>1128.450684</ele>
        <time>2020-01-07T12:56:21Z</time>
      </trkpt>
      <trkpt lat="46.15272" lon="6.19279">
        <ele>1128.303223</ele>
        <time>2020-01-07T12:56:22Z</time>
      </trkpt>
      <trkpt lat="46.15267" lon="6.19254">
        <ele>1128.35144</ele>
        <time>2020-01-07T12:56:25Z</time>
      </trkpt>
      <trkpt lat="46.15253" lon="6.19219">
        <ele>1128.82251</ele>
        <time>2020-01-07T12:56:30Z</time>
      </trkpt>
      <trkpt lat="46.15253" lon="6.19207">
        <ele>1127.82251</ele>
        <time>2020-01-07T12:56:32Z</time>
      </trkpt>
      <trkpt lat="46.15259" lon="6.19194">
        <ele>1124.411377</ele>
        <time>2020-01-07T12:56:34Z</time>
      </trkpt>
      <trkpt lat="46.15265" lon="6.1919">
        <ele>1121.878052</ele>
        <time>2020-01-07T12:56:35Z</time>
      </trkpt>
      <trkpt lat="46.15273" lon="6.1919">
        <ele>1119.448608</ele>
        <time>2020-01-07T12:56:36Z</time>
      </trkpt>
      <trkpt lat="46.15278" lon="6.19194">
        <ele>1118.739746</ele>
        <time>2020-01-07T12:56:37Z</time>
      </trkpt>
      <trkpt lat="46.15282" lon="6.19203">
        <ele>1119.353271</ele>
        <time>2020-01-07T12:56:39Z</time>
      </trkpt>
      <trkpt lat="46.15298" lon="6.19252">
        <ele>1120.566895</ele>
        <time>2020-01-07T12:56:45Z</time>
      </trkpt>
      <trkpt lat="46.15319" lon="6.19297">
        <ele>1118.070068</ele>
        <time>2020-01-07T12:56:52Z</time>
      </trkpt>
      <trkpt lat="46.15329" lon="6.19339">
        <ele>1115.92981</ele>
        <time>2020-01-07T12:56:57Z</time>
      </trkpt>
      <trkpt lat="46.15336" lon="6.19372">
        <ele>1112.411133</ele>
        <time>2020-01-07T12:57:02Z</time>
      </trkpt>
      <trkpt lat="46.15338" lon="6.19398">
        <ele>1110.497803</ele>
        <time>2020-01-07T12:57:05Z</time>
      </trkpt>
      <trkpt lat="46.15326" lon="6.19448">
        <ele>1107.411743</ele>
        <time>2020-01-07T12:57:11Z</time>
      </trkpt>
      <trkpt lat="46.15321" lon="6.19462">
        <ele>1106.735596</ele>
        <time>2020-01-07T12:57:13Z</time>
      </trkpt>
      <trkpt lat="46.15312" lon="6.19473">
        <ele>1106.967529</ele>
        <time>2020-01-07T12:57:15Z</time>
      </trkpt>
      <trkpt lat="46.1529" lon="6.19486">
        <ele>1108.682129</ele>
        <time>2020-01-07T12:57:20Z</time>
      </trkpt>
      <trkpt lat="46.15284" lon="6.19495">
        <ele>1108.384399</ele>
        <time>2020-01-07T12:57:21Z</time>
      </trkpt>
      <trkpt lat="46.15283" lon="6.19504">
        <ele>1107.532227</ele>
        <time>2020-01-07T12:57:22Z</time>
      </trkpt>
      <trkpt lat="46.15285" lon="6.19516">
        <ele>1106.08606</ele>
        <time>2020-01-07T12:57:24Z</time>
      </trkpt>
      <trkpt lat="46.15287" lon="6.1952">
        <ele>1105.506104</ele>
        <time>2020-01-07T12:57:24Z</time>
      </trkpt>
      <trkpt lat="46.15294" lon="6.19524">
        <ele>1104.505005</ele>
        <time>2020-01-07T12:57:26Z</time>
      </trkpt>
      <trkpt lat="46.15297" lon="6.19525">
        <ele>1104.119995</ele>
        <time>2020-01-07T12:57:26Z</time>
      </trkpt>
      <trkpt lat="46.15305" lon="6.19523">
        <ele>1103.099976</ele>
        <time>2020-01-07T12:57:28Z</time>
      </trkpt>
      <trkpt lat="46.15324" lon="6.19503">
        <ele>1102.237549</ele>
        <time>2020-01-07T12:57:32Z</time>
      </trkpt>
      <trkpt lat="46.15366" lon="6.19473">
        <ele>1099.430054</ele>
        <time>2020-01-07T12:57:40Z</time>
      </trkpt>
      <trkpt lat="46.15376" lon="6.19463">
        <ele>1098.956055</ele>
        <time>2020-01-07T12:57:43Z</time>
      </trkpt>
      <trkpt lat="46.15401" lon="6.19432">
        <ele>1097.035278</ele>
        <time>2020-01-07T12:57:48Z</time>
      </trkpt>
      <trkpt lat="46.15411" lon="6.19428">
        <ele>1095.662476</ele>
        <time>2020-01-07T12:57:50Z</time>
      </trkpt>
      <trkpt lat="46.1542" lon="6.19433">
        <ele>1094.167603</ele>
        <time>2020-01-07T12:57:52Z</time>
      </trkpt>
      <trkpt lat="46.15424" lon="6.1944">
        <ele>1093.486328</ele>
        <time>2020-01-07T12:57:53Z</time>
      </trkpt>
      <trkpt lat="46.15426" lon="6.19456">
        <ele>1092.973633</ele>
        <time>2020-01-07T12:57:55Z</time>
      </trkpt>
      <trkpt lat="46.15424" lon="6.19468">
        <ele>1093.058838</ele>
        <time>2020-01-07T12:57:57Z</time>
      </trkpt>
      <trkpt lat="46.154" lon="6.19503">
        <ele>1092.507446</ele>
        <time>2020-01-07T12:58:03Z</time>
      </trkpt>
      <trkpt lat="46.15388" lon="6.19529">
        <ele>1091.25</ele>
        <time>2020-01-07T12:58:06Z</time>
      </trkpt>
      <trkpt lat="46.15382" lon="6.19548">
        <ele>1090.130005</ele>
        <time>2020-01-07T12:58:09Z</time>
      </trkpt>
      <trkpt lat="46.15368" lon="6.19608">
        <ele>1086.015137</ele>
        <time>2020-01-07T12:58:17Z</time>
      </trkpt>
      <trkpt lat="46.15364" lon="6.19621">
        <ele>1085.164673</ele>
        <time>2020-01-07T12:58:19Z</time>
      </trkpt>
      <trkpt lat="46.15355" lon="6.19638">
        <ele>1084.413086</ele>
        <time>2020-01-07T12:58:21Z</time>
      </trkpt>
      <trkpt lat="46.15313" lon="6.19681">
        <ele>1082.357544</ele>
        <time>2020-01-07T12:58:30Z</time>
      </trkpt>
      <trkpt lat="46.15304" lon="6.19693">
        <ele>1081.172485</ele>
        <time>2020-01-07T12:58:33Z</time>
      </trkpt>
      <trkpt lat="46.15285" lon="6.19726">
        <ele>1077.577393</ele>
        <time>2020-01-07T12:58:38Z</time>
      </trkpt>
      <trkpt lat="46.1527" lon="6.19772">
        <ele>1072.67749</ele>
        <time>2020-01-07T12:58:44Z</time>
      </trkpt>
      <trkpt lat="46.15257" lon="6.19824">
        <ele>1068.435059</ele>
        <time>2020-01-07T12:58:51Z</time>
      </trkpt>
      <trkpt lat="46.15248" lon="6.19853">
        <ele>1066.161011</ele>
        <time>2020-01-07T12:58:55Z</time>
      </trkpt>
      <trkpt lat="46.15242" lon="6.19867">
        <ele>1065.073486</ele>
        <time>2020-01-07T12:58:57Z</time>
      </trkpt>
      <trkpt lat="46.1522" lon="6.19899">
        <ele>1063.734985</ele>
        <time>2020-01-07T12:59:02Z</time>
      </trkpt>
      <trkpt lat="46.15184" lon="6.19939">
        <ele>1063.692383</ele>
        <time>2020-01-07T12:59:11Z</time>
      </trkpt>
      <trkpt lat="46.1518" lon="6.19948">
        <ele>1063.594727</ele>
        <time>2020-01-07T12:59:12Z</time>
      </trkpt>
      <trkpt lat="46.15178" lon="6.19956">
        <ele>1063.37854</ele>
        <time>2020-01-07T12:59:13Z</time>
      </trkpt>
      <trkpt lat="46.15182" lon="6.19972">
        <ele>1061.618042</ele>
        <time>2020-01-07T12:59:15Z</time>
      </trkpt>
      <trkpt lat="46.15188" lon="6.19981">
        <ele>1060.087524</ele>
        <time>2020-01-07T12:59:17Z</time>
      </trkpt>
      <trkpt lat="46.15202" lon="6.19985">
        <ele>1058.10376</ele>
        <time>2020-01-07T12:59:19Z</time>
      </trkpt>
      <trkpt lat="46.15264" lon="6.19978">
        <ele>1052.554565</ele>
        <time>2020-01-07T12:59:30Z</time>
      </trkpt>
      <trkpt lat="46.15293" lon="6.19976">
        <ele>1050.726196</ele>
        <time>2020-01-07T12:59:35Z</time>
      </trkpt>
      <trkpt lat="46.15299" lon="6.19978">
        <ele>1050.155273</ele>
        <time>2020-01-07T12:59:36Z</time>
      </trkpt>
      <trkpt lat="46.15332" lon="6.19999">
        <ele>1045.513916</ele>
        <time>2020-01-07T12:59:43Z</time>
      </trkpt>
      <trkpt lat="46.15351" lon="6.20007">
        <ele>1042.936279</ele>
        <time>2020-01-07T12:59:46Z</time>
      </trkpt>
      <trkpt lat="46.15395" lon="6.20013">
        <ele>1038.05481</ele>
        <time>2020-01-07T12:59:54Z</time>
      </trkpt>
      <trkpt lat="46.15426" lon="6.20011">
        <ele>1034.904053</ele>
        <time>2020-01-07T13:00:00Z</time>
      </trkpt>
      <trkpt lat="46.15447" lon="6.20007">
        <ele>1032.377686</ele>
        <time>2020-01-07T13:00:04Z</time>
      </trkpt>
      <trkpt lat="46.15463" lon="6.19995">
        <ele>1031.937012</ele>
        <time>2020-01-07T13:00:07Z</time>
      </trkpt>
      <trkpt lat="46.15473" lon="6.19985">
        <ele>1031.061157</ele>
        <time>2020-01-07T13:00:09Z</time>
      </trkpt>
      <trkpt lat="46.15483" lon="6.19974">
        <ele>1030.316528</ele>
        <time>2020-01-07T13:00:11Z</time>
      </trkpt>
      <trkpt lat="46.155" lon="6.19949">
        <ele>1030.040283</ele>
        <time>2020-01-07T13:00:15Z</time>
      </trkpt>
      <trkpt lat="46.15505" lon="6.19944">
        <ele>1029.647827</ele>
        <time>2020-01-07T13:00:17Z</time>
      </trkpt>
      <trkpt lat="46.15514" lon="6.19945">
        <ele>1027.342896</ele>
        <time>2020-01-07T13:00:18Z</time>
      </trkpt>
      <trkpt lat="46.15517" lon="6.19949">
        <ele>1025.961182</ele>
        <time>2020-01-07T13:00:19Z</time>
      </trkpt>
      <trkpt lat="46.1552" lon="6.19959">
        <ele>1023.579163</ele>
        <time>2020-01-07T13:00:20Z</time>
      </trkpt>
      <trkpt lat="46.15517" lon="6.19972">
        <ele>1022.333618</ele>
        <time>2020-01-07T13:00:22Z</time>
      </trkpt>
      <trkpt lat="46.15504" lon="6.2">
        <ele>1021.544617</ele>
        <time>2020-01-07T13:00:26Z</time>
      </trkpt>
      <trkpt lat="46.15483" lon="6.20059">
        <ele>1015.514343</ele>
        <time>2020-01-07T13:00:34Z</time>
      </trkpt>
      <trkpt lat="46.15473" lon="6.20073">
        <ele>1015.269592</ele>
        <time>2020-01-07T13:00:37Z</time>
      </trkpt>
      <trkpt lat="46.15444" lon="6.20095">
        <ele>1015.654724</ele>
        <time>2020-01-07T13:00:43Z</time>
      </trkpt>
      <trkpt lat="46.15404" lon="6.20135">
        <ele>1013.647522</ele>
        <time>2020-01-07T13:00:51Z</time>
      </trkpt>
      <trkpt lat="46.15397" lon="6.20145">
        <ele>1013.363586</ele>
        <time>2020-01-07T13:00:53Z</time>
      </trkpt>
      <trkpt lat="46.15387" lon="6.20171">
        <ele>1011.459167</ele>
        <time>2020-01-07T13:00:57Z</time>
      </trkpt>
      <trkpt lat="46.15381" lon="6.202">
        <ele>1009.159302</ele>
        <time>2020-01-07T13:01:00Z</time>
      </trkpt>
      <trkpt lat="46.15356" lon="6.2039">
        <ele>996.332947</ele>
        <time>2020-01-07T13:01:24Z</time>
      </trkpt>
      <trkpt lat="46.15349" lon="6.20407">
        <ele>995.920593</ele>
        <time>2020-01-07T13:01:27Z</time>
      </trkpt>
      <trkpt lat="46.15337" lon="6.20428">
        <ele>994.805359</ele>
        <time>2020-01-07T13:01:30Z</time>
      </trkpt>
      <trkpt lat="46.15335" lon="6.20434">
        <ele>994.299255</ele>
        <time>2020-01-07T13:01:31Z</time>
      </trkpt>
      <trkpt lat="46.15336" lon="6.20455">
        <ele>991.521423</ele>
        <time>2020-01-07T13:01:33Z</time>
      </trkpt>
      <trkpt lat="46.15339" lon="6.20463">
        <ele>990.365173</ele>
        <time>2020-01-07T13:01:35Z</time>
      </trkpt>
      <trkpt lat="46.15358" lon="6.20489">
        <ele>985.867493</ele>
        <time>2020-01-07T13:01:39Z</time>
      </trkpt>
      <trkpt lat="46.15372" lon="6.205">
        <ele>983.070007</ele>
        <time>2020-01-07T13:01:42Z</time>
      </trkpt>
      <trkpt lat="46.15388" lon="6.20507">
        <ele>980.69751</ele>
        <time>2020-01-07T13:01:45Z</time>
      </trkpt>
      <trkpt lat="46.154" lon="6.20506">
        <ele>979.670654</ele>
        <time>2020-01-07T13:01:47Z</time>
      </trkpt>
      <trkpt lat="46.15412" lon="6.20497">
        <ele>978.501953</ele>
        <time>2020-01-07T13:01:50Z</time>
      </trkpt>
      <trkpt lat="46.15442" lon="6.20441">
        <ele>975.347839</ele>
        <time>2020-01-07T13:01:58Z</time>
      </trkpt>
      <trkpt lat="46.15449" lon="6.20417">
        <ele>974.757629</ele>
        <time>2020-01-07T13:02:01Z</time>
      </trkpt>
      <trkpt lat="46.15451" lon="6.20393">
        <ele>975.783447</ele>
        <time>2020-01-07T13:02:04Z</time>
      </trkpt>
      <trkpt lat="46.15456" lon="6.20382">
        <ele>974.757507</ele>
        <time>2020-01-07T13:02:06Z</time>
      </trkpt>
      <trkpt lat="46.15466" lon="6.20368">
        <ele>972.684021</ele>
        <time>2020-01-07T13:02:09Z</time>
      </trkpt>
      <trkpt lat="46.15497" lon="6.20315">
        <ele>968.105408</ele>
        <time>2020-01-07T13:02:17Z</time>
      </trkpt>
      <trkpt lat="46.15512" lon="6.20286">
        <ele>964.438782</ele>
        <time>2020-01-07T13:02:22Z</time>
      </trkpt>
      <trkpt lat="46.15521" lon="6.20276">
        <ele>962.721741</ele>
        <time>2020-01-07T13:02:24Z</time>
      </trkpt>
      <trkpt lat="46.15596" lon="6.20216">
        <ele>956.896362</ele>
        <time>2020-01-07T13:02:39Z</time>
      </trkpt>
      <trkpt lat="46.15605" lon="6.20206">
        <ele>956.264221</ele>
        <time>2020-01-07T13:02:41Z</time>
      </trkpt>
      <trkpt lat="46.1564" lon="6.20141">
        <ele>950.861755</ele>
        <time>2020-01-07T13:02:51Z</time>
      </trkpt>
      <trkpt lat="46.1567" lon="6.20078">
        <ele>941.212341</ele>
        <time>2020-01-07T13:03:00Z</time>
      </trkpt>
      <trkpt lat="46.15682" lon="6.20064">
        <ele>938.958191</ele>
        <time>2020-01-07T13:03:03Z</time>
      </trkpt>
      <trkpt lat="46.15697" lon="6.20057">
        <ele>936.162476</ele>
        <time>2020-01-07T13:03:06Z</time>
      </trkpt>
      <trkpt lat="46.15715" lon="6.20051">
        <ele>931.628174</ele>
        <time>2020-01-07T13:03:09Z</time>
      </trkpt>
      <trkpt lat="46.15731" lon="6.20038">
        <ele>929.562195</ele>
        <time>2020-01-07T13:03:13Z</time>
      </trkpt>
      <trkpt lat="46.15756" lon="6.19997">
        <ele>930.547791</ele>
        <time>2020-01-07T13:03:19Z</time>
      </trkpt>
      <trkpt lat="46.15781" lon="6.19949">
        <ele>931.986511</ele>
        <time>2020-01-07T13:03:27Z</time>
      </trkpt>
      <trkpt lat="46.1579" lon="6.19941">
        <ele>931.140015</ele>
        <time>2020-01-07T13:03:29Z</time>
      </trkpt>
      <trkpt lat="46.15853" lon="6.19908">
        <ele>917.010986</ele>
        <time>2020-01-07T13:03:40Z</time>
      </trkpt>
      <trkpt lat="46.15926" lon="6.19849">
        <ele>906.336975</ele>
        <time>2020-01-07T13:03:55Z</time>
      </trkpt>
      <trkpt lat="46.1594" lon="6.19842">
        <ele>903.528625</ele>
        <time>2020-01-07T13:03:58Z</time>
      </trkpt>
      <trkpt lat="46.15987" lon="6.1983">
        <ele>889.132446</ele>
        <time>2020-01-07T13:04:06Z</time>
      </trkpt>
      <trkpt lat="46.16006" lon="6.19821">
        <ele>880.119751</ele>
        <time>2020-01-07T13:04:10Z</time>
      </trkpt>
      <trkpt lat="46.16012" lon="6.1982">
        <ele>876.078308</ele>
        <time>2020-01-07T13:04:11Z</time>
      </trkpt>
      <trkpt lat="46.16016" lon="6.19822">
        <ele>873.707642</ele>
        <time>2020-01-07T13:04:12Z</time>
      </trkpt>
      <trkpt lat="46.16018" lon="6.19826">
        <ele>873.112488</ele>
        <time>2020-01-07T13:04:12Z</time>
      </trkpt>
      <trkpt lat="46.16019" lon="6.19835">
        <ele>874.47467</ele>
        <time>2020-01-07T13:04:14Z</time>
      </trkpt>
      <trkpt lat="46.16017" lon="6.19841">
        <ele>875.094666</ele>
        <time>2020-01-07T13:04:14Z</time>
      </trkpt>
      <trkpt lat="46.16" lon="6.19853">
        <ele>878.647644</ele>
        <time>2020-01-07T13:04:18Z</time>
      </trkpt>
      <trkpt lat="46.15976" lon="6.19862">
        <ele>883.382324</ele>
        <time>2020-01-07T13:04:22Z</time>
      </trkpt>
      <trkpt lat="46.15962" lon="6.19873">
        <ele>883.766846</ele>
        <time>2020-01-07T13:04:25Z</time>
      </trkpt>
      <trkpt lat="46.15943" lon="6.19897">
        <ele>882.616394</ele>
        <time>2020-01-07T13:04:30Z</time>
      </trkpt>
      <trkpt lat="46.15938" lon="6.19912">
        <ele>879.769226</ele>
        <time>2020-01-07T13:04:32Z</time>
      </trkpt>
      <trkpt lat="46.15907" lon="6.19958">
        <ele>876.479919</ele>
        <time>2020-01-07T13:04:39Z</time>
      </trkpt>
      <trkpt lat="46.15855" lon="6.20007">
        <ele>883.09552</ele>
        <time>2020-01-07T13:04:51Z</time>
      </trkpt>
      <trkpt lat="46.15853" lon="6.20015">
        <ele>881.624695</ele>
        <time>2020-01-07T13:04:52Z</time>
      </trkpt>
      <trkpt lat="46.15851" lon="6.2005">
        <ele>875.772522</ele>
        <time>2020-01-07T13:04:56Z</time>
      </trkpt>
      <trkpt lat="46.1584" lon="6.20091">
        <ele>872.559204</ele>
        <time>2020-01-07T13:05:01Z</time>
      </trkpt>
      <trkpt lat="46.158" lon="6.20185">
        <ele>867.639282</ele>
        <time>2020-01-07T13:05:15Z</time>
      </trkpt>
      <trkpt lat="46.15792" lon="6.20199">
        <ele>866.742676</ele>
        <time>2020-01-07T13:05:17Z</time>
      </trkpt>
      <trkpt lat="46.15789" lon="6.20209">
        <ele>865.070801</ele>
        <time>2020-01-07T13:05:18Z</time>
      </trkpt>
      <trkpt lat="46.15784" lon="6.20257">
        <ele>857.870239</ele>
        <time>2020-01-07T13:05:24Z</time>
      </trkpt>
      <trkpt lat="46.15777" lon="6.20288">
        <ele>855.498169</ele>
        <time>2020-01-07T13:05:29Z</time>
      </trkpt>
      <trkpt lat="46.15761" lon="6.20334">
        <ele>855.920471</ele>
        <time>2020-01-07T13:05:35Z</time>
      </trkpt>
      <trkpt lat="46.15745" lon="6.20413">
        <ele>844.159973</ele>
        <time>2020-01-07T13:05:45Z</time>
      </trkpt>
      <trkpt lat="46.15735" lon="6.20447">
        <ele>836.48999</ele>
        <time>2020-01-07T13:05:50Z</time>
      </trkpt>
      <trkpt lat="46.15714" lon="6.20485">
        <ele>836.062012</ele>
        <time>2020-01-07T13:05:56Z</time>
      </trkpt>
      <trkpt lat="46.15708" lon="6.20507">
        <ele>834.232544</ele>
        <time>2020-01-07T13:05:58Z</time>
      </trkpt>
      <trkpt lat="46.15703" lon="6.2056">
        <ele>826.724609</ele>
        <time>2020-01-07T13:06:05Z</time>
      </trkpt>
      <trkpt lat="46.15672" lon="6.20713">
        <ele>816.22052</ele>
        <time>2020-01-07T13:06:25Z</time>
      </trkpt>
      <trkpt lat="46.15669" lon="6.20752">
        <ele>807.493896</ele>
        <time>2020-01-07T13:06:30Z</time>
      </trkpt>
      <trkpt lat="46.15661" lon="6.20805">
        <ele>798.26709</ele>
        <time>2020-01-07T13:06:36Z</time>
      </trkpt>
      <trkpt lat="46.15644" lon="6.20867">
        <ele>792.304626</ele>
        <time>2020-01-07T13:06:44Z</time>
      </trkpt>
      <trkpt lat="46.156" lon="6.20977">
        <ele>786.273743</ele>
        <time>2020-01-07T13:07:00Z</time>
      </trkpt>
      <trkpt lat="46.15598" lon="6.20986">
        <ele>785.362549</ele>
        <time>2020-01-07T13:07:01Z</time>
      </trkpt>
      <trkpt lat="46.15599" lon="6.20996">
        <ele>782.774414</ele>
        <time>2020-01-07T13:07:02Z</time>
      </trkpt>
      <trkpt lat="46.15607" lon="6.20995">
        <ele>779.005432</ele>
        <time>2020-01-07T13:07:04Z</time>
      </trkpt>
      <trkpt lat="46.15628" lon="6.20962">
        <ele>776.665894</ele>
        <time>2020-01-07T13:07:09Z</time>
      </trkpt>
      <trkpt lat="46.15638" lon="6.20943">
        <ele>776.282776</ele>
        <time>2020-01-07T13:07:12Z</time>
      </trkpt>
      <trkpt lat="46.15641" lon="6.20927">
        <ele>778.332031</ele>
        <time>2020-01-07T13:07:14Z</time>
      </trkpt>
      <trkpt lat="46.15655" lon="6.20897">
        <ele>777.897095</ele>
        <time>2020-01-07T13:07:19Z</time>
      </trkpt>
      <trkpt lat="46.15726" lon="6.20777">
        <ele>766.068115</ele>
        <time>2020-01-07T13:07:38Z</time>
      </trkpt>
      <trkpt lat="46.15803" lon="6.20677">
        <ele>748.335022</ele>
        <time>2020-01-07T13:07:57Z</time>
      </trkpt>
      <trkpt lat="46.15829" lon="6.20656">
        <ele>741.849426</ele>
        <time>2020-01-07T13:08:02Z</time>
      </trkpt>
      <trkpt lat="46.15839" lon="6.20643">
        <ele>739.531616</ele>
        <time>2020-01-07T13:08:04Z</time>
      </trkpt>
      <trkpt lat="46.15851" lon="6.20623">
        <ele>737.571777</ele>
        <time>2020-01-07T13:08:08Z</time>
      </trkpt>
      <trkpt lat="46.15865" lon="6.20607">
        <ele>735.361877</ele>
        <time>2020-01-07T13:08:11Z</time>
      </trkpt>
      <trkpt lat="46.15889" lon="6.2059">
        <ele>731.910217</ele>
        <time>2020-01-07T13:08:16Z</time>
      </trkpt>
      <trkpt lat="46.15902" lon="6.20575">
        <ele>730.424316</ele>
        <time>2020-01-07T13:08:19Z</time>
      </trkpt>
      <trkpt lat="46.15919" lon="6.20544">
        <ele>729.348755</ele>
        <time>2020-01-07T13:08:23Z</time>
      </trkpt>
      <trkpt lat="46.15962" lon="6.20486">
        <ele>722.905029</ele>
        <time>2020-01-07T13:08:34Z</time>
      </trkpt>
      <trkpt lat="46.1598" lon="6.20449">
        <ele>721.590332</ele>
        <time>2020-01-07T13:08:40Z</time>
      </trkpt>
      <trkpt lat="46.15994" lon="6.20417">
        <ele>720.894043</ele>
        <time>2020-01-07T13:08:44Z</time>
      </trkpt>
      <trkpt lat="46.15995" lon="6.20432">
        <ele>718.844971</ele>
        <time>2020-01-07T13:08:46Z</time>
      </trkpt>
      <trkpt lat="46.15983" lon="6.20511">
        <ele>713.505737</ele>
        <time>2020-01-07T13:08:56Z</time>
      </trkpt>
      <trkpt lat="46.15979" lon="6.20555">
        <ele>710.216797</ele>
        <time>2020-01-07T13:09:01Z</time>
      </trkpt>
      <trkpt lat="46.15985" lon="6.20582">
        <ele>706.598206</ele>
        <time>2020-01-07T13:09:05Z</time>
      </trkpt>
      <trkpt lat="46.15995" lon="6.20605">
        <ele>703.199341</ele>
        <time>2020-01-07T13:09:08Z</time>
      </trkpt>
      <trkpt lat="46.16001" lon="6.20627">
        <ele>701.006592</ele>
        <time>2020-01-07T13:09:11Z</time>
      </trkpt>
      <trkpt lat="46.1598" lon="6.20653">
        <ele>702.284729</ele>
        <time>2020-01-07T13:09:16Z</time>
      </trkpt>
      <trkpt lat="46.15972" lon="6.20667">
        <ele>702.824951</ele>
        <time>2020-01-07T13:09:18Z</time>
      </trkpt>
      <trkpt lat="46.15959" lon="6.20698">
        <ele>703.137329</ele>
        <time>2020-01-07T13:09:23Z</time>
      </trkpt>
      <trkpt lat="46.15939" lon="6.2076">
        <ele>701.541382</ele>
        <time>2020-01-07T13:09:31Z</time>
      </trkpt>
      <trkpt lat="46.15857" lon="6.21046">
        <ele>689.276245</ele>
        <time>2020-01-07T13:10:09Z</time>
      </trkpt>
      <trkpt lat="46.15854" lon="6.21059">
        <ele>688.632507</ele>
        <time>2020-01-07T13:10:11Z</time>
      </trkpt>
      <trkpt lat="46.1585" lon="6.21094">
        <ele>687.387512</ele>
        <time>2020-01-07T13:10:16Z</time>
      </trkpt>
      <trkpt lat="46.15851" lon="6.21119">
        <ele>685.962524</ele>
        <time>2020-01-07T13:10:19Z</time>
      </trkpt>
      <trkpt lat="46.15881" lon="6.21388">
        <ele>670.473999</ele>
        <time>2020-01-07T13:10:52Z</time>
      </trkpt>
      <trkpt lat="46.15883" lon="6.21426">
        <ele>669.49054</ele>
        <time>2020-01-07T13:10:57Z</time>
      </trkpt>
      <trkpt lat="46.15882" lon="6.21436">
        <ele>669.229797</ele>
        <time>2020-01-07T13:10:58Z</time>
      </trkpt>
      <trkpt lat="46.1587" lon="6.2149">
        <ele>668.122864</ele>
        <time>2020-01-07T13:11:05Z</time>
      </trkpt>
      <trkpt lat="46.15857" lon="6.21526">
        <ele>666.956482</ele>
        <time>2020-01-07T13:11:10Z</time>
      </trkpt>
      <trkpt lat="46.15844" lon="6.21575">
        <ele>666.162781</ele>
        <time>2020-01-07T13:11:17Z</time>
      </trkpt>
      <trkpt lat="46.15822" lon="6.21685">
        <ele>661.481262</ele>
        <time>2020-01-07T13:11:31Z</time>
      </trkpt>
      <trkpt lat="46.15808" lon="6.21741">
        <ele>658.30127</ele>
        <time>2020-01-07T13:11:38Z</time>
      </trkpt>
      <trkpt lat="46.15764" lon="6.21864">
        <ele>651.993164</ele>
        <time>2020-01-07T13:11:55Z</time>
      </trkpt>
      <trkpt lat="46.1576" lon="6.21882">
        <ele>651.368347</ele>
        <time>2020-01-07T13:11:57Z</time>
      </trkpt>
      <trkpt lat="46.15755" lon="6.21905">
        <ele>650.456482</ele>
        <time>2020-01-07T13:12:00Z</time>
      </trkpt>
      <trkpt lat="46.15755" lon="6.2193">
        <ele>649.307068</ele>
        <time>2020-01-07T13:12:03Z</time>
      </trkpt>
      <trkpt lat="46.1576" lon="6.2196">
        <ele>648.283508</ele>
        <time>2020-01-07T13:12:07Z</time>
      </trkpt>
      <trkpt lat="46.15765" lon="6.21977">
        <ele>648.233521</ele>
        <time>2020-01-07T13:12:10Z</time>
      </trkpt>
      <trkpt lat="46.15836" lon="6.22156">
        <ele>640.222534</ele>
        <time>2020-01-07T13:12:35Z</time>
      </trkpt>
      <trkpt lat="46.15862" lon="6.22207">
        <ele>636.2995</ele>
        <time>2020-01-07T13:12:43Z</time>
      </trkpt>
      <trkpt lat="46.15863" lon="6.22213">
        <ele>635.432251</ele>
        <time>2020-01-07T13:12:44Z</time>
      </trkpt>
      <trkpt lat="46.15863" lon="6.22232">
        <ele>632.432739</ele>
        <time>2020-01-07T13:12:46Z</time>
      </trkpt>
      <trkpt lat="46.15857" lon="6.22244">
        <ele>630.636902</ele>
        <time>2020-01-07T13:12:48Z</time>
      </trkpt>
      <trkpt lat="46.15849" lon="6.22253">
        <ele>629.422485</ele>
        <time>2020-01-07T13:12:50Z</time>
      </trkpt>
      <trkpt lat="46.15841" lon="6.22258">
        <ele>628.899048</ele>
        <time>2020-01-07T13:12:51Z</time>
      </trkpt>
      <trkpt lat="46.1583" lon="6.2226">
        <ele>629.037476</ele>
        <time>2020-01-07T13:12:53Z</time>
      </trkpt>
      <trkpt lat="46.15823" lon="6.22258">
        <ele>629.662476</ele>
        <time>2020-01-07T13:12:54Z</time>
      </trkpt>
      <trkpt lat="46.15807" lon="6.22249">
        <ele>632.080017</ele>
        <time>2020-01-07T13:12:57Z</time>
      </trkpt>
      <trkpt lat="46.15799" lon="6.22249">
        <ele>632.317505</ele>
        <time>2020-01-07T13:12:59Z</time>
      </trkpt>
      <trkpt lat="46.15792" lon="6.22257">
        <ele>630.780029</ele>
        <time>2020-01-07T13:13:00Z</time>
      </trkpt>
      <trkpt lat="46.1579" lon="6.22264">
        <ele>629.320007</ele>
        <time>2020-01-07T13:13:01Z</time>
      </trkpt>
      <trkpt lat="46.1579" lon="6.22272">
        <ele>627.567505</ele>
        <time>2020-01-07T13:13:02Z</time>
      </trkpt>
      <trkpt lat="46.15795" lon="6.22283">
        <ele>625.044983</ele>
        <time>2020-01-07T13:13:04Z</time>
      </trkpt>
      <trkpt lat="46.15806" lon="6.2229">
        <ele>622.723145</ele>
        <time>2020-01-07T13:13:06Z</time>
      </trkpt>
      <trkpt lat="46.1583" lon="6.22297">
        <ele>620.349976</ele>
        <time>2020-01-07T13:13:10Z</time>
      </trkpt>
      <trkpt lat="46.15845" lon="6.22298">
        <ele>619.732483</ele>
        <time>2020-01-07T13:13:13Z</time>
      </trkpt>
      <trkpt lat="46.15866" lon="6.22289">
        <ele>621.636658</ele>
        <time>2020-01-07T13:13:17Z</time>
      </trkpt>
      <trkpt lat="46.15874" lon="6.2229">
        <ele>621.210083</ele>
        <time>2020-01-07T13:13:18Z</time>
      </trkpt>
      <trkpt lat="46.15881" lon="6.22297">
        <ele>620.220947</ele>
        <time>2020-01-07T13:13:20Z</time>
      </trkpt>
      <trkpt lat="46.15903" lon="6.22338">
        <ele>614.883545</ele>
        <time>2020-01-07T13:13:26Z</time>
      </trkpt>
      <trkpt lat="46.15916" lon="6.22351">
        <ele>614.911255</ele>
        <time>2020-01-07T13:13:29Z</time>
      </trkpt>
      <trkpt lat="46.15934" lon="6.22362">
        <ele>616.0802</ele>
        <time>2020-01-07T13:13:33Z</time>
      </trkpt>
      <trkpt lat="46.15941" lon="6.22369">
        <ele>615.411804</ele>
        <time>2020-01-07T13:13:34Z</time>
      </trkpt>
      <trkpt lat="46.16" lon="6.22439">
        <ele>607.675232</ele>
        <time>2020-01-07T13:13:48Z</time>
      </trkpt>
      <trkpt lat="46.16032" lon="6.22462">
        <ele>608.673706</ele>
        <time>2020-01-07T13:13:54Z</time>
      </trkpt>
      <trkpt lat="46.16045" lon="6.22473">
        <ele>608.431763</ele>
        <time>2020-01-07T13:13:57Z</time>
      </trkpt>
      <trkpt lat="46.16061" lon="6.22496">
        <ele>604.897583</ele>
        <time>2020-01-07T13:14:01Z</time>
      </trkpt>
      <trkpt lat="46.16089" lon="6.22547">
        <ele>596.299255</ele>
        <time>2020-01-07T13:14:09Z</time>
      </trkpt>
      <trkpt lat="46.16101" lon="6.22561">
        <ele>594.192017</ele>
        <time>2020-01-07T13:14:12Z</time>
      </trkpt>
      <trkpt lat="46.16116" lon="6.22571">
        <ele>593.934998</ele>
        <time>2020-01-07T13:14:14Z</time>
      </trkpt>
      <trkpt lat="46.16153" lon="6.22588">
        <ele>594.657654</ele>
        <time>2020-01-07T13:14:21Z</time>
      </trkpt>
      <trkpt lat="46.16164" lon="6.22595">
        <ele>593.810181</ele>
        <time>2020-01-07T13:14:24Z</time>
      </trkpt>
      <trkpt lat="46.16181" lon="6.22611">
        <ele>590.366089</ele>
        <time>2020-01-07T13:14:27Z</time>
      </trkpt>
      <trkpt lat="46.16199" lon="6.22637">
        <ele>583.700012</ele>
        <time>2020-01-07T13:14:32Z</time>
      </trkpt>
      <trkpt lat="46.16208" lon="6.22646">
        <ele>582.746399</ele>
        <time>2020-01-07T13:14:34Z</time>
      </trkpt>
      <trkpt lat="46.1622" lon="6.22652">
        <ele>582.983093</ele>
        <time>2020-01-07T13:14:36Z</time>
      </trkpt>
      <trkpt lat="46.16237" lon="6.22656">
        <ele>584.723633</ele>
        <time>2020-01-07T13:14:39Z</time>
      </trkpt>
      <trkpt lat="46.16246" lon="6.22663">
        <ele>584.383484</ele>
        <time>2020-01-07T13:14:41Z</time>
      </trkpt>
      <trkpt lat="46.16298" lon="6.22732">
        <ele>576.986267</ele>
        <time>2020-01-07T13:14:53Z</time>
      </trkpt>
      <trkpt lat="46.16317" lon="6.22778">
        <ele>573.175293</ele>
        <time>2020-01-07T13:15:00Z</time>
      </trkpt>
      <trkpt lat="46.16328" lon="6.22834">
        <ele>569.793457</ele>
        <time>2020-01-07T13:15:07Z</time>
      </trkpt>
      <trkpt lat="46.16339" lon="6.22855">
        <ele>569.6651</ele>
        <time>2020-01-07T13:15:10Z</time>
      </trkpt>
      <trkpt lat="46.16339" lon="6.22869">
        <ele>568.534485</ele>
        <time>2020-01-07T13:15:12Z</time>
      </trkpt>
      <trkpt lat="46.16337" lon="6.22873">
        <ele>567.877686</ele>
        <time>2020-01-07T13:15:13Z</time>
      </trkpt>
      <trkpt lat="46.16333" lon="6.22878">
        <ele>566.863831</ele>
        <time>2020-01-07T13:15:14Z</time>
      </trkpt>
      <trkpt lat="46.1633" lon="6.22879">
        <ele>566.342102</ele>
        <time>2020-01-07T13:15:14Z</time>
      </trkpt>
      <trkpt lat="46.16324" lon="6.22877">
        <ele>565.609619</ele>
        <time>2020-01-07T13:15:15Z</time>
      </trkpt>
      <trkpt lat="46.16308" lon="6.22853">
        <ele>564.949524</ele>
        <time>2020-01-07T13:15:19Z</time>
      </trkpt>
      <trkpt lat="46.163" lon="6.22846">
        <ele>564.039612</ele>
        <time>2020-01-07T13:15:21Z</time>
      </trkpt>
      <trkpt lat="46.1623" lon="6.22787">
        <ele>558.038879</ele>
        <time>2020-01-07T13:15:35Z</time>
      </trkpt>
      <trkpt lat="46.16219" lon="6.2278">
        <ele>556.991272</ele>
        <time>2020-01-07T13:15:38Z</time>
      </trkpt>
      <trkpt lat="46.16173" lon="6.22778">
        <ele>552.821899</ele>
        <time>2020-01-07T13:15:46Z</time>
      </trkpt>
      <trkpt lat="46.16139" lon="6.22763">
        <ele>550.700012</ele>
        <time>2020-01-07T13:15:52Z</time>
      </trkpt>
      <trkpt lat="46.16118" lon="6.22751">
        <ele>550.327515</ele>
        <time>2020-01-07T13:15:56Z</time>
      </trkpt>
      <trkpt lat="46.16089" lon="6.22721">
        <ele>550.921448</ele>
        <time>2020-01-07T13:16:02Z</time>
      </trkpt>
      <trkpt lat="46.1608" lon="6.22721">
        <ele>549.628357</ele>
        <time>2020-01-07T13:16:04Z</time>
      </trkpt>
      <trkpt lat="46.16073" lon="6.22728">
        <ele>547.661804</ele>
        <time>2020-01-07T13:16:06Z</time>
      </trkpt>
      <trkpt lat="46.16067" lon="6.22739">
        <ele>545.194458</ele>
        <time>2020-01-07T13:16:07Z</time>
      </trkpt>
      <trkpt lat="46.16006" lon="6.22654">
        <ele>551.289917</ele>
        <time>2020-01-07T13:16:22Z</time>
      </trkpt>
      <trkpt lat="46.15981" lon="6.22628">
        <ele>551.82251</ele>
        <time>2020-01-07T13:16:28Z</time>
      </trkpt>
      <trkpt lat="46.15931" lon="6.22586">
        <ele>553.88031</ele>
        <time>2020-01-07T13:16:38Z</time>
      </trkpt>
      <trkpt lat="46.15909" lon="6.22572">
        <ele>554.342041</ele>
        <time>2020-01-07T13:16:42Z</time>
      </trkpt>
      <trkpt lat="46.15887" lon="6.22564">
        <ele>555.019165</ele>
        <time>2020-01-07T13:16:46Z</time>
      </trkpt>
      <trkpt lat="46.15867" lon="6.22562">
        <ele>554.497986</ele>
        <time>2020-01-07T13:16:50Z</time>
      </trkpt>
      <trkpt lat="46.1585" lon="6.22566">
        <ele>555.828735</ele>
        <time>2020-01-07T13:16:53Z</time>
      </trkpt>
      <trkpt lat="46.15811" lon="6.22581">
        <ele>557.512878</ele>
        <time>2020-01-07T13:17:00Z</time>
      </trkpt>
      <trkpt lat="46.15779" lon="6.22578">
        <ele>558.690857</ele>
        <time>2020-01-07T13:17:06Z</time>
      </trkpt>
      <trkpt lat="46.15694" lon="6.22548">
        <ele>561.985107</ele>
        <time>2020-01-07T13:17:22Z</time>
      </trkpt>
      <trkpt lat="46.15565" lon="6.2252">
        <ele>565.107483</ele>
        <time>2020-01-07T13:17:45Z</time>
      </trkpt>
      <trkpt lat="46.15542" lon="6.22508">
        <ele>566.107483</ele>
        <time>2020-01-07T13:17:49Z</time>
      </trkpt>
      <trkpt lat="46.15405" lon="6.22389">
        <ele>570.471558</ele>
        <time>2020-01-07T13:18:18Z</time>
      </trkpt>
      <trkpt lat="46.1538" lon="6.22365">
        <ele>570.938782</ele>
        <time>2020-01-07T13:18:23Z</time>
      </trkpt>
      <trkpt lat="46.15368" lon="6.22351">
        <ele>571.016235</ele>
        <time>2020-01-07T13:18:26Z</time>
      </trkpt>
      <trkpt lat="46.15362" lon="6.22341">
        <ele>571.182495</ele>
        <time>2020-01-07T13:18:27Z</time>
      </trkpt>
      <trkpt lat="46.1534" lon="6.22295">
        <ele>572.1875</ele>
        <time>2020-01-07T13:18:34Z</time>
      </trkpt>
      <trkpt lat="46.15301" lon="6.22195">
        <ele>574.911255</ele>
        <time>2020-01-07T13:18:48Z</time>
      </trkpt>
      <trkpt lat="46.15287" lon="6.22165">
        <ele>575.380005</ele>
        <time>2020-01-07T13:18:53Z</time>
      </trkpt>
      <trkpt lat="46.15273" lon="6.22144">
        <ele>575.294983</ele>
        <time>2020-01-07T13:18:56Z</time>
      </trkpt>
      <trkpt lat="46.15253" lon="6.22123">
        <ele>574.664978</ele>
        <time>2020-01-07T13:19:01Z</time>
      </trkpt>
      <trkpt lat="46.14986" lon="6.21918">
        <ele>583.030029</ele>
        <time>2020-01-07T13:19:55Z</time>
      </trkpt>
      <trkpt lat="46.14966" lon="6.21904">
        <ele>583.669983</ele>
        <time>2020-01-07T13:19:59Z</time>
      </trkpt>
      <trkpt lat="46.14956" lon="6.219">
        <ele>583.630005</ele>
        <time>2020-01-07T13:20:00Z</time>
      </trkpt>
      <trkpt lat="46.14936" lon="6.21895">
        <ele>583.556091</ele>
        <time>2020-01-07T13:20:04Z</time>
      </trkpt>
      <trkpt lat="46.14915" lon="6.21897">
        <ele>583.128479</ele>
        <time>2020-01-07T13:20:08Z</time>
      </trkpt>
      <trkpt lat="46.14871" lon="6.21912">
        <ele>581.689026</ele>
        <time>2020-01-07T13:20:16Z</time>
      </trkpt>
      <trkpt lat="46.14851" lon="6.21917">
        <ele>581.577759</ele>
        <time>2020-01-07T13:20:19Z</time>
      </trkpt>
      <trkpt lat="46.14823" lon="6.21916">
        <ele>582.486633</ele>
        <time>2020-01-07T13:20:24Z</time>
      </trkpt>
      <trkpt lat="46.14805" lon="6.2191">
        <ele>583.598877</ele>
        <time>2020-01-07T13:20:28Z</time>
      </trkpt>
      <trkpt lat="46.14602" lon="6.21812">
        <ele>586.530029</ele>
        <time>2020-01-07T13:21:06Z</time>
      </trkpt>
      <trkpt lat="46.14521" lon="6.21755">
        <ele>587.627502</ele>
        <time>2020-01-07T13:21:22Z</time>
      </trkpt>
      <trkpt lat="46.14492" lon="6.21744">
        <ele>587.3125</ele>
        <time>2020-01-07T13:21:27Z</time>
      </trkpt>
      <trkpt lat="46.14421" lon="6.21738">
        <ele>586.519043</ele>
        <time>2020-01-07T13:21:40Z</time>
      </trkpt>
      <trkpt lat="46.14384" lon="6.21728">
        <ele>586.699646</ele>
        <time>2020-01-07T13:21:46Z</time>
      </trkpt>
      <trkpt lat="46.14097" lon="6.21604">
        <ele>589.59729</ele>
        <time>2020-01-07T13:22:40Z</time>
      </trkpt>
      <trkpt lat="46.14082" lon="6.21601">
        <ele>589.934875</ele>
        <time>2020-01-07T13:22:42Z</time>
      </trkpt>
      <trkpt lat="46.14022" lon="6.216">
        <ele>591.401672</ele>
        <time>2020-01-07T13:22:53Z</time>
      </trkpt>
      <trkpt lat="46.13962" lon="6.21595">
        <ele>591.739868</ele>
        <time>2020-01-07T13:23:04Z</time>
      </trkpt>
      <trkpt lat="46.13937" lon="6.21588">
        <ele>591.758667</ele>
        <time>2020-01-07T13:23:08Z</time>
      </trkpt>
      <trkpt lat="46.13913" lon="6.21572">
        <ele>592.814575</ele>
        <time>2020-01-07T13:23:13Z</time>
      </trkpt>
      <trkpt lat="46.13826" lon="6.21487">
        <ele>597.664978</ele>
        <time>2020-01-07T13:23:32Z</time>
      </trkpt>
      <trkpt lat="46.13805" lon="6.2147">
        <ele>598.485779</ele>
        <time>2020-01-07T13:23:36Z</time>
      </trkpt>
      <trkpt lat="46.13788" lon="6.21463">
        <ele>597.279358</ele>
        <time>2020-01-07T13:23:39Z</time>
      </trkpt>
      <trkpt lat="46.1374" lon="6.21451">
        <ele>596.078735</ele>
        <time>2020-01-07T13:23:48Z</time>
      </trkpt>
      <trkpt lat="46.13724" lon="6.21443">
        <ele>595.926758</ele>
        <time>2020-01-07T13:23:51Z</time>
      </trkpt>
      <trkpt lat="46.13705" lon="6.21426">
        <ele>596.129272</ele>
        <time>2020-01-07T13:23:55Z</time>
      </trkpt>
      <trkpt lat="46.13621" lon="6.21316">
        <ele>599.822937</ele>
        <time>2020-01-07T13:24:15Z</time>
      </trkpt>
      <trkpt lat="46.13604" lon="6.21297">
        <ele>599.862976</ele>
        <time>2020-01-07T13:24:19Z</time>
      </trkpt>
      <trkpt lat="46.13449" lon="6.21194">
        <ele>600.763916</ele>
        <time>2020-01-07T13:24:49Z</time>
      </trkpt>
      <trkpt lat="46.13437" lon="6.21185">
        <ele>601.699585</ele>
        <time>2020-01-07T13:24:52Z</time>
      </trkpt>
      <trkpt lat="46.1341" lon="6.21156">
        <ele>604.237427</ele>
        <time>2020-01-07T13:24:58Z</time>
      </trkpt>
      <trkpt lat="46.13386" lon="6.21124">
        <ele>605.756226</ele>
        <time>2020-01-07T13:25:03Z</time>
      </trkpt>
      <trkpt lat="46.13374" lon="6.21112">
        <ele>605.793762</ele>
        <time>2020-01-07T13:25:06Z</time>
      </trkpt>
      <trkpt lat="46.13361" lon="6.21103">
        <ele>605.527527</ele>
        <time>2020-01-07T13:25:09Z</time>
      </trkpt>
      <trkpt lat="46.1331" lon="6.21086">
        <ele>604.845642</ele>
        <time>2020-01-07T13:25:18Z</time>
      </trkpt>
      <trkpt lat="46.13287" lon="6.21074">
        <ele>605.999817</ele>
        <time>2020-01-07T13:25:22Z</time>
      </trkpt>
      <trkpt lat="46.13261" lon="6.21045">
        <ele>608.042236</ele>
        <time>2020-01-07T13:25:28Z</time>
      </trkpt>
      <trkpt lat="46.13155" lon="6.20911">
        <ele>614.217407</ele>
        <time>2020-01-07T13:25:53Z</time>
      </trkpt>
      <trkpt lat="46.13139" lon="6.20883">
        <ele>615.108643</ele>
        <time>2020-01-07T13:25:58Z</time>
      </trkpt>
      <trkpt lat="46.13118" lon="6.20825">
        <ele>616.414063</ele>
        <time>2020-01-07T13:26:06Z</time>
      </trkpt>
      <trkpt lat="46.13106" lon="6.20808">
        <ele>616.076172</ele>
        <time>2020-01-07T13:26:09Z</time>
      </trkpt>
      <trkpt lat="46.13094" lon="6.20797">
        <ele>615.411438</ele>
        <time>2020-01-07T13:26:11Z</time>
      </trkpt>
      <trkpt lat="46.13074" lon="6.20784">
        <ele>616.679138</ele>
        <time>2020-01-07T13:26:15Z</time>
      </trkpt>
      <trkpt lat="46.12855" lon="6.20685">
        <ele>623.840454</ele>
        <time>2020-01-07T13:26:56Z</time>
      </trkpt>
      <trkpt lat="46.12837" lon="6.20673">
        <ele>624.164246</ele>
        <time>2020-01-07T13:27:00Z</time>
      </trkpt>
      <trkpt lat="46.12823" lon="6.2066">
        <ele>624.695862</ele>
        <time>2020-01-07T13:27:02Z</time>
      </trkpt>
      <trkpt lat="46.12815" lon="6.20651">
        <ele>624.732666</ele>
        <time>2020-01-07T13:27:04Z</time>
      </trkpt>
      <trkpt lat="46.12783" lon="6.20607">
        <ele>625.054382</ele>
        <time>2020-01-07T13:27:12Z</time>
      </trkpt>
      <trkpt lat="46.12768" lon="6.2059">
        <ele>625.809692</ele>
        <time>2020-01-07T13:27:16Z</time>
      </trkpt>
      <trkpt lat="46.12758" lon="6.20583">
        <ele>626.083923</ele>
        <time>2020-01-07T13:27:18Z</time>
      </trkpt>
      <trkpt lat="46.12732" lon="6.20571">
        <ele>626.931519</ele>
        <time>2020-01-07T13:27:22Z</time>
      </trkpt>
      <trkpt lat="46.12506" lon="6.20502">
        <ele>635.864502</ele>
        <time>2020-01-07T13:28:03Z</time>
      </trkpt>
      <trkpt lat="46.12491" lon="6.20501">
        <ele>635.337402</ele>
        <time>2020-01-07T13:28:06Z</time>
      </trkpt>
      <trkpt lat="46.12469" lon="6.20508">
        <ele>634.205017</ele>
        <time>2020-01-07T13:28:10Z</time>
      </trkpt>
      <trkpt lat="46.12398" lon="6.20551">
        <ele>637.419983</ele>
        <time>2020-01-07T13:28:24Z</time>
      </trkpt>
      <trkpt lat="46.1238" lon="6.20565">
        <ele>637.671997</ele>
        <time>2020-01-07T13:28:28Z</time>
      </trkpt>
      <trkpt lat="46.12363" lon="6.20568">
        <ele>639.351318</ele>
        <time>2020-01-07T13:28:31Z</time>
      </trkpt>
      <trkpt lat="46.12344" lon="6.20578">
        <ele>641.099976</ele>
        <time>2020-01-07T13:28:34Z</time>
      </trkpt>
      <trkpt lat="46.12314" lon="6.20588">
        <ele>643.33252</ele>
        <time>2020-01-07T13:28:40Z</time>
      </trkpt>
      <trkpt lat="46.12308" lon="6.20554">
        <ele>645.36499</ele>
        <time>2020-01-07T13:28:44Z</time>
      </trkpt>
      <trkpt lat="46.12307" lon="6.2054">
        <ele>645.94873</ele>
        <time>2020-01-07T13:28:46Z</time>
      </trkpt>
      <trkpt lat="46.12308" lon="6.20514">
        <ele>646.499817</ele>
        <time>2020-01-07T13:28:49Z</time>
      </trkpt>
      <trkpt lat="46.12322" lon="6.20419">
        <ele>650.046387</ele>
        <time>2020-01-07T13:29:01Z</time>
      </trkpt>
      <trkpt lat="46.12326" lon="6.20403">
        <ele>650.872559</ele>
        <time>2020-01-07T13:29:03Z</time>
      </trkpt>
      <trkpt lat="46.12337" lon="6.20375">
        <ele>651.966187</ele>
        <time>2020-01-07T13:29:07Z</time>
      </trkpt>
      <trkpt lat="46.12348" lon="6.20354">
        <ele>652.572388</ele>
        <time>2020-01-07T13:29:10Z</time>
      </trkpt>
      <trkpt lat="46.12391" lon="6.20283">
        <ele>653.081177</ele>
        <time>2020-01-07T13:29:22Z</time>
      </trkpt>
      <trkpt lat="46.12398" lon="6.2026">
        <ele>655.710632</ele>
        <time>2020-01-07T13:29:25Z</time>
      </trkpt>
      <trkpt lat="46.12404" lon="6.20201">
        <ele>661.056396</ele>
        <time>2020-01-07T13:29:32Z</time>
      </trkpt>
      <trkpt lat="46.12403" lon="6.20178">
        <ele>662.26001</ele>
        <time>2020-01-07T13:29:35Z</time>
      </trkpt>
      <trkpt lat="46.12398" lon="6.20163">
        <ele>661.744995</ele>
        <time>2020-01-07T13:29:37Z</time>
      </trkpt>
      <trkpt lat="46.1238" lon="6.20139">
        <ele>662.984558</ele>
        <time>2020-01-07T13:29:42Z</time>
      </trkpt>
      <trkpt lat="46.12377" lon="6.2013">
        <ele>663.791687</ele>
        <time>2020-01-07T13:29:43Z</time>
      </trkpt>
      <trkpt lat="46.12375" lon="6.20117">
        <ele>664.726685</ele>
        <time>2020-01-07T13:29:44Z</time>
      </trkpt>
      <trkpt lat="46.12381" lon="6.20093">
        <ele>666.26416</ele>
        <time>2020-01-07T13:29:48Z</time>
      </trkpt>
      <trkpt lat="46.1239" lon="6.20071">
        <ele>668.671875</ele>
        <time>2020-01-07T13:29:51Z</time>
      </trkpt>
      <trkpt lat="46.12398" lon="6.20059">
        <ele>670.640564</ele>
        <time>2020-01-07T13:29:53Z</time>
      </trkpt>
      <trkpt lat="46.12406" lon="6.20055">
        <ele>673.047424</ele>
        <time>2020-01-07T13:29:54Z</time>
      </trkpt>
      <trkpt lat="46.12418" lon="6.20055">
        <ele>675.952148</ele>
        <time>2020-01-07T13:29:56Z</time>
      </trkpt>
      <trkpt lat="46.12423" lon="6.20058">
        <ele>676.888</ele>
        <time>2020-01-07T13:29:57Z</time>
      </trkpt>
      <trkpt lat="46.12437" lon="6.2007">
        <ele>679.253052</ele>
        <time>2020-01-07T13:30:00Z</time>
      </trkpt>
      <trkpt lat="46.1245" lon="6.2009">
        <ele>680.700623</ele>
        <time>2020-01-07T13:30:04Z</time>
      </trkpt>
      <trkpt lat="46.12469" lon="6.20148">
        <ele>680.674988</ele>
        <time>2020-01-07T13:30:12Z</time>
      </trkpt>
      <trkpt lat="46.12476" lon="6.20163">
        <ele>681.206238</ele>
        <time>2020-01-07T13:30:14Z</time>
      </trkpt>
      <trkpt lat="46.12525" lon="6.2023">
        <ele>684.940002</ele>
        <time>2020-01-07T13:30:26Z</time>
      </trkpt>
      <trkpt lat="46.12539" lon="6.20247">
        <ele>684.922485</ele>
        <time>2020-01-07T13:30:29Z</time>
      </trkpt>
      <trkpt lat="46.12556" lon="6.20261">
        <ele>685.484985</ele>
        <time>2020-01-07T13:30:33Z</time>
      </trkpt>
      <trkpt lat="46.12571" lon="6.20266">
        <ele>686.659363</ele>
        <time>2020-01-07T13:30:35Z</time>
      </trkpt>
      <trkpt lat="46.12587" lon="6.20264">
        <ele>687.328247</ele>
        <time>2020-01-07T13:30:38Z</time>
      </trkpt>
      <trkpt lat="46.12632" lon="6.20238">
        <ele>689.985535</ele>
        <time>2020-01-07T13:30:47Z</time>
      </trkpt>
      <trkpt lat="46.12637" lon="6.20234">
        <ele>690.041199</ele>
        <time>2020-01-07T13:30:48Z</time>
      </trkpt>
      <trkpt lat="46.12644" lon="6.20223">
        <ele>690.928162</ele>
        <time>2020-01-07T13:30:50Z</time>
      </trkpt>
      <trkpt lat="46.12646" lon="6.20207">
        <ele>692.997253</ele>
        <time>2020-01-07T13:30:52Z</time>
      </trkpt>
      <trkpt lat="46.12644" lon="6.20198">
        <ele>694.28186</ele>
        <time>2020-01-07T13:30:53Z</time>
      </trkpt>
      <trkpt lat="46.12636" lon="6.20187">
        <ele>695.900391</ele>
        <time>2020-01-07T13:30:55Z</time>
      </trkpt>
      <trkpt lat="46.12604" lon="6.2017">
        <ele>698.201294</ele>
        <time>2020-01-07T13:31:01Z</time>
      </trkpt>
      <trkpt lat="46.12591" lon="6.20158">
        <ele>699.456665</ele>
        <time>2020-01-07T13:31:04Z</time>
      </trkpt>
      <trkpt lat="46.12548" lon="6.2008">
        <ele>703.795837</ele>
        <time>2020-01-07T13:31:16Z</time>
      </trkpt>
      <trkpt lat="46.12541" lon="6.20062">
        <ele>704.749207</ele>
        <time>2020-01-07T13:31:18Z</time>
      </trkpt>
      <trkpt lat="46.12538" lon="6.20041">
        <ele>706.440613</ele>
        <time>2020-01-07T13:31:21Z</time>
      </trkpt>
      <trkpt lat="46.1254" lon="6.20023">
        <ele>707.748352</ele>
        <time>2020-01-07T13:31:23Z</time>
      </trkpt>
      <trkpt lat="46.12557" lon="6.19956">
        <ele>711.199341</ele>
        <time>2020-01-07T13:31:32Z</time>
      </trkpt>
      <trkpt lat="46.12564" lon="6.1995">
        <ele>712.125122</ele>
        <time>2020-01-07T13:31:34Z</time>
      </trkpt>
      <trkpt lat="46.12567" lon="6.19949">
        <ele>712.623657</ele>
        <time>2020-01-07T13:31:34Z</time>
      </trkpt>
      <trkpt lat="46.12582" lon="6.19954">
        <ele>715.47644</ele>
        <time>2020-01-07T13:31:37Z</time>
      </trkpt>
      <trkpt lat="46.12592" lon="6.19954">
        <ele>716.893982</ele>
        <time>2020-01-07T13:31:39Z</time>
      </trkpt>
      <trkpt lat="46.126" lon="6.19949">
        <ele>717.958984</ele>
        <time>2020-01-07T13:31:40Z</time>
      </trkpt>
      <trkpt lat="46.12603" lon="6.19944">
        <ele>718.322815</ele>
        <time>2020-01-07T13:31:41Z</time>
      </trkpt>
      <trkpt lat="46.12607" lon="6.19929">
        <ele>718.826782</ele>
        <time>2020-01-07T13:31:43Z</time>
      </trkpt>
      <trkpt lat="46.12625" lon="6.1981">
        <ele>726.151245</ele>
        <time>2020-01-07T13:31:58Z</time>
      </trkpt>
      <trkpt lat="46.12625" lon="6.19799">
        <ele>726.837769</ele>
        <time>2020-01-07T13:31:59Z</time>
      </trkpt>
      <trkpt lat="46.12622" lon="6.19784">
        <ele>727.719727</ele>
        <time>2020-01-07T13:32:01Z</time>
      </trkpt>
      <trkpt lat="46.12616" lon="6.19773">
        <ele>728.302185</ele>
        <time>2020-01-07T13:32:03Z</time>
      </trkpt>
      <trkpt lat="46.12602" lon="6.19759">
        <ele>728.777405</ele>
        <time>2020-01-07T13:32:06Z</time>
      </trkpt>
      <trkpt lat="46.12573" lon="6.19738">
        <ele>729.840759</ele>
        <time>2020-01-07T13:32:12Z</time>
      </trkpt>
      <trkpt lat="46.12551" lon="6.19715">
        <ele>732.52063</ele>
        <time>2020-01-07T13:32:17Z</time>
      </trkpt>
      <trkpt lat="46.12511" lon="6.1966">
        <ele>735.885803</ele>
        <time>2020-01-07T13:32:26Z</time>
      </trkpt>
      <trkpt lat="46.12505" lon="6.19649">
        <ele>736.466125</ele>
        <time>2020-01-07T13:32:28Z</time>
      </trkpt>
      <trkpt lat="46.12495" lon="6.19624">
        <ele>738.813904</ele>
        <time>2020-01-07T13:32:32Z</time>
      </trkpt>
      <trkpt lat="46.12478" lon="6.19563">
        <ele>747.159912</ele>
        <time>2020-01-07T13:32:40Z</time>
      </trkpt>
      <trkpt lat="46.12466" lon="6.19542">
        <ele>748.615601</ele>
        <time>2020-01-07T13:32:43Z</time>
      </trkpt>
      <trkpt lat="46.12455" lon="6.1953">
        <ele>748.593628</ele>
        <time>2020-01-07T13:32:46Z</time>
      </trkpt>
      <trkpt lat="46.12434" lon="6.19513">
        <ele>748.971985</ele>
        <time>2020-01-07T13:32:50Z</time>
      </trkpt>
      <trkpt lat="46.1239" lon="6.1949">
        <ele>748.656494</ele>
        <time>2020-01-07T13:32:58Z</time>
      </trkpt>
      <trkpt lat="46.12376" lon="6.1948">
        <ele>749.259277</ele>
        <time>2020-01-07T13:33:01Z</time>
      </trkpt>
      <trkpt lat="46.1237" lon="6.19472">
        <ele>749.929138</ele>
        <time>2020-01-07T13:33:02Z</time>
      </trkpt>
      <trkpt lat="46.12367" lon="6.19454">
        <ele>752.161865</ele>
        <time>2020-01-07T13:33:05Z</time>
      </trkpt>
      <trkpt lat="46.12369" lon="6.19443">
        <ele>753.494995</ele>
        <time>2020-01-07T13:33:06Z</time>
      </trkpt>
      <trkpt lat="46.12374" lon="6.19435">
        <ele>754.680237</ele>
        <time>2020-01-07T13:33:08Z</time>
      </trkpt>
      <trkpt lat="46.12381" lon="6.1943">
        <ele>756.001526</ele>
        <time>2020-01-07T13:33:09Z</time>
      </trkpt>
      <trkpt lat="46.12385" lon="6.19429">
        <ele>756.621277</ele>
        <time>2020-01-07T13:33:10Z</time>
      </trkpt>
      <trkpt lat="46.12395" lon="6.19432">
        <ele>757.538452</ele>
        <time>2020-01-07T13:33:11Z</time>
      </trkpt>
      <trkpt lat="46.12416" lon="6.19459">
        <ele>755.965027</ele>
        <time>2020-01-07T13:33:16Z</time>
      </trkpt>
      <trkpt lat="46.12425" lon="6.19465">
        <ele>756.716187</ele>
        <time>2020-01-07T13:33:18Z</time>
      </trkpt>
      <trkpt lat="46.1243" lon="6.19465">
        <ele>757.715271</ele>
        <time>2020-01-07T13:33:19Z</time>
      </trkpt>
      <trkpt lat="46.12437" lon="6.19461">
        <ele>759.972839</ele>
        <time>2020-01-07T13:33:20Z</time>
      </trkpt>
      <trkpt lat="46.12443" lon="6.19451">
        <ele>762.989807</ele>
        <time>2020-01-07T13:33:22Z</time>
      </trkpt>
      <trkpt lat="46.12444" lon="6.19443">
        <ele>764.285828</ele>
        <time>2020-01-07T13:33:23Z</time>
      </trkpt>
      <trkpt lat="46.1244" lon="6.19428">
        <ele>765.563965</ele>
        <time>2020-01-07T13:33:25Z</time>
      </trkpt>
      <trkpt lat="46.12436" lon="6.19419">
        <ele>766.042664</ele>
        <time>2020-01-07T13:33:26Z</time>
      </trkpt>
      <trkpt lat="46.12411" lon="6.19377">
        <ele>767.555603</ele>
        <time>2020-01-07T13:33:33Z</time>
      </trkpt>
      <trkpt lat="46.12388" lon="6.19325">
        <ele>772.368042</ele>
        <time>2020-01-07T13:33:41Z</time>
      </trkpt>
      <trkpt lat="46.12382" lon="6.19315">
        <ele>772.885498</ele>
        <time>2020-01-07T13:33:42Z</time>
      </trkpt>
      <trkpt lat="46.12356" lon="6.19294">
        <ele>772.29126</ele>
        <time>2020-01-07T13:33:48Z</time>
      </trkpt>
      <trkpt lat="46.1235" lon="6.19284">
        <ele>772.893738</ele>
        <time>2020-01-07T13:33:49Z</time>
      </trkpt>
      <trkpt lat="46.12346" lon="6.19272">
        <ele>774.049988</ele>
        <time>2020-01-07T13:33:51Z</time>
      </trkpt>
      <trkpt lat="46.12344" lon="6.19249">
        <ele>776.572998</ele>
        <time>2020-01-07T13:33:54Z</time>
      </trkpt>
      <trkpt lat="46.1234" lon="6.19233">
        <ele>777.069641</ele>
        <time>2020-01-07T13:33:56Z</time>
      </trkpt>
      <trkpt lat="46.12329" lon="6.19216">
        <ele>777.761414</ele>
        <time>2020-01-07T13:33:59Z</time>
      </trkpt>
      <trkpt lat="46.1232" lon="6.1921">
        <ele>778.993408</ele>
        <time>2020-01-07T13:34:01Z</time>
      </trkpt>
      <trkpt lat="46.12308" lon="6.19209">
        <ele>780.147827</ele>
        <time>2020-01-07T13:34:03Z</time>
      </trkpt>
      <trkpt lat="46.12298" lon="6.19213">
        <ele>780.689819</ele>
        <time>2020-01-07T13:34:05Z</time>
      </trkpt>
      <trkpt lat="46.1229" lon="6.19218">
        <ele>780.90509</ele>
        <time>2020-01-07T13:34:06Z</time>
      </trkpt>
      <trkpt lat="46.12213" lon="6.19316">
        <ele>788.963013</ele>
        <time>2020-01-07T13:34:24Z</time>
      </trkpt>
      <trkpt lat="46.12202" lon="6.19328">
        <ele>789.452026</ele>
        <time>2020-01-07T13:34:27Z</time>
      </trkpt>
      <trkpt lat="46.12189" lon="6.19334">
        <ele>790.602051</ele>
        <time>2020-01-07T13:34:29Z</time>
      </trkpt>
      <trkpt lat="46.12162" lon="6.19334">
        <ele>794.181763</ele>
        <time>2020-01-07T13:34:34Z</time>
      </trkpt>
      <trkpt lat="46.12154" lon="6.19337">
        <ele>794.914856</ele>
        <time>2020-01-07T13:34:36Z</time>
      </trkpt>
      <trkpt lat="46.12151" lon="6.1934">
        <ele>795.039673</ele>
        <time>2020-01-07T13:34:36Z</time>
      </trkpt>
      <trkpt lat="46.12144" lon="6.19355">
        <ele>795.184082</ele>
        <time>2020-01-07T13:34:38Z</time>
      </trkpt>
      <trkpt lat="46.12142" lon="6.19368">
        <ele>794.234009</ele>
        <time>2020-01-07T13:34:40Z</time>
      </trkpt>
      <trkpt lat="46.12136" lon="6.19483">
        <ele>797.772522</ele>
        <time>2020-01-07T13:34:54Z</time>
      </trkpt>
      <trkpt lat="46.12135" lon="6.19494">
        <ele>798.142578</ele>
        <time>2020-01-07T13:34:56Z</time>
      </trkpt>
      <trkpt lat="46.1213" lon="6.19506">
        <ele>798.40863</ele>
        <time>2020-01-07T13:34:57Z</time>
      </trkpt>
      <trkpt lat="46.12123" lon="6.19514">
        <ele>798.568542</ele>
        <time>2020-01-07T13:34:59Z</time>
      </trkpt>
      <trkpt lat="46.12115" lon="6.19518">
        <ele>798.942017</ele>
        <time>2020-01-07T13:35:00Z</time>
      </trkpt>
      <trkpt lat="46.12106" lon="6.19517">
        <ele>799.787231</ele>
        <time>2020-01-07T13:35:02Z</time>
      </trkpt>
      <trkpt lat="46.12065" lon="6.19504">
        <ele>801.952209</ele>
        <time>2020-01-07T13:35:10Z</time>
      </trkpt>
      <trkpt lat="46.12041" lon="6.19491">
        <ele>803.232727</ele>
        <time>2020-01-07T13:35:14Z</time>
      </trkpt>
      <trkpt lat="46.12012" lon="6.19469">
        <ele>806.143494</ele>
        <time>2020-01-07T13:35:20Z</time>
      </trkpt>
      <trkpt lat="46.12" lon="6.19465">
        <ele>808.297363</ele>
        <time>2020-01-07T13:35:22Z</time>
      </trkpt>
      <trkpt lat="46.1198" lon="6.19468">
        <ele>810.1875</ele>
        <time>2020-01-07T13:35:26Z</time>
      </trkpt>
      <trkpt lat="46.11969" lon="6.19474">
        <ele>810.547913</ele>
        <time>2020-01-07T13:35:28Z</time>
      </trkpt>
      <trkpt lat="46.11958" lon="6.19486">
        <ele>810.782898</ele>
        <time>2020-01-07T13:35:30Z</time>
      </trkpt>
      <trkpt lat="46.11894" lon="6.19588">
        <ele>814.920898</ele>
        <time>2020-01-07T13:35:47Z</time>
      </trkpt>
      <trkpt lat="46.11883" lon="6.19599">
        <ele>815.440063</ele>
        <time>2020-01-07T13:35:50Z</time>
      </trkpt>
      <trkpt lat="46.11869" lon="6.19607">
        <ele>816.421936</ele>
        <time>2020-01-07T13:35:52Z</time>
      </trkpt>
      <trkpt lat="46.11853" lon="6.19608">
        <ele>816.38501</ele>
        <time>2020-01-07T13:35:55Z</time>
      </trkpt>
      <trkpt lat="46.11836" lon="6.19604">
        <ele>817.340027</ele>
        <time>2020-01-07T13:35:58Z</time>
      </trkpt>
      <trkpt lat="46.11714" lon="6.19551">
        <ele>823.193176</ele>
        <time>2020-01-07T13:36:21Z</time>
      </trkpt>
      <trkpt lat="46.11695" lon="6.19541">
        <ele>823.623474</ele>
        <time>2020-01-07T13:36:24Z</time>
      </trkpt>
      <trkpt lat="46.11676" lon="6.19523">
        <ele>824.762512</ele>
        <time>2020-01-07T13:36:29Z</time>
      </trkpt>
      <trkpt lat="46.11603" lon="6.19423">
        <ele>837.133301</ele>
        <time>2020-01-07T13:36:46Z</time>
      </trkpt>
      <trkpt lat="46.11587" lon="6.19408">
        <ele>839.515137</ele>
        <time>2020-01-07T13:36:50Z</time>
      </trkpt>
      <trkpt lat="46.11577" lon="6.19401">
        <ele>840.380371</ele>
        <time>2020-01-07T13:36:52Z</time>
      </trkpt>
      <trkpt lat="46.115" lon="6.19363">
        <ele>847.150452</ele>
        <time>2020-01-07T13:37:06Z</time>
      </trkpt>
      <trkpt lat="46.11482" lon="6.19358">
        <ele>848.915833</ele>
        <time>2020-01-07T13:37:10Z</time>
      </trkpt>
      <trkpt lat="46.11468" lon="6.19358">
        <ele>849.85498</ele>
        <time>2020-01-07T13:37:12Z</time>
      </trkpt>
      <trkpt lat="46.11459" lon="6.19361">
        <ele>850.169678</ele>
        <time>2020-01-07T13:37:14Z</time>
      </trkpt>
      <trkpt lat="46.11423" lon="6.19382">
        <ele>850.309998</ele>
        <time>2020-01-07T13:37:21Z</time>
      </trkpt>
      <trkpt lat="46.11416" lon="6.19382">
        <ele>851.762512</ele>
        <time>2020-01-07T13:37:22Z</time>
      </trkpt>
      <trkpt lat="46.11409" lon="6.19373">
        <ele>855.118774</ele>
        <time>2020-01-07T13:37:24Z</time>
      </trkpt>
      <trkpt lat="46.11407" lon="6.19357">
        <ele>858.85376</ele>
        <time>2020-01-07T13:37:26Z</time>
      </trkpt>
      <trkpt lat="46.11408" lon="6.19349">
        <ele>860.328735</ele>
        <time>2020-01-07T13:37:27Z</time>
      </trkpt>
      <trkpt lat="46.11412" lon="6.19344">
        <ele>860.534973</ele>
        <time>2020-01-07T13:37:27Z</time>
      </trkpt>
      <trkpt lat="46.11454" lon="6.19324">
        <ele>858.622986</ele>
        <time>2020-01-07T13:37:35Z</time>
      </trkpt>
      <trkpt lat="46.11509" lon="6.19274">
        <ele>865.433777</ele>
        <time>2020-01-07T13:37:47Z</time>
      </trkpt>
      <trkpt lat="46.11516" lon="6.19271">
        <ele>865.438782</ele>
        <time>2020-01-07T13:37:48Z</time>
      </trkpt>
      <trkpt lat="46.11529" lon="6.19269">
        <ele>865.619202</ele>
        <time>2020-01-07T13:37:51Z</time>
      </trkpt>
      <trkpt lat="46.11561" lon="6.19276">
        <ele>865.546875</ele>
        <time>2020-01-07T13:37:56Z</time>
      </trkpt>
      <trkpt lat="46.11571" lon="6.19275">
        <ele>866.505005</ele>
        <time>2020-01-07T13:37:58Z</time>
      </trkpt>
      <trkpt lat="46.11578" lon="6.19266">
        <ele>869.01001</ele>
        <time>2020-01-07T13:38:00Z</time>
      </trkpt>
      <trkpt lat="46.11581" lon="6.19253">
        <ele>872.408936</ele>
        <time>2020-01-07T13:38:01Z</time>
      </trkpt>
      <trkpt lat="46.11578" lon="6.19239">
        <ele>875.418579</ele>
        <time>2020-01-07T13:38:03Z</time>
      </trkpt>
      <trkpt lat="46.11572" lon="6.19231">
        <ele>876.623779</ele>
        <time>2020-01-07T13:38:05Z</time>
      </trkpt>
      <trkpt lat="46.11564" lon="6.19227">
        <ele>876.938904</ele>
        <time>2020-01-07T13:38:06Z</time>
      </trkpt>
      <trkpt lat="46.11528" lon="6.19227">
        <ele>875.080505</ele>
        <time>2020-01-07T13:38:13Z</time>
      </trkpt>
      <trkpt lat="46.11456" lon="6.19205">
        <ele>882.297913</ele>
        <time>2020-01-07T13:38:26Z</time>
      </trkpt>
      <trkpt lat="46.11433" lon="6.19204">
        <ele>883.908813</ele>
        <time>2020-01-07T13:38:30Z</time>
      </trkpt>
      <trkpt lat="46.11404" lon="6.19209">
        <ele>886.446472</ele>
        <time>2020-01-07T13:38:35Z</time>
      </trkpt>
      <trkpt lat="46.11387" lon="6.19219">
        <ele>887.145386</ele>
        <time>2020-01-07T13:38:38Z</time>
      </trkpt>
      <trkpt lat="46.11359" lon="6.19245">
        <ele>888.361328</ele>
        <time>2020-01-07T13:38:44Z</time>
      </trkpt>
      <trkpt lat="46.11353" lon="6.19247">
        <ele>889.200745</ele>
        <time>2020-01-07T13:38:45Z</time>
      </trkpt>
      <trkpt lat="46.11342" lon="6.19247">
        <ele>891.053528</ele>
        <time>2020-01-07T13:38:47Z</time>
      </trkpt>
      <trkpt lat="46.11336" lon="6.19245">
        <ele>891.246399</ele>
        <time>2020-01-07T13:38:48Z</time>
      </trkpt>
      <trkpt lat="46.11328" lon="6.19238">
        <ele>891.608521</ele>
        <time>2020-01-07T13:38:50Z</time>
      </trkpt>
      <trkpt lat="46.1132" lon="6.19224">
        <ele>892.020813</ele>
        <time>2020-01-07T13:38:52Z</time>
      </trkpt>
      <trkpt lat="46.11317" lon="6.19211">
        <ele>892.260376</ele>
        <time>2020-01-07T13:38:54Z</time>
      </trkpt>
      <trkpt lat="46.11318" lon="6.19191">
        <ele>892.657288</ele>
        <time>2020-01-07T13:38:56Z</time>
      </trkpt>
      <trkpt lat="46.1132" lon="6.19183">
        <ele>892.884399</ele>
        <time>2020-01-07T13:38:57Z</time>
      </trkpt>
      <trkpt lat="46.11322" lon="6.19178">
        <ele>892.719116</ele>
        <time>2020-01-07T13:38:58Z</time>
      </trkpt>
      <trkpt lat="46.11331" lon="6.19166">
        <ele>892.377869</ele>
        <time>2020-01-07T13:39:00Z</time>
      </trkpt>
      <trkpt lat="46.11342" lon="6.19158">
        <ele>892.588196</ele>
        <time>2020-01-07T13:39:03Z</time>
      </trkpt>
      <trkpt lat="46.11428" lon="6.19115">
        <ele>893.078979</ele>
        <time>2020-01-07T13:39:19Z</time>
      </trkpt>
      <trkpt lat="46.11446" lon="6.19105">
        <ele>893.572327</ele>
        <time>2020-01-07T13:39:22Z</time>
      </trkpt>
      <trkpt lat="46.11474" lon="6.1908">
        <ele>897.346008</ele>
        <time>2020-01-07T13:39:28Z</time>
      </trkpt>
      <trkpt lat="46.11546" lon="6.19002">
        <ele>905.69873</ele>
        <time>2020-01-07T13:39:44Z</time>
      </trkpt>
      <trkpt lat="46.11661" lon="6.18839">
        <ele>921.387512</ele>
        <time>2020-01-07T13:40:13Z</time>
      </trkpt>
      <trkpt lat="46.11667" lon="6.18828">
        <ele>922.23999</ele>
        <time>2020-01-07T13:40:14Z</time>
      </trkpt>
      <trkpt lat="46.11675" lon="6.18805">
        <ele>923.831238</ele>
        <time>2020-01-07T13:40:18Z</time>
      </trkpt>
      <trkpt lat="46.11681" lon="6.18776">
        <ele>925.63623</ele>
        <time>2020-01-07T13:40:21Z</time>
      </trkpt>
      <trkpt lat="46.11685" lon="6.18702">
        <ele>928.546997</ele>
        <time>2020-01-07T13:40:31Z</time>
      </trkpt>
      <trkpt lat="46.11684" lon="6.1869">
        <ele>928.803345</ele>
        <time>2020-01-07T13:40:32Z</time>
      </trkpt>
      <trkpt lat="46.11682" lon="6.18671">
        <ele>929.650024</ele>
        <time>2020-01-07T13:40:34Z</time>
      </trkpt>
      <trkpt lat="46.11672" lon="6.18642">
        <ele>929.904419</ele>
        <time>2020-01-07T13:40:38Z</time>
      </trkpt>
      <trkpt lat="46.1163" lon="6.18565">
        <ele>930.469299</ele>
        <time>2020-01-07T13:40:50Z</time>
      </trkpt>
      <trkpt lat="46.11623" lon="6.18543">
        <ele>930.635254</ele>
        <time>2020-01-07T13:40:53Z</time>
      </trkpt>
      <trkpt lat="46.1162" lon="6.18518">
        <ele>931.100586</ele>
        <time>2020-01-07T13:40:57Z</time>
      </trkpt>
      <trkpt lat="46.1162" lon="6.18494">
        <ele>932.171997</ele>
        <time>2020-01-07T13:41:00Z</time>
      </trkpt>
      <trkpt lat="46.11629" lon="6.18406">
        <ele>936.565308</ele>
        <time>2020-01-07T13:41:10Z</time>
      </trkpt>
      <trkpt lat="46.11628" lon="6.18396">
        <ele>937.150024</ele>
        <time>2020-01-07T13:41:12Z</time>
      </trkpt>
      <trkpt lat="46.11624" lon="6.1838">
        <ele>938.040771</ele>
        <time>2020-01-07T13:41:14Z</time>
      </trkpt>
      <trkpt lat="46.11618" lon="6.18368">
        <ele>938.76532</ele>
        <time>2020-01-07T13:41:16Z</time>
      </trkpt>
      <trkpt lat="46.11608" lon="6.18357">
        <ele>939.72345</ele>
        <time>2020-01-07T13:41:18Z</time>
      </trkpt>
      <trkpt lat="46.11597" lon="6.1835">
        <ele>940.567749</ele>
        <time>2020-01-07T13:41:20Z</time>
      </trkpt>
      <trkpt lat="46.11573" lon="6.18348">
        <ele>943.132019</ele>
        <time>2020-01-07T13:41:24Z</time>
      </trkpt>
      <trkpt lat="46.11566" lon="6.1834">
        <ele>944.868408</ele>
        <time>2020-01-07T13:41:26Z</time>
      </trkpt>
      <trkpt lat="46.11559" lon="6.18329">
        <ele>946.943298</ele>
        <time>2020-01-07T13:41:28Z</time>
      </trkpt>
      <trkpt lat="46.11557" lon="6.18319">
        <ele>948.390381</ele>
        <time>2020-01-07T13:41:29Z</time>
      </trkpt>
      <trkpt lat="46.11558" lon="6.18308">
        <ele>949.730225</ele>
        <time>2020-01-07T13:41:30Z</time>
      </trkpt>
      <trkpt lat="46.11563" lon="6.183">
        <ele>950.440613</ele>
        <time>2020-01-07T13:41:32Z</time>
      </trkpt>
      <trkpt lat="46.11569" lon="6.18296">
        <ele>950.612732</ele>
        <time>2020-01-07T13:41:33Z</time>
      </trkpt>
      <trkpt lat="46.11574" lon="6.18295">
        <ele>950.448425</ele>
        <time>2020-01-07T13:41:34Z</time>
      </trkpt>
      <trkpt lat="46.11611" lon="6.18298">
        <ele>949.115601</ele>
        <time>2020-01-07T13:41:40Z</time>
      </trkpt>
      <trkpt lat="46.11636" lon="6.18292">
        <ele>951.540527</ele>
        <time>2020-01-07T13:41:45Z</time>
      </trkpt>
      <trkpt lat="46.11645" lon="6.18292">
        <ele>952.017517</ele>
        <time>2020-01-07T13:41:47Z</time>
      </trkpt>
      <trkpt lat="46.11653" lon="6.18295">
        <ele>953.424805</ele>
        <time>2020-01-07T13:41:48Z</time>
      </trkpt>
      <trkpt lat="46.11673" lon="6.18319">
        <ele>954.544739</ele>
        <time>2020-01-07T13:41:53Z</time>
      </trkpt>
      <trkpt lat="46.11685" lon="6.1833">
        <ele>956.023499</ele>
        <time>2020-01-07T13:41:55Z</time>
      </trkpt>
      <trkpt lat="46.11707" lon="6.18343">
        <ele>958.257507</ele>
        <time>2020-01-07T13:41:59Z</time>
      </trkpt>
      <trkpt lat="46.11731" lon="6.18352">
        <ele>961.025024</ele>
        <time>2020-01-07T13:42:04Z</time>
      </trkpt>
      <trkpt lat="46.11744" lon="6.18354">
        <ele>962.407471</ele>
        <time>2020-01-07T13:42:06Z</time>
      </trkpt>
      <trkpt lat="46.11758" lon="6.18353">
        <ele>964.23877</ele>
        <time>2020-01-07T13:42:09Z</time>
      </trkpt>
      <trkpt lat="46.11812" lon="6.18336">
        <ele>969.654724</ele>
        <time>2020-01-07T13:42:18Z</time>
      </trkpt>
      <trkpt lat="46.11844" lon="6.18323">
        <ele>972.005188</ele>
        <time>2020-01-07T13:42:24Z</time>
      </trkpt>
      <trkpt lat="46.11879" lon="6.18306">
        <ele>975.315796</ele>
        <time>2020-01-07T13:42:31Z</time>
      </trkpt>
      <trkpt lat="46.1197" lon="6.18276">
        <ele>984.464478</ele>
        <time>2020-01-07T13:42:48Z</time>
      </trkpt>
      <trkpt lat="46.12001" lon="6.18271">
        <ele>986.593872</ele>
        <time>2020-01-07T13:42:53Z</time>
      </trkpt>
      <trkpt lat="46.12067" lon="6.18265">
        <ele>991.075012</ele>
        <time>2020-01-07T13:43:05Z</time>
      </trkpt>
      <trkpt lat="46.12115" lon="6.18258">
        <ele>996.746338</ele>
        <time>2020-01-07T13:43:13Z</time>
      </trkpt>
      <trkpt lat="46.12123" lon="6.18253">
        <ele>998.691223</ele>
        <time>2020-01-07T13:43:15Z</time>
      </trkpt>
      <trkpt lat="46.12126" lon="6.1825">
        <ele>999.647034</ele>
        <time>2020-01-07T13:43:16Z</time>
      </trkpt>
      <trkpt lat="46.12127" lon="6.18245">
        <ele>1000.91394</ele>
        <time>2020-01-07T13:43:16Z</time>
      </trkpt>
      <trkpt lat="46.12126" lon="6.18232">
        <ele>1003.927063</ele>
        <time>2020-01-07T13:43:18Z</time>
      </trkpt>
      <trkpt lat="46.1212" lon="6.18226">
        <ele>1005.032532</ele>
        <time>2020-01-07T13:43:19Z</time>
      </trkpt>
      <trkpt lat="46.12091" lon="6.18228">
        <ele>1003.232239</ele>
        <time>2020-01-07T13:43:24Z</time>
      </trkpt>
      <trkpt lat="46.12058" lon="6.18221">
        <ele>1004.961731</ele>
        <time>2020-01-07T13:43:30Z</time>
      </trkpt>
      <trkpt lat="46.12025" lon="6.18198">
        <ele>1010.82196</ele>
        <time>2020-01-07T13:43:37Z</time>
      </trkpt>
      <trkpt lat="46.11967" lon="6.18169">
        <ele>1015.668823</ele>
        <time>2020-01-07T13:43:48Z</time>
      </trkpt>
      <trkpt lat="46.1194" lon="6.18144">
        <ele>1017.477295</ele>
        <time>2020-01-07T13:43:53Z</time>
      </trkpt>
      <trkpt lat="46.11927" lon="6.18125">
        <ele>1019.019836</ele>
        <time>2020-01-07T13:43:57Z</time>
      </trkpt>
      <trkpt lat="46.11916" lon="6.18105">
        <ele>1019.950012</ele>
        <time>2020-01-07T13:44:00Z</time>
      </trkpt>
      <trkpt lat="46.11913" lon="6.18095">
        <ele>1020.941223</ele>
        <time>2020-01-07T13:44:01Z</time>
      </trkpt>
      <trkpt lat="46.11904" lon="6.18035">
        <ele>1028.677734</ele>
        <time>2020-01-07T13:44:09Z</time>
      </trkpt>
      <trkpt lat="46.11891" lon="6.17968">
        <ele>1035.222046</ele>
        <time>2020-01-07T13:44:17Z</time>
      </trkpt>
      <trkpt lat="46.1188" lon="6.17932">
        <ele>1039.642822</ele>
        <time>2020-01-07T13:44:22Z</time>
      </trkpt>
      <trkpt lat="46.11869" lon="6.17912">
        <ele>1044.159912</ele>
        <time>2020-01-07T13:44:25Z</time>
      </trkpt>
      <trkpt lat="46.11865" lon="6.17908">
        <ele>1044.980103</ele>
        <time>2020-01-07T13:44:26Z</time>
      </trkpt>
      <trkpt lat="46.11856" lon="6.17903">
        <ele>1045.705933</ele>
        <time>2020-01-07T13:44:28Z</time>
      </trkpt>
      <trkpt lat="46.11838" lon="6.17901">
        <ele>1045.180054</ele>
        <time>2020-01-07T13:44:31Z</time>
      </trkpt>
      <trkpt lat="46.11823" lon="6.17905">
        <ele>1046.638794</ele>
        <time>2020-01-07T13:44:34Z</time>
      </trkpt>
      <trkpt lat="46.11793" lon="6.17918">
        <ele>1048.431274</ele>
        <time>2020-01-07T13:44:39Z</time>
      </trkpt>
      <trkpt lat="46.11774" lon="6.17921">
        <ele>1048.28125</ele>
        <time>2020-01-07T13:44:43Z</time>
      </trkpt>
      <trkpt lat="46.11746" lon="6.17909">
        <ele>1050.43811</ele>
        <time>2020-01-07T13:44:48Z</time>
      </trkpt>
      <trkpt lat="46.11738" lon="6.17901">
        <ele>1049.019409</ele>
        <time>2020-01-07T13:44:50Z</time>
      </trkpt>
      <trkpt lat="46.11736" lon="6.17894">
        <ele>1049.012451</ele>
        <time>2020-01-07T13:44:51Z</time>
      </trkpt>
      <trkpt lat="46.11737" lon="6.17886">
        <ele>1050.013916</ele>
        <time>2020-01-07T13:44:52Z</time>
      </trkpt>
      <trkpt lat="46.11742" lon="6.17879">
        <ele>1052.494995</ele>
        <time>2020-01-07T13:44:53Z</time>
      </trkpt>
      <trkpt lat="46.11748" lon="6.17876">
        <ele>1055.129272</ele>
        <time>2020-01-07T13:44:54Z</time>
      </trkpt>
      <trkpt lat="46.11776" lon="6.1788">
        <ele>1056.30481</ele>
        <time>2020-01-07T13:44:59Z</time>
      </trkpt>
      <trkpt lat="46.11782" lon="6.17879">
        <ele>1056.818848</ele>
        <time>2020-01-07T13:45:00Z</time>
      </trkpt>
      <trkpt lat="46.11794" lon="6.17873">
        <ele>1058.832886</ele>
        <time>2020-01-07T13:45:02Z</time>
      </trkpt>
      <trkpt lat="46.11799" lon="6.17867">
        <ele>1059.577515</ele>
        <time>2020-01-07T13:45:04Z</time>
      </trkpt>
      <trkpt lat="46.11817" lon="6.17838">
        <ele>1063.905273</ele>
        <time>2020-01-07T13:45:08Z</time>
      </trkpt>
      <trkpt lat="46.11829" lon="6.17826">
        <ele>1066.437134</ele>
        <time>2020-01-07T13:45:11Z</time>
      </trkpt>
      <trkpt lat="46.11856" lon="6.17811">
        <ele>1072.992065</ele>
        <time>2020-01-07T13:45:16Z</time>
      </trkpt>
      <trkpt lat="46.11867" lon="6.17809">
        <ele>1075.090576</ele>
        <time>2020-01-07T13:45:18Z</time>
      </trkpt>
      <trkpt lat="46.11888" lon="6.17813">
        <ele>1076.547241</ele>
        <time>2020-01-07T13:45:22Z</time>
      </trkpt>
      <trkpt lat="46.11953" lon="6.17843">
        <ele>1081.97998</ele>
        <time>2020-01-07T13:45:34Z</time>
      </trkpt>
      <trkpt lat="46.11967" lon="6.17852">
        <ele>1083.068604</ele>
        <time>2020-01-07T13:45:37Z</time>
      </trkpt>
      <trkpt lat="46.11985" lon="6.17869">
        <ele>1083.921265</ele>
        <time>2020-01-07T13:45:41Z</time>
      </trkpt>
      <trkpt lat="46.11992" lon="6.17881">
        <ele>1084.048706</ele>
        <time>2020-01-07T13:45:43Z</time>
      </trkpt>
      <trkpt lat="46.12012" lon="6.17922">
        <ele>1083.5</ele>
        <time>2020-01-07T13:45:49Z</time>
      </trkpt>
      <trkpt lat="46.12022" lon="6.17932">
        <ele>1083.501221</ele>
        <time>2020-01-07T13:45:51Z</time>
      </trkpt>
      <trkpt lat="46.12029" lon="6.17933">
        <ele>1083.107666</ele>
        <time>2020-01-07T13:45:52Z</time>
      </trkpt>
      <trkpt lat="46.12036" lon="6.17929">
        <ele>1083.686401</ele>
        <time>2020-01-07T13:45:53Z</time>
      </trkpt>
      <trkpt lat="46.12041" lon="6.17922">
        <ele>1084.940186</ele>
        <time>2020-01-07T13:45:55Z</time>
      </trkpt>
      <trkpt lat="46.12043" lon="6.1791">
        <ele>1087.264038</ele>
        <time>2020-01-07T13:45:56Z</time>
      </trkpt>
      <trkpt lat="46.12041" lon="6.17892">
        <ele>1090.733398</ele>
        <time>2020-01-07T13:45:58Z</time>
      </trkpt>
      <trkpt lat="46.12034" lon="6.17874">
        <ele>1093.961182</ele>
        <time>2020-01-07T13:46:01Z</time>
      </trkpt>
      <trkpt lat="46.12024" lon="6.17843">
        <ele>1100.199951</ele>
        <time>2020-01-07T13:46:05Z</time>
      </trkpt>
      <trkpt lat="46.12016" lon="6.17825">
        <ele>1102.636108</ele>
        <time>2020-01-07T13:46:08Z</time>
      </trkpt>
      <trkpt lat="46.11964" lon="6.17751">
        <ele>1109.033447</ele>
        <time>2020-01-07T13:46:21Z</time>
      </trkpt>
      <trkpt lat="46.11937" lon="6.17725">
        <ele>1108.67688</ele>
        <time>2020-01-07T13:46:27Z</time>
      </trkpt>
      <trkpt lat="46.11929" lon="6.17711">
        <ele>1109.712158</ele>
        <time>2020-01-07T13:46:29Z</time>
      </trkpt>
      <trkpt lat="46.11919" lon="6.17676">
        <ele>1114.289307</ele>
        <time>2020-01-07T13:46:34Z</time>
      </trkpt>
      <trkpt lat="46.11915" lon="6.17669">
        <ele>1114.724854</ele>
        <time>2020-01-07T13:46:35Z</time>
      </trkpt>
      <trkpt lat="46.11894" lon="6.17639">
        <ele>1114.746216</ele>
        <time>2020-01-07T13:46:40Z</time>
      </trkpt>
      <trkpt lat="46.1189" lon="6.17631">
        <ele>1115.170044</ele>
        <time>2020-01-07T13:46:41Z</time>
      </trkpt>
      <trkpt lat="46.11879" lon="6.17597">
        <ele>1117.97998</ele>
        <time>2020-01-07T13:46:46Z</time>
      </trkpt>
      <trkpt lat="46.11845" lon="6.17445">
        <ele>1129.422485</ele>
        <time>2020-01-07T13:47:05Z</time>
      </trkpt>
      <trkpt lat="46.1184" lon="6.17434">
        <ele>1129.683228</ele>
        <time>2020-01-07T13:47:07Z</time>
      </trkpt>
      <trkpt lat="46.11832" lon="6.17423">
        <ele>1129.30957</ele>
        <time>2020-01-07T13:47:09Z</time>
      </trkpt>
      <trkpt lat="46.1183" lon="6.17418">
        <ele>1129.432251</ele>
        <time>2020-01-07T13:47:10Z</time>
      </trkpt>
      <trkpt lat="46.11831" lon="6.17405">
        <ele>1131.06543</ele>
        <time>2020-01-07T13:47:11Z</time>
      </trkpt>
      <trkpt lat="46.11838" lon="6.17398">
        <ele>1133.38147</ele>
        <time>2020-01-07T13:47:13Z</time>
      </trkpt>
      <trkpt lat="46.11843" lon="6.17398">
        <ele>1134.401123</ele>
        <time>2020-01-07T13:47:14Z</time>
      </trkpt>
      <trkpt lat="46.11848" lon="6.17404">
        <ele>1134.719116</ele>
        <time>2020-01-07T13:47:15Z</time>
      </trkpt>
      <trkpt lat="46.11858" lon="6.17425">
        <ele>1134.396606</ele>
        <time>2020-01-07T13:47:18Z</time>
      </trkpt>
      <trkpt lat="46.11863" lon="6.1743">
        <ele>1134.872681</ele>
        <time>2020-01-07T13:47:19Z</time>
      </trkpt>
      <trkpt lat="46.11924" lon="6.17486">
        <ele>1140.394287</ele>
        <time>2020-01-07T13:47:32Z</time>
      </trkpt>
      <trkpt lat="46.12008" lon="6.17535">
        <ele>1148.670044</ele>
        <time>2020-01-07T13:47:48Z</time>
      </trkpt>
      <trkpt lat="46.12015" lon="6.17542">
        <ele>1148.48999</ele>
        <time>2020-01-07T13:47:50Z</time>
      </trkpt>
      <trkpt lat="46.12027" lon="6.17544">
        <ele>1150.152466</ele>
        <time>2020-01-07T13:47:52Z</time>
      </trkpt>
      <trkpt lat="46.12036" lon="6.17542">
        <ele>1151.820068</ele>
        <time>2020-01-07T13:47:53Z</time>
      </trkpt>
      <trkpt lat="46.12038" lon="6.17538">
        <ele>1152.821289</ele>
        <time>2020-01-07T13:47:54Z</time>
      </trkpt>
      <trkpt lat="46.12041" lon="6.1753">
        <ele>1154.70459</ele>
        <time>2020-01-07T13:47:55Z</time>
      </trkpt>
      <trkpt lat="46.1204" lon="6.17526">
        <ele>1155.351196</ele>
        <time>2020-01-07T13:47:56Z</time>
      </trkpt>
      <trkpt lat="46.12036" lon="6.17516">
        <ele>1156.864014</ele>
        <time>2020-01-07T13:47:57Z</time>
      </trkpt>
      <trkpt lat="46.12032" lon="6.17514">
        <ele>1156.844727</ele>
        <time>2020-01-07T13:47:58Z</time>
      </trkpt>
      <trkpt lat="46.12015" lon="6.17516">
        <ele>1153.566284</ele>
        <time>2020-01-07T13:48:01Z</time>
      </trkpt>
      <trkpt lat="46.12006" lon="6.17512">
        <ele>1152.848755</ele>
        <time>2020-01-07T13:48:03Z</time>
      </trkpt>
      <trkpt lat="46.11995" lon="6.17497">
        <ele>1153.907471</ele>
        <time>2020-01-07T13:48:05Z</time>
      </trkpt>
      <trkpt lat="46.11986" lon="6.17468">
        <ele>1157.136475</ele>
        <time>2020-01-07T13:48:09Z</time>
      </trkpt>
      <trkpt lat="46.11977" lon="6.17423">
        <ele>1161.239502</ele>
        <time>2020-01-07T13:48:15Z</time>
      </trkpt>
      <trkpt lat="46.1196" lon="6.17295">
        <ele>1168.82373</ele>
        <time>2020-01-07T13:48:31Z</time>
      </trkpt>
      <trkpt lat="46.11957" lon="6.17258">
        <ele>1170.489746</ele>
        <time>2020-01-07T13:48:36Z</time>
      </trkpt>
      <trkpt lat="46.11962" lon="6.17203">
        <ele>1173.164185</ele>
        <time>2020-01-07T13:48:42Z</time>
      </trkpt>
      <trkpt lat="46.11954" lon="6.17198">
        <ele>1172.461426</ele>
        <time>2020-01-07T13:48:44Z</time>
      </trkpt>
      <trkpt lat="46.11939" lon="6.17182">
        <ele>1171.513916</ele>
        <time>2020-01-07T13:48:47Z</time>
      </trkpt>
      <trkpt lat="46.11933" lon="6.17183">
        <ele>1171.009644</ele>
        <time>2020-01-07T13:48:48Z</time>
      </trkpt>
      <trkpt lat="46.11907" lon="6.17204">
        <ele>1167.669434</ele>
        <time>2020-01-07T13:48:54Z</time>
      </trkpt>
      <trkpt lat="46.11897" lon="6.17214">
        <ele>1165.297363</ele>
        <time>2020-01-07T13:48:56Z</time>
      </trkpt>
      <trkpt lat="46.11884" lon="6.17238">
        <ele>1160.837524</ele>
        <time>2020-01-07T13:49:00Z</time>
      </trkpt>
      <trkpt lat="46.11878" lon="6.17253">
        <ele>1158.412476</ele>
        <time>2020-01-07T13:49:02Z</time>
      </trkpt>
      <trkpt lat="46.11867" lon="6.17291">
        <ele>1152.541382</ele>
        <time>2020-01-07T13:49:07Z</time>
      </trkpt>
      <trkpt lat="46.11862" lon="6.17315">
        <ele>1148.45752</ele>
        <time>2020-01-07T13:49:10Z</time>
      </trkpt>
      <trkpt lat="46.1185" lon="6.17334">
        <ele>1143.586304</ele>
        <time>2020-01-07T13:49:13Z</time>
      </trkpt>
      <trkpt lat="46.11846" lon="6.17344">
        <ele>1141.536865</ele>
        <time>2020-01-07T13:49:15Z</time>
      </trkpt>
      <trkpt lat="46.11843" lon="6.17354">
        <ele>1139.744263</ele>
        <time>2020-01-07T13:49:16Z</time>
      </trkpt>
      <trkpt lat="46.11841" lon="6.17398">
        <ele>1133.990723</ele>
        <time>2020-01-07T13:49:21Z</time>
      </trkpt>
      <trkpt lat="46.11838" lon="6.17398">
        <ele>1133.38147</ele>
        <time>2020-01-07T13:49:22Z</time>
      </trkpt>
      <trkpt lat="46.11831" lon="6.17405">
        <ele>1131.06543</ele>
        <time>2020-01-07T13:49:23Z</time>
      </trkpt>
      <trkpt lat="46.1183" lon="6.17418">
        <ele>1129.432251</ele>
        <time>2020-01-07T13:49:25Z</time>
      </trkpt>
      <trkpt lat="46.11832" lon="6.17423">
        <ele>1129.30957</ele>
        <time>2020-01-07T13:49:26Z</time>
      </trkpt>
      <trkpt lat="46.1184" lon="6.17434">
        <ele>1129.683228</ele>
        <time>2020-01-07T13:49:28Z</time>
      </trkpt>
      <trkpt lat="46.11845" lon="6.17445">
        <ele>1129.422485</ele>
        <time>2020-01-07T13:49:29Z</time>
      </trkpt>
      <trkpt lat="46.11879" lon="6.17597">
        <ele>1117.97998</ele>
        <time>2020-01-07T13:49:49Z</time>
      </trkpt>
      <trkpt lat="46.1189" lon="6.17631">
        <ele>1115.170044</ele>
        <time>2020-01-07T13:49:54Z</time>
      </trkpt>
      <trkpt lat="46.11894" lon="6.17639">
        <ele>1114.746216</ele>
        <time>2020-01-07T13:49:55Z</time>
      </trkpt>
      <trkpt lat="46.11915" lon="6.17669">
        <ele>1114.724854</ele>
        <time>2020-01-07T13:50:00Z</time>
      </trkpt>
      <trkpt lat="46.11919" lon="6.17676">
        <ele>1114.289307</ele>
        <time>2020-01-07T13:50:01Z</time>
      </trkpt>
      <trkpt lat="46.11929" lon="6.17711">
        <ele>1109.712158</ele>
        <time>2020-01-07T13:50:06Z</time>
      </trkpt>
      <trkpt lat="46.11937" lon="6.17725">
        <ele>1108.67688</ele>
        <time>2020-01-07T13:50:08Z</time>
      </trkpt>
      <trkpt lat="46.11964" lon="6.17751">
        <ele>1109.033447</ele>
        <time>2020-01-07T13:50:14Z</time>
      </trkpt>
      <trkpt lat="46.12016" lon="6.17825">
        <ele>1102.636108</ele>
        <time>2020-01-07T13:50:27Z</time>
      </trkpt>
      <trkpt lat="46.12024" lon="6.17843">
        <ele>1100.199951</ele>
        <time>2020-01-07T13:50:30Z</time>
      </trkpt>
      <trkpt lat="46.12034" lon="6.17874">
        <ele>1093.961182</ele>
        <time>2020-01-07T13:50:34Z</time>
      </trkpt>
      <trkpt lat="46.12041" lon="6.17892">
        <ele>1090.733398</ele>
        <time>2020-01-07T13:50:36Z</time>
      </trkpt>
      <trkpt lat="46.12043" lon="6.1791">
        <ele>1087.264038</ele>
        <time>2020-01-07T13:50:39Z</time>
      </trkpt>
      <trkpt lat="46.12041" lon="6.17922">
        <ele>1084.940186</ele>
        <time>2020-01-07T13:50:40Z</time>
      </trkpt>
      <trkpt lat="46.12036" lon="6.17929">
        <ele>1083.686401</ele>
        <time>2020-01-07T13:50:41Z</time>
      </trkpt>
      <trkpt lat="46.12029" lon="6.17933">
        <ele>1083.107666</ele>
        <time>2020-01-07T13:50:43Z</time>
      </trkpt>
      <trkpt lat="46.12022" lon="6.17932">
        <ele>1083.501221</ele>
        <time>2020-01-07T13:50:44Z</time>
      </trkpt>
      <trkpt lat="46.12012" lon="6.17922">
        <ele>1083.5</ele>
        <time>2020-01-07T13:50:46Z</time>
      </trkpt>
      <trkpt lat="46.11992" lon="6.17881">
        <ele>1084.048706</ele>
        <time>2020-01-07T13:50:52Z</time>
      </trkpt>
      <trkpt lat="46.11985" lon="6.17869">
        <ele>1083.921265</ele>
        <time>2020-01-07T13:50:54Z</time>
      </trkpt>
      <trkpt lat="46.11967" lon="6.17852">
        <ele>1083.068604</ele>
        <time>2020-01-07T13:50:58Z</time>
      </trkpt>
      <trkpt lat="46.11953" lon="6.17843">
        <ele>1081.97998</ele>
        <time>2020-01-07T13:51:01Z</time>
      </trkpt>
      <trkpt lat="46.11888" lon="6.17813">
        <ele>1076.547241</ele>
        <time>2020-01-07T13:51:13Z</time>
      </trkpt>
      <trkpt lat="46.11867" lon="6.17809">
        <ele>1075.090576</ele>
        <time>2020-01-07T13:51:17Z</time>
      </trkpt>
      <trkpt lat="46.11856" lon="6.17811">
        <ele>1072.992065</ele>
        <time>2020-01-07T13:51:19Z</time>
      </trkpt>
      <trkpt lat="46.11829" lon="6.17826">
        <ele>1066.437134</ele>
        <time>2020-01-07T13:51:24Z</time>
      </trkpt>
      <trkpt lat="46.11817" lon="6.17838">
        <ele>1063.905273</ele>
        <time>2020-01-07T13:51:26Z</time>
      </trkpt>
      <trkpt lat="46.11794" lon="6.17873">
        <ele>1058.832886</ele>
        <time>2020-01-07T13:51:32Z</time>
      </trkpt>
      <trkpt lat="46.11782" lon="6.17879">
        <ele>1056.818848</ele>
        <time>2020-01-07T13:51:35Z</time>
      </trkpt>
      <trkpt lat="46.11776" lon="6.1788">
        <ele>1056.30481</ele>
        <time>2020-01-07T13:51:36Z</time>
      </trkpt>
      <trkpt lat="46.11748" lon="6.17876">
        <ele>1055.129272</ele>
        <time>2020-01-07T13:51:41Z</time>
      </trkpt>
      <trkpt lat="46.11742" lon="6.17879">
        <ele>1052.494995</ele>
        <time>2020-01-07T13:51:42Z</time>
      </trkpt>
      <trkpt lat="46.11737" lon="6.17886">
        <ele>1050.013916</ele>
        <time>2020-01-07T13:51:43Z</time>
      </trkpt>
      <trkpt lat="46.11736" lon="6.17894">
        <ele>1049.012451</ele>
        <time>2020-01-07T13:51:44Z</time>
      </trkpt>
      <trkpt lat="46.11738" lon="6.17901">
        <ele>1049.019409</ele>
        <time>2020-01-07T13:51:45Z</time>
      </trkpt>
      <trkpt lat="46.11746" lon="6.17909">
        <ele>1050.43811</ele>
        <time>2020-01-07T13:51:47Z</time>
      </trkpt>
      <trkpt lat="46.11774" lon="6.17921">
        <ele>1048.28125</ele>
        <time>2020-01-07T13:51:52Z</time>
      </trkpt>
      <trkpt lat="46.11793" lon="6.17918">
        <ele>1048.431274</ele>
        <time>2020-01-07T13:51:55Z</time>
      </trkpt>
      <trkpt lat="46.11823" lon="6.17905">
        <ele>1046.638794</ele>
        <time>2020-01-07T13:52:01Z</time>
      </trkpt>
      <trkpt lat="46.11838" lon="6.17901">
        <ele>1045.180054</ele>
        <time>2020-01-07T13:52:04Z</time>
      </trkpt>
      <trkpt lat="46.11856" lon="6.17903">
        <ele>1045.705933</ele>
        <time>2020-01-07T13:52:07Z</time>
      </trkpt>
      <trkpt lat="46.11865" lon="6.17908">
        <ele>1044.980103</ele>
        <time>2020-01-07T13:52:08Z</time>
      </trkpt>
      <trkpt lat="46.1188" lon="6.17932">
        <ele>1039.642822</ele>
        <time>2020-01-07T13:52:12Z</time>
      </trkpt>
      <trkpt lat="46.11891" lon="6.17968">
        <ele>1035.222046</ele>
        <time>2020-01-07T13:52:17Z</time>
      </trkpt>
      <trkpt lat="46.11904" lon="6.18035">
        <ele>1028.677734</ele>
        <time>2020-01-07T13:52:26Z</time>
      </trkpt>
      <trkpt lat="46.11913" lon="6.18095">
        <ele>1020.941223</ele>
        <time>2020-01-07T13:52:33Z</time>
      </trkpt>
      <trkpt lat="46.11916" lon="6.18105">
        <ele>1019.950012</ele>
        <time>2020-01-07T13:52:35Z</time>
      </trkpt>
      <trkpt lat="46.11927" lon="6.18125">
        <ele>1019.019836</ele>
        <time>2020-01-07T13:52:38Z</time>
      </trkpt>
      <trkpt lat="46.1194" lon="6.18144">
        <ele>1017.477295</ele>
        <time>2020-01-07T13:52:41Z</time>
      </trkpt>
      <trkpt lat="46.11967" lon="6.18169">
        <ele>1015.668823</ele>
        <time>2020-01-07T13:52:47Z</time>
      </trkpt>
      <trkpt lat="46.12025" lon="6.18198">
        <ele>1010.82196</ele>
        <time>2020-01-07T13:52:58Z</time>
      </trkpt>
      <trkpt lat="46.12058" lon="6.18221">
        <ele>1004.961731</ele>
        <time>2020-01-07T13:53:04Z</time>
      </trkpt>
      <trkpt lat="46.12091" lon="6.18228">
        <ele>1003.232239</ele>
        <time>2020-01-07T13:53:10Z</time>
      </trkpt>
      <trkpt lat="46.1212" lon="6.18226">
        <ele>1005.032532</ele>
        <time>2020-01-07T13:53:16Z</time>
      </trkpt>
      <trkpt lat="46.12126" lon="6.18232">
        <ele>1003.927063</ele>
        <time>2020-01-07T13:53:17Z</time>
      </trkpt>
      <trkpt lat="46.12127" lon="6.18245">
        <ele>1000.91394</ele>
        <time>2020-01-07T13:53:18Z</time>
      </trkpt>
      <trkpt lat="46.12123" lon="6.18253">
        <ele>998.691223</ele>
        <time>2020-01-07T13:53:20Z</time>
      </trkpt>
      <trkpt lat="46.12115" lon="6.18258">
        <ele>996.746338</ele>
        <time>2020-01-07T13:53:21Z</time>
      </trkpt>
      <trkpt lat="46.12067" lon="6.18265">
        <ele>991.075012</ele>
        <time>2020-01-07T13:53:30Z</time>
      </trkpt>
      <trkpt lat="46.12001" lon="6.18271">
        <ele>986.593872</ele>
        <time>2020-01-07T13:53:42Z</time>
      </trkpt>
      <trkpt lat="46.1197" lon="6.18276">
        <ele>984.464478</ele>
        <time>2020-01-07T13:53:47Z</time>
      </trkpt>
      <trkpt lat="46.11879" lon="6.18306">
        <ele>975.315796</ele>
        <time>2020-01-07T13:54:04Z</time>
      </trkpt>
      <trkpt lat="46.11844" lon="6.18323">
        <ele>972.005188</ele>
        <time>2020-01-07T13:54:10Z</time>
      </trkpt>
      <trkpt lat="46.11812" lon="6.18336">
        <ele>969.654724</ele>
        <time>2020-01-07T13:54:16Z</time>
      </trkpt>
      <trkpt lat="46.11758" lon="6.18353">
        <ele>964.23877</ele>
        <time>2020-01-07T13:54:26Z</time>
      </trkpt>
      <trkpt lat="46.11744" lon="6.18354">
        <ele>962.407471</ele>
        <time>2020-01-07T13:54:29Z</time>
      </trkpt>
      <trkpt lat="46.11731" lon="6.18352">
        <ele>961.025024</ele>
        <time>2020-01-07T13:54:31Z</time>
      </trkpt>
      <trkpt lat="46.11707" lon="6.18343">
        <ele>958.257507</ele>
        <time>2020-01-07T13:54:35Z</time>
      </trkpt>
      <trkpt lat="46.11685" lon="6.1833">
        <ele>956.023499</ele>
        <time>2020-01-07T13:54:39Z</time>
      </trkpt>
      <trkpt lat="46.11673" lon="6.18319">
        <ele>954.544739</ele>
        <time>2020-01-07T13:54:42Z</time>
      </trkpt>
      <trkpt lat="46.11653" lon="6.18295">
        <ele>953.424805</ele>
        <time>2020-01-07T13:54:47Z</time>
      </trkpt>
      <trkpt lat="46.11645" lon="6.18292">
        <ele>952.017517</ele>
        <time>2020-01-07T13:54:48Z</time>
      </trkpt>
      <trkpt lat="46.11636" lon="6.18292">
        <ele>951.540527</ele>
        <time>2020-01-07T13:54:50Z</time>
      </trkpt>
      <trkpt lat="46.11611" lon="6.18298">
        <ele>949.115601</ele>
        <time>2020-01-07T13:54:54Z</time>
      </trkpt>
      <trkpt lat="46.11569" lon="6.18296">
        <ele>950.612732</ele>
        <time>2020-01-07T13:55:02Z</time>
      </trkpt>
      <trkpt lat="46.11563" lon="6.183">
        <ele>950.440613</ele>
        <time>2020-01-07T13:55:03Z</time>
      </trkpt>
      <trkpt lat="46.11558" lon="6.18308">
        <ele>949.730225</ele>
        <time>2020-01-07T13:55:04Z</time>
      </trkpt>
      <trkpt lat="46.11557" lon="6.18319">
        <ele>948.390381</ele>
        <time>2020-01-07T13:55:06Z</time>
      </trkpt>
      <trkpt lat="46.11559" lon="6.18329">
        <ele>946.943298</ele>
        <time>2020-01-07T13:55:07Z</time>
      </trkpt>
      <trkpt lat="46.11566" lon="6.1834">
        <ele>944.868408</ele>
        <time>2020-01-07T13:55:09Z</time>
      </trkpt>
      <trkpt lat="46.11573" lon="6.18348">
        <ele>943.132019</ele>
        <time>2020-01-07T13:55:10Z</time>
      </trkpt>
      <trkpt lat="46.11564" lon="6.18358">
        <ele>942.592529</ele>
        <time>2020-01-07T13:55:12Z</time>
      </trkpt>
      <trkpt lat="46.11523" lon="6.18384">
        <ele>941.154419</ele>
        <time>2020-01-07T13:55:20Z</time>
      </trkpt>
      <trkpt lat="46.11499" lon="6.18391">
        <ele>941.049988</ele>
        <time>2020-01-07T13:55:25Z</time>
      </trkpt>
      <trkpt lat="46.11388" lon="6.184">
        <ele>935.575012</ele>
        <time>2020-01-07T13:55:44Z</time>
      </trkpt>
      <trkpt lat="46.11329" lon="6.18392">
        <ele>932.22998</ele>
        <time>2020-01-07T13:55:55Z</time>
      </trkpt>
      <trkpt lat="46.11215" lon="6.18364">
        <ele>923.89447</ele>
        <time>2020-01-07T13:56:16Z</time>
      </trkpt>
      <trkpt lat="46.11183" lon="6.18345">
        <ele>922.469971</ele>
        <time>2020-01-07T13:56:22Z</time>
      </trkpt>
      <trkpt lat="46.11151" lon="6.18329">
        <ele>922.034729</ele>
        <time>2020-01-07T13:56:28Z</time>
      </trkpt>
      <trkpt lat="46.111" lon="6.18319">
        <ele>919.500366</ele>
        <time>2020-01-07T13:56:37Z</time>
      </trkpt>
      <trkpt lat="46.1106" lon="6.18303">
        <ele>918.075195</ele>
        <time>2020-01-07T13:56:44Z</time>
      </trkpt>
      <trkpt lat="46.11035" lon="6.18278">
        <ele>917.227722</ele>
        <time>2020-01-07T13:56:50Z</time>
      </trkpt>
      <trkpt lat="46.11023" lon="6.18251">
        <ele>917.4505</ele>
        <time>2020-01-07T13:56:54Z</time>
      </trkpt>
      <trkpt lat="46.11005" lon="6.18224">
        <ele>916.363892</ele>
        <time>2020-01-07T13:56:58Z</time>
      </trkpt>
      <trkpt lat="46.10973" lon="6.18189">
        <ele>911.715027</ele>
        <time>2020-01-07T13:57:05Z</time>
      </trkpt>
      <trkpt lat="46.10922" lon="6.18148">
        <ele>908.14502</ele>
        <time>2020-01-07T13:57:16Z</time>
      </trkpt>
      <trkpt lat="46.10896" lon="6.18131">
        <ele>906.36499</ele>
        <time>2020-01-07T13:57:21Z</time>
      </trkpt>
      <trkpt lat="46.10876" lon="6.18133">
        <ele>905.59967</ele>
        <time>2020-01-07T13:57:24Z</time>
      </trkpt>
      <trkpt lat="46.10863" lon="6.18139">
        <ele>906.421997</ele>
        <time>2020-01-07T13:57:27Z</time>
      </trkpt>
      <trkpt lat="46.10849" lon="6.18146">
        <ele>906.858826</ele>
        <time>2020-01-07T13:57:30Z</time>
      </trkpt>
      <trkpt lat="46.10834" lon="6.18164">
        <ele>904.225952</ele>
        <time>2020-01-07T13:57:33Z</time>
      </trkpt>
      <trkpt lat="46.10761" lon="6.18184">
        <ele>904.440002</ele>
        <time>2020-01-07T13:57:46Z</time>
      </trkpt>
      <trkpt lat="46.10741" lon="6.18203">
        <ele>902.924988</ele>
        <time>2020-01-07T13:57:50Z</time>
      </trkpt>
      <trkpt lat="46.10729" lon="6.1821">
        <ele>903.549988</ele>
        <time>2020-01-07T13:57:53Z</time>
      </trkpt>
      <trkpt lat="46.10714" lon="6.18214">
        <ele>905.26001</ele>
        <time>2020-01-07T13:57:55Z</time>
      </trkpt>
      <trkpt lat="46.10681" lon="6.18219">
        <ele>906.831299</ele>
        <time>2020-01-07T13:58:01Z</time>
      </trkpt>
      <trkpt lat="46.10569" lon="6.18183">
        <ele>912.052673</ele>
        <time>2020-01-07T13:58:22Z</time>
      </trkpt>
      <trkpt lat="46.10556" lon="6.18177">
        <ele>912.750122</ele>
        <time>2020-01-07T13:58:24Z</time>
      </trkpt>
      <trkpt lat="46.10514" lon="6.18149">
        <ele>914.94989</ele>
        <time>2020-01-07T13:58:32Z</time>
      </trkpt>
      <trkpt lat="46.10483" lon="6.18118">
        <ele>915.875854</ele>
        <time>2020-01-07T13:58:39Z</time>
      </trkpt>
      <trkpt lat="46.10359" lon="6.17984">
        <ele>911.321289</ele>
        <time>2020-01-07T13:59:07Z</time>
      </trkpt>
      <trkpt lat="46.10339" lon="6.1797">
        <ele>910.856262</ele>
        <time>2020-01-07T13:59:11Z</time>
      </trkpt>
      <trkpt lat="46.10197" lon="6.17914">
        <ele>905.9375</ele>
        <time>2020-01-07T13:59:37Z</time>
      </trkpt>
      <trkpt lat="46.10179" lon="6.17903">
        <ele>904.820007</ele>
        <time>2020-01-07T13:59:40Z</time>
      </trkpt>
      <trkpt lat="46.10121" lon="6.17822">
        <ele>904.135498</ele>
        <time>2020-01-07T13:59:55Z</time>
      </trkpt>
      <trkpt lat="46.10056" lon="6.17738">
        <ele>905.869995</ele>
        <time>2020-01-07T14:00:10Z</time>
      </trkpt>
      <trkpt lat="46.09893" lon="6.17496">
        <ele>916.387695</ele>
        <time>2020-01-07T14:00:52Z</time>
      </trkpt>
      <trkpt lat="46.0985" lon="6.17442">
        <ele>915.984985</ele>
        <time>2020-01-07T14:01:02Z</time>
      </trkpt>
      <trkpt lat="46.09761" lon="6.17282">
        <ele>916.338684</ele>
        <time>2020-01-07T14:01:27Z</time>
      </trkpt>
      <trkpt lat="46.09738" lon="6.17236">
        <ele>915.38739</ele>
        <time>2020-01-07T14:01:34Z</time>
      </trkpt>
      <trkpt lat="46.09713" lon="6.17161">
        <ele>916.909363</ele>
        <time>2020-01-07T14:01:45Z</time>
      </trkpt>
      <trkpt lat="46.09677" lon="6.17097">
        <ele>917.49176</ele>
        <time>2020-01-07T14:01:55Z</time>
      </trkpt>
      <trkpt lat="46.09632" lon="6.17031">
        <ele>917.497986</ele>
        <time>2020-01-07T14:02:06Z</time>
      </trkpt>
      <trkpt lat="46.09616" lon="6.17021">
        <ele>916.570007</ele>
        <time>2020-01-07T14:02:09Z</time>
      </trkpt>
      <trkpt lat="46.09581" lon="6.17008">
        <ele>915.012512</ele>
        <time>2020-01-07T14:02:16Z</time>
      </trkpt>
      <trkpt lat="46.09554" lon="6.1699">
        <ele>914.398071</ele>
        <time>2020-01-07T14:02:21Z</time>
      </trkpt>
      <trkpt lat="46.09488" lon="6.16936">
        <ele>914.458008</ele>
        <time>2020-01-07T14:02:35Z</time>
      </trkpt>
      <trkpt lat="46.0941" lon="6.16875">
        <ele>911.86377</ele>
        <time>2020-01-07T14:02:50Z</time>
      </trkpt>
      <trkpt lat="46.09367" lon="6.16836">
        <ele>910.206299</ele>
        <time>2020-01-07T14:02:59Z</time>
      </trkpt>
      <trkpt lat="46.09326" lon="6.16766">
        <ele>909.63501</ele>
        <time>2020-01-07T14:03:11Z</time>
      </trkpt>
      <trkpt lat="46.09311" lon="6.16748">
        <ele>909.320007</ele>
        <time>2020-01-07T14:03:14Z</time>
      </trkpt>
      <trkpt lat="46.09226" lon="6.16706">
        <ele>905.169128</ele>
        <time>2020-01-07T14:03:30Z</time>
      </trkpt>
      <trkpt lat="46.09189" lon="6.16676">
        <ele>904.414063</ele>
        <time>2020-01-07T14:03:38Z</time>
      </trkpt>
      <trkpt lat="46.0917" lon="6.16665">
        <ele>903.490906</ele>
        <time>2020-01-07T14:03:41Z</time>
      </trkpt>
      <trkpt lat="46.09014" lon="6.16624">
        <ele>903.349976</ele>
        <time>2020-01-07T14:04:10Z</time>
      </trkpt>
      <trkpt lat="46.08976" lon="6.16623">
        <ele>903.812988</ele>
        <time>2020-01-07T14:04:16Z</time>
      </trkpt>
      <trkpt lat="46.08897" lon="6.16633">
        <ele>902.404968</ele>
        <time>2020-01-07T14:04:30Z</time>
      </trkpt>
      <trkpt lat="46.08869" lon="6.16607">
        <ele>903.630798</ele>
        <time>2020-01-07T14:04:36Z</time>
      </trkpt>
      <trkpt lat="46.08834" lon="6.16547">
        <ele>905.051331</ele>
        <time>2020-01-07T14:04:46Z</time>
      </trkpt>
      <trkpt lat="46.08753" lon="6.16483">
        <ele>896.400696</ele>
        <time>2020-01-07T14:05:02Z</time>
      </trkpt>
      <trkpt lat="46.08644" lon="6.16392">
        <ele>884.544983</ele>
        <time>2020-01-07T14:05:25Z</time>
      </trkpt>
      <trkpt lat="46.08615" lon="6.16357">
        <ele>879.85498</ele>
        <time>2020-01-07T14:05:32Z</time>
      </trkpt>
      <trkpt lat="46.08574" lon="6.16276">
        <ele>874.830017</ele>
        <time>2020-01-07T14:05:44Z</time>
      </trkpt>
      <trkpt lat="46.08465" lon="6.16037">
        <ele>865.911499</ele>
        <time>2020-01-07T14:06:19Z</time>
      </trkpt>
      <trkpt lat="46.08415" lon="6.15965">
        <ele>861.228027</ele>
        <time>2020-01-07T14:06:32Z</time>
      </trkpt>
      <trkpt lat="46.08389" lon="6.15942">
        <ele>855.087585</ele>
        <time>2020-01-07T14:06:37Z</time>
      </trkpt>
      <trkpt lat="46.08368" lon="6.15912">
        <ele>854.284973</ele>
        <time>2020-01-07T14:06:43Z</time>
      </trkpt>
      <trkpt lat="46.08365" lon="6.15909">
        <ele>853.942505</ele>
        <time>2020-01-07T14:06:43Z</time>
      </trkpt>
      <trkpt lat="46.08355" lon="6.15913">
        <ele>849.426453</ele>
        <time>2020-01-07T14:06:45Z</time>
      </trkpt>
      <trkpt lat="46.08315" lon="6.15868">
        <ele>849.497925</ele>
        <time>2020-01-07T14:06:54Z</time>
      </trkpt>
      <trkpt lat="46.08304" lon="6.15851">
        <ele>849.682495</ele>
        <time>2020-01-07T14:06:57Z</time>
      </trkpt>
      <trkpt lat="46.08289" lon="6.15806">
        <ele>852.549377</ele>
        <time>2020-01-07T14:07:03Z</time>
      </trkpt>
      <trkpt lat="46.08285" lon="6.15797">
        <ele>852.593079</ele>
        <time>2020-01-07T14:07:04Z</time>
      </trkpt>
      <trkpt lat="46.08251" lon="6.15765">
        <ele>848.113708</ele>
        <time>2020-01-07T14:07:12Z</time>
      </trkpt>
      <trkpt lat="46.08245" lon="6.15754">
        <ele>848.034729</ele>
        <time>2020-01-07T14:07:13Z</time>
      </trkpt>
      <trkpt lat="46.08238" lon="6.15733">
        <ele>848.702026</ele>
        <time>2020-01-07T14:07:16Z</time>
      </trkpt>
      <trkpt lat="46.08214" lon="6.15644">
        <ele>850.041748</ele>
        <time>2020-01-07T14:07:28Z</time>
      </trkpt>
      <trkpt lat="46.08208" lon="6.15626">
        <ele>850.063477</ele>
        <time>2020-01-07T14:07:30Z</time>
      </trkpt>
      <trkpt lat="46.08202" lon="6.15615">
        <ele>849.980835</ele>
        <time>2020-01-07T14:07:32Z</time>
      </trkpt>
      <trkpt lat="46.0819" lon="6.15605">
        <ele>849.096802</ele>
        <time>2020-01-07T14:07:35Z</time>
      </trkpt>
      <trkpt lat="46.08143" lon="6.15583">
        <ele>848.859985</ele>
        <time>2020-01-07T14:07:43Z</time>
      </trkpt>
      <trkpt lat="46.08126" lon="6.1558">
        <ele>848.957581</ele>
        <time>2020-01-07T14:07:46Z</time>
      </trkpt>
      <trkpt lat="46.08113" lon="6.15581">
        <ele>848.909607</ele>
        <time>2020-01-07T14:07:49Z</time>
      </trkpt>
      <trkpt lat="46.08058" lon="6.15597">
        <ele>848.867065</ele>
        <time>2020-01-07T14:07:59Z</time>
      </trkpt>
      <trkpt lat="46.08031" lon="6.15597">
        <ele>849.33136</ele>
        <time>2020-01-07T14:08:04Z</time>
      </trkpt>
      <trkpt lat="46.08008" lon="6.15591">
        <ele>849.579285</ele>
        <time>2020-01-07T14:08:08Z</time>
      </trkpt>
      <trkpt lat="46.07987" lon="6.15578">
        <ele>851.180237</ele>
        <time>2020-01-07T14:08:12Z</time>
      </trkpt>
      <trkpt lat="46.07937" lon="6.15536">
        <ele>855.801086</ele>
        <time>2020-01-07T14:08:22Z</time>
      </trkpt>
      <trkpt lat="46.07907" lon="6.15521">
        <ele>856.56134</ele>
        <time>2020-01-07T14:08:28Z</time>
      </trkpt>
      <trkpt lat="46.07798" lon="6.15507">
        <ele>859.176453</ele>
        <time>2020-01-07T14:08:47Z</time>
      </trkpt>
      <trkpt lat="46.07775" lon="6.15501">
        <ele>859.007813</ele>
        <time>2020-01-07T14:08:51Z</time>
      </trkpt>
      <trkpt lat="46.0775" lon="6.1549">
        <ele>858.832214</ele>
        <time>2020-01-07T14:08:56Z</time>
      </trkpt>
      <trkpt lat="46.07686" lon="6.15459">
        <ele>858.684814</ele>
        <time>2020-01-07T14:09:08Z</time>
      </trkpt>
      <trkpt lat="46.0766" lon="6.15443">
        <ele>861.109985</ele>
        <time>2020-01-07T14:09:13Z</time>
      </trkpt>
      <trkpt lat="46.07641" lon="6.15427">
        <ele>862.982422</ele>
        <time>2020-01-07T14:09:17Z</time>
      </trkpt>
      <trkpt lat="46.07616" lon="6.154">
        <ele>863.33905</ele>
        <time>2020-01-07T14:09:23Z</time>
      </trkpt>
      <trkpt lat="46.07598" lon="6.15375">
        <ele>862.378662</ele>
        <time>2020-01-07T14:09:27Z</time>
      </trkpt>
      <trkpt lat="46.07568" lon="6.15325">
        <ele>860.228882</ele>
        <time>2020-01-07T14:09:35Z</time>
      </trkpt>
      <trkpt lat="46.07553" lon="6.15291">
        <ele>860.655884</ele>
        <time>2020-01-07T14:09:40Z</time>
      </trkpt>
      <trkpt lat="46.07502" lon="6.15155">
        <ele>862.997498</ele>
        <time>2020-01-07T14:09:59Z</time>
      </trkpt>
      <trkpt lat="46.07493" lon="6.15124">
        <ele>862.61499</ele>
        <time>2020-01-07T14:10:03Z</time>
      </trkpt>
      <trkpt lat="46.07491" lon="6.15109">
        <ele>862.744995</ele>
        <time>2020-01-07T14:10:05Z</time>
      </trkpt>
      <trkpt lat="46.0749" lon="6.15074">
        <ele>862.605408</ele>
        <time>2020-01-07T14:10:10Z</time>
      </trkpt>
      <trkpt lat="46.07493" lon="6.15021">
        <ele>862.441223</ele>
        <time>2020-01-07T14:10:16Z</time>
      </trkpt>
      <trkpt lat="46.07487" lon="6.14977">
        <ele>862.502075</ele>
        <time>2020-01-07T14:10:22Z</time>
      </trkpt>
      <trkpt lat="46.07471" lon="6.14892">
        <ele>862.577515</ele>
        <time>2020-01-07T14:10:33Z</time>
      </trkpt>
      <trkpt lat="46.0747" lon="6.14872">
        <ele>862.139282</ele>
        <time>2020-01-07T14:10:35Z</time>
      </trkpt>
      <trkpt lat="46.07472" lon="6.14855">
        <ele>862.386475</ele>
        <time>2020-01-07T14:10:37Z</time>
      </trkpt>
      <trkpt lat="46.07476" lon="6.14841">
        <ele>863.203552</ele>
        <time>2020-01-07T14:10:39Z</time>
      </trkpt>
      <trkpt lat="46.07507" lon="6.14752">
        <ele>863.5979</ele>
        <time>2020-01-07T14:10:51Z</time>
      </trkpt>
      <trkpt lat="46.07514" lon="6.14723">
        <ele>863.687073</ele>
        <time>2020-01-07T14:10:55Z</time>
      </trkpt>
      <trkpt lat="46.07519" lon="6.14673">
        <ele>864.890198</ele>
        <time>2020-01-07T14:11:01Z</time>
      </trkpt>
      <trkpt lat="46.07517" lon="6.14656">
        <ele>865.091431</ele>
        <time>2020-01-07T14:11:03Z</time>
      </trkpt>
      <trkpt lat="46.07513" lon="6.14648">
        <ele>864.793579</ele>
        <time>2020-01-07T14:11:05Z</time>
      </trkpt>
      <trkpt lat="46.07505" lon="6.14636">
        <ele>864.943115</ele>
        <time>2020-01-07T14:11:07Z</time>
      </trkpt>
      <trkpt lat="46.07493" lon="6.1463">
        <ele>864.306702</ele>
        <time>2020-01-07T14:11:09Z</time>
      </trkpt>
      <trkpt lat="46.07392" lon="6.1462">
        <ele>865.843201</ele>
        <time>2020-01-07T14:11:27Z</time>
      </trkpt>
      <trkpt lat="46.07376" lon="6.14621">
        <ele>866.602966</ele>
        <time>2020-01-07T14:11:30Z</time>
      </trkpt>
      <trkpt lat="46.07364" lon="6.14627">
        <ele>866.185913</ele>
        <time>2020-01-07T14:11:32Z</time>
      </trkpt>
      <trkpt lat="46.07344" lon="6.14652">
        <ele>864.422302</ele>
        <time>2020-01-07T14:11:37Z</time>
      </trkpt>
      <trkpt lat="46.07325" lon="6.14673">
        <ele>863.496887</ele>
        <time>2020-01-07T14:11:41Z</time>
      </trkpt>
      <trkpt lat="46.07309" lon="6.14677">
        <ele>864.877563</ele>
        <time>2020-01-07T14:11:44Z</time>
      </trkpt>
      <trkpt lat="46.07294" lon="6.14674">
        <ele>866.109863</ele>
        <time>2020-01-07T14:11:47Z</time>
      </trkpt>
      <trkpt lat="46.07243" lon="6.14645">
        <ele>873.16687</ele>
        <time>2020-01-07T14:11:56Z</time>
      </trkpt>
      <trkpt lat="46.07235" lon="6.1464">
        <ele>873.824463</ele>
        <time>2020-01-07T14:11:58Z</time>
      </trkpt>
      <trkpt lat="46.07222" lon="6.14638">
        <ele>873.791504</ele>
        <time>2020-01-07T14:12:00Z</time>
      </trkpt>
      <trkpt lat="46.0721" lon="6.14639">
        <ele>874.527405</ele>
        <time>2020-01-07T14:12:02Z</time>
      </trkpt>
      <trkpt lat="46.07203" lon="6.14641">
        <ele>874.924377</ele>
        <time>2020-01-07T14:12:04Z</time>
      </trkpt>
      <trkpt lat="46.07171" lon="6.14665">
        <ele>875.231262</ele>
        <time>2020-01-07T14:12:10Z</time>
      </trkpt>
      <trkpt lat="46.07153" lon="6.14673">
        <ele>875.813721</ele>
        <time>2020-01-07T14:12:13Z</time>
      </trkpt>
      <trkpt lat="46.07141" lon="6.14674">
        <ele>876.672485</ele>
        <time>2020-01-07T14:12:16Z</time>
      </trkpt>
      <trkpt lat="46.07123" lon="6.14673">
        <ele>877.712769</ele>
        <time>2020-01-07T14:12:19Z</time>
      </trkpt>
      <trkpt lat="46.07101" lon="6.14662">
        <ele>878.59375</ele>
        <time>2020-01-07T14:12:23Z</time>
      </trkpt>
      <trkpt lat="46.07088" lon="6.14653">
        <ele>879.280029</ele>
        <time>2020-01-07T14:12:26Z</time>
      </trkpt>
      <trkpt lat="46.06991" lon="6.14554">
        <ele>882.886047</ele>
        <time>2020-01-07T14:12:47Z</time>
      </trkpt>
      <trkpt lat="46.0695" lon="6.14508">
        <ele>883.75116</ele>
        <time>2020-01-07T14:12:56Z</time>
      </trkpt>
      <trkpt lat="46.06935" lon="6.14488">
        <ele>883.398621</ele>
        <time>2020-01-07T14:13:00Z</time>
      </trkpt>
      <trkpt lat="46.06868" lon="6.14381">
        <ele>881.333435</ele>
        <time>2020-01-07T14:13:17Z</time>
      </trkpt>
      <trkpt lat="46.0685" lon="6.1436">
        <ele>881.165161</ele>
        <time>2020-01-07T14:13:21Z</time>
      </trkpt>
      <trkpt lat="46.06836" lon="6.14347">
        <ele>880.970215</ele>
        <time>2020-01-07T14:13:24Z</time>
      </trkpt>
      <trkpt lat="46.06787" lon="6.14312">
        <ele>880.931213</ele>
        <time>2020-01-07T14:13:34Z</time>
      </trkpt>
      <trkpt lat="46.06763" lon="6.14288">
        <ele>881.101257</ele>
        <time>2020-01-07T14:13:39Z</time>
      </trkpt>
      <trkpt lat="46.06754" lon="6.14276">
        <ele>881.352478</ele>
        <time>2020-01-07T14:13:42Z</time>
      </trkpt>
      <trkpt lat="46.06738" lon="6.14248">
        <ele>881.788818</ele>
        <time>2020-01-07T14:13:46Z</time>
      </trkpt>
      <trkpt lat="46.0672" lon="6.14196">
        <ele>882.324585</ele>
        <time>2020-01-07T14:13:53Z</time>
      </trkpt>
      <trkpt lat="46.06708" lon="6.14156">
        <ele>881.902344</ele>
        <time>2020-01-07T14:13:59Z</time>
      </trkpt>
      <trkpt lat="46.06705" lon="6.14106">
        <ele>881.756348</ele>
        <time>2020-01-07T14:14:05Z</time>
      </trkpt>
      <trkpt lat="46.067" lon="6.1408">
        <ele>881.146545</ele>
        <time>2020-01-07T14:14:08Z</time>
      </trkpt>
      <trkpt lat="46.06689" lon="6.14056">
        <ele>880.583679</ele>
        <time>2020-01-07T14:14:12Z</time>
      </trkpt>
      <trkpt lat="46.06669" lon="6.14035">
        <ele>880.500977</ele>
        <time>2020-01-07T14:14:16Z</time>
      </trkpt>
      <trkpt lat="46.06656" lon="6.14029">
        <ele>880.358215</ele>
        <time>2020-01-07T14:14:19Z</time>
      </trkpt>
      <trkpt lat="46.06595" lon="6.1402">
        <ele>876.856506</ele>
        <time>2020-01-07T14:14:29Z</time>
      </trkpt>
      <trkpt lat="46.06578" lon="6.14014">
        <ele>876.229309</ele>
        <time>2020-01-07T14:14:33Z</time>
      </trkpt>
      <trkpt lat="46.06563" lon="6.14004">
        <ele>876.255798</ele>
        <time>2020-01-07T14:14:35Z</time>
      </trkpt>
      <trkpt lat="46.06545" lon="6.13983">
        <ele>876.261047</ele>
        <time>2020-01-07T14:14:40Z</time>
      </trkpt>
      <trkpt lat="46.06537" lon="6.13972">
        <ele>876.007996</ele>
        <time>2020-01-07T14:14:42Z</time>
      </trkpt>
      <trkpt lat="46.06528" lon="6.1395">
        <ele>876.198303</ele>
        <time>2020-01-07T14:14:45Z</time>
      </trkpt>
      <trkpt lat="46.06514" lon="6.13892">
        <ele>877.900024</ele>
        <time>2020-01-07T14:14:52Z</time>
      </trkpt>
      <trkpt lat="46.06502" lon="6.13861">
        <ele>878.315002</ele>
        <time>2020-01-07T14:14:57Z</time>
      </trkpt>
      <trkpt lat="46.06486" lon="6.13836">
        <ele>878.268738</ele>
        <time>2020-01-07T14:15:01Z</time>
      </trkpt>
      <trkpt lat="46.0643" lon="6.13758">
        <ele>877.700012</ele>
        <time>2020-01-07T14:15:15Z</time>
      </trkpt>
      <trkpt lat="46.06414" lon="6.13728">
        <ele>877.893616</ele>
        <time>2020-01-07T14:15:19Z</time>
      </trkpt>
      <trkpt lat="46.06405" lon="6.13692">
        <ele>877.563538</ele>
        <time>2020-01-07T14:15:24Z</time>
      </trkpt>
      <trkpt lat="46.06403" lon="6.13667">
        <ele>877.641602</ele>
        <time>2020-01-07T14:15:27Z</time>
      </trkpt>
      <trkpt lat="46.06403" lon="6.13648">
        <ele>877.518738</ele>
        <time>2020-01-07T14:15:30Z</time>
      </trkpt>
      <trkpt lat="46.06406" lon="6.13627">
        <ele>877.491211</ele>
        <time>2020-01-07T14:15:32Z</time>
      </trkpt>
      <trkpt lat="46.06415" lon="6.13595">
        <ele>878.073364</ele>
        <time>2020-01-07T14:15:36Z</time>
      </trkpt>
      <trkpt lat="46.06419" lon="6.13571">
        <ele>879.02594</ele>
        <time>2020-01-07T14:15:40Z</time>
      </trkpt>
      <trkpt lat="46.06418" lon="6.13542">
        <ele>879.350281</ele>
        <time>2020-01-07T14:15:43Z</time>
      </trkpt>
      <trkpt lat="46.06414" lon="6.13522">
        <ele>879.566101</ele>
        <time>2020-01-07T14:15:46Z</time>
      </trkpt>
      <trkpt lat="46.06407" lon="6.13502">
        <ele>880.170593</ele>
        <time>2020-01-07T14:15:48Z</time>
      </trkpt>
      <trkpt lat="46.06395" lon="6.13482">
        <ele>880.389587</ele>
        <time>2020-01-07T14:15:52Z</time>
      </trkpt>
      <trkpt lat="46.06344" lon="6.13435">
        <ele>878.031006</ele>
        <time>2020-01-07T14:16:02Z</time>
      </trkpt>
      <trkpt lat="46.0633" lon="6.13415">
        <ele>877.152771</ele>
        <time>2020-01-07T14:16:06Z</time>
      </trkpt>
      <trkpt lat="46.06323" lon="6.13397">
        <ele>877.16449</ele>
        <time>2020-01-07T14:16:09Z</time>
      </trkpt>
      <trkpt lat="46.06313" lon="6.13345">
        <ele>877.642456</ele>
        <time>2020-01-07T14:16:15Z</time>
      </trkpt>
      <trkpt lat="46.06303" lon="6.13323">
        <ele>878.197021</ele>
        <time>2020-01-07T14:16:18Z</time>
      </trkpt>
      <trkpt lat="46.06292" lon="6.13309">
        <ele>879.262024</ele>
        <time>2020-01-07T14:16:21Z</time>
      </trkpt>
      <trkpt lat="46.06278" lon="6.13298">
        <ele>879.683594</ele>
        <time>2020-01-07T14:16:24Z</time>
      </trkpt>
      <trkpt lat="46.06226" lon="6.13275">
        <ele>877.331055</ele>
        <time>2020-01-07T14:16:34Z</time>
      </trkpt>
      <trkpt lat="46.06214" lon="6.13265">
        <ele>876.235657</ele>
        <time>2020-01-07T14:16:36Z</time>
      </trkpt>
      <trkpt lat="46.06199" lon="6.13242">
        <ele>875.637024</ele>
        <time>2020-01-07T14:16:40Z</time>
      </trkpt>
      <trkpt lat="46.06187" lon="6.13201">
        <ele>876.810242</ele>
        <time>2020-01-07T14:16:45Z</time>
      </trkpt>
      <trkpt lat="46.06178" lon="6.13181">
        <ele>877.804626</ele>
        <time>2020-01-07T14:16:48Z</time>
      </trkpt>
      <trkpt lat="46.06163" lon="6.13161">
        <ele>879.065002</ele>
        <time>2020-01-07T14:16:52Z</time>
      </trkpt>
      <trkpt lat="46.06149" lon="6.13153">
        <ele>878.783142</ele>
        <time>2020-01-07T14:16:55Z</time>
      </trkpt>
      <trkpt lat="46.06135" lon="6.13149">
        <ele>879.109375</ele>
        <time>2020-01-07T14:16:57Z</time>
      </trkpt>
      <trkpt lat="46.06123" lon="6.13148">
        <ele>879.359497</ele>
        <time>2020-01-07T14:16:59Z</time>
      </trkpt>
      <trkpt lat="46.06089" lon="6.13152">
        <ele>878.900024</ele>
        <time>2020-01-07T14:17:05Z</time>
      </trkpt>
      <trkpt lat="46.06049" lon="6.13178">
        <ele>874.364746</ele>
        <time>2020-01-07T14:17:13Z</time>
      </trkpt>
      <trkpt lat="46.06024" lon="6.13188">
        <ele>873.523376</ele>
        <time>2020-01-07T14:17:18Z</time>
      </trkpt>
      <trkpt lat="46.06001" lon="6.13187">
        <ele>874.415955</ele>
        <time>2020-01-07T14:17:22Z</time>
      </trkpt>
      <trkpt lat="46.05972" lon="6.13176">
        <ele>875.450745</ele>
        <time>2020-01-07T14:17:27Z</time>
      </trkpt>
      <trkpt lat="46.0592" lon="6.13147">
        <ele>877.60437</ele>
        <time>2020-01-07T14:17:37Z</time>
      </trkpt>
      <trkpt lat="46.05906" lon="6.13144">
        <ele>877.39502</ele>
        <time>2020-01-07T14:17:40Z</time>
      </trkpt>
      <trkpt lat="46.05876" lon="6.13152">
        <ele>873.887512</ele>
        <time>2020-01-07T14:17:45Z</time>
      </trkpt>
      <trkpt lat="46.05858" lon="6.13153">
        <ele>871.652039</ele>
        <time>2020-01-07T14:17:48Z</time>
      </trkpt>
      <trkpt lat="46.05848" lon="6.1315">
        <ele>871.020874</ele>
        <time>2020-01-07T14:17:50Z</time>
      </trkpt>
      <trkpt lat="46.05831" lon="6.13141">
        <ele>870.512573</ele>
        <time>2020-01-07T14:17:53Z</time>
      </trkpt>
      <trkpt lat="46.05813" lon="6.13123">
        <ele>867.56842</ele>
        <time>2020-01-07T14:17:57Z</time>
      </trkpt>
      <trkpt lat="46.058" lon="6.13102">
        <ele>865.795227</ele>
        <time>2020-01-07T14:18:01Z</time>
      </trkpt>
      <trkpt lat="46.05791" lon="6.13075">
        <ele>866.757996</ele>
        <time>2020-01-07T14:18:04Z</time>
      </trkpt>
      <trkpt lat="46.05779" lon="6.13026">
        <ele>870.079285</ele>
        <time>2020-01-07T14:18:11Z</time>
      </trkpt>
      <trkpt lat="46.05772" lon="6.13007">
        <ele>871.015625</ele>
        <time>2020-01-07T14:18:14Z</time>
      </trkpt>
      <trkpt lat="46.05766" lon="6.12996">
        <ele>871.138916</ele>
        <time>2020-01-07T14:18:15Z</time>
      </trkpt>
      <trkpt lat="46.05758" lon="6.12989">
        <ele>869.97699</ele>
        <time>2020-01-07T14:18:17Z</time>
      </trkpt>
      <trkpt lat="46.05744" lon="6.12982">
        <ele>867.418884</ele>
        <time>2020-01-07T14:18:20Z</time>
      </trkpt>
      <trkpt lat="46.05733" lon="6.12983">
        <ele>867.920227</ele>
        <time>2020-01-07T14:18:22Z</time>
      </trkpt>
      <trkpt lat="46.0567" lon="6.12993">
        <ele>867.151367</ele>
        <time>2020-01-07T14:18:33Z</time>
      </trkpt>
      <trkpt lat="46.05658" lon="6.12993">
        <ele>866.933105</ele>
        <time>2020-01-07T14:18:35Z</time>
      </trkpt>
      <trkpt lat="46.05647" lon="6.1299">
        <ele>866.5896</ele>
        <time>2020-01-07T14:18:37Z</time>
      </trkpt>
      <trkpt lat="46.05501" lon="6.12924">
        <ele>856.421692</ele>
        <time>2020-01-07T14:19:04Z</time>
      </trkpt>
      <trkpt lat="46.0548" lon="6.12911">
        <ele>855.015137</ele>
        <time>2020-01-07T14:19:08Z</time>
      </trkpt>
      <trkpt lat="46.05457" lon="6.12888">
        <ele>855.437683</ele>
        <time>2020-01-07T14:19:13Z</time>
      </trkpt>
      <trkpt lat="46.05448" lon="6.12877">
        <ele>855.747742</ele>
        <time>2020-01-07T14:19:15Z</time>
      </trkpt>
      <trkpt lat="46.05415" lon="6.12824">
        <ele>860.040344</ele>
        <time>2020-01-07T14:19:24Z</time>
      </trkpt>
      <trkpt lat="46.05403" lon="6.12808">
        <ele>860.313538</ele>
        <time>2020-01-07T14:19:27Z</time>
      </trkpt>
      <trkpt lat="46.05391" lon="6.12796">
        <ele>859.682556</ele>
        <time>2020-01-07T14:19:30Z</time>
      </trkpt>
      <trkpt lat="46.05285" lon="6.12721">
        <ele>850.697021</ele>
        <time>2020-01-07T14:19:51Z</time>
      </trkpt>
      <trkpt lat="46.052" lon="6.12666">
        <ele>849.42041</ele>
        <time>2020-01-07T14:20:07Z</time>
      </trkpt>
      <trkpt lat="46.05163" lon="6.12637">
        <ele>850.306274</ele>
        <time>2020-01-07T14:20:15Z</time>
      </trkpt>
      <trkpt lat="46.05073" lon="6.12548">
        <ele>852.767212</ele>
        <time>2020-01-07T14:20:34Z</time>
      </trkpt>
      <trkpt lat="46.05063" lon="6.12539">
        <ele>852.791199</ele>
        <time>2020-01-07T14:20:36Z</time>
      </trkpt>
      <trkpt lat="46.05037" lon="6.12523">
        <ele>851.778442</ele>
        <time>2020-01-07T14:20:41Z</time>
      </trkpt>
      <trkpt lat="46.0502" lon="6.12517">
        <ele>850.634277</ele>
        <time>2020-01-07T14:20:44Z</time>
      </trkpt>
      <trkpt lat="46.05001" lon="6.12514">
        <ele>848.690002</ele>
        <time>2020-01-07T14:20:48Z</time>
      </trkpt>
      <trkpt lat="46.0497" lon="6.12517">
        <ele>845.411926</ele>
        <time>2020-01-07T14:20:53Z</time>
      </trkpt>
      <trkpt lat="46.04901" lon="6.12533">
        <ele>839.114502</ele>
        <time>2020-01-07T14:21:06Z</time>
      </trkpt>
      <trkpt lat="46.04866" lon="6.12548">
        <ele>836.296814</ele>
        <time>2020-01-07T14:21:12Z</time>
      </trkpt>
      <trkpt lat="46.04794" lon="6.12592">
        <ele>830.581238</ele>
        <time>2020-01-07T14:21:26Z</time>
      </trkpt>
      <trkpt lat="46.04772" lon="6.126">
        <ele>828.597473</ele>
        <time>2020-01-07T14:21:30Z</time>
      </trkpt>
      <trkpt lat="46.04742" lon="6.12602">
        <ele>826.212219</ele>
        <time>2020-01-07T14:21:36Z</time>
      </trkpt>
      <trkpt lat="46.04692" lon="6.12599">
        <ele>823.436218</ele>
        <time>2020-01-07T14:21:44Z</time>
      </trkpt>
      <trkpt lat="46.04666" lon="6.12593">
        <ele>822.361267</ele>
        <time>2020-01-07T14:21:49Z</time>
      </trkpt>
      <trkpt lat="46.04656" lon="6.12588">
        <ele>822.023743</ele>
        <time>2020-01-07T14:21:51Z</time>
      </trkpt>
      <trkpt lat="46.04637" lon="6.12577">
        <ele>821.477478</ele>
        <time>2020-01-07T14:21:55Z</time>
      </trkpt>
      <trkpt lat="46.0462" lon="6.12562">
        <ele>820.952515</ele>
        <time>2020-01-07T14:21:58Z</time>
      </trkpt>
      <trkpt lat="46.046" lon="6.12538">
        <ele>819.8125</ele>
        <time>2020-01-07T14:22:03Z</time>
      </trkpt>
      <trkpt lat="46.04589" lon="6.12521">
        <ele>819.271484</ele>
        <time>2020-01-07T14:22:06Z</time>
      </trkpt>
      <trkpt lat="46.04531" lon="6.1242">
        <ele>816.302124</ele>
        <time>2020-01-07T14:22:22Z</time>
      </trkpt>
      <trkpt lat="46.04516" lon="6.12401">
        <ele>815.288879</ele>
        <time>2020-01-07T14:22:25Z</time>
      </trkpt>
      <trkpt lat="46.04499" lon="6.12389">
        <ele>813.77002</ele>
        <time>2020-01-07T14:22:29Z</time>
      </trkpt>
      <trkpt lat="46.04481" lon="6.12382">
        <ele>811.695007</ele>
        <time>2020-01-07T14:22:32Z</time>
      </trkpt>
      <trkpt lat="46.04357" lon="6.12366">
        <ele>803.555359</ele>
        <time>2020-01-07T14:22:54Z</time>
      </trkpt>
      <trkpt lat="46.0432" lon="6.12368">
        <ele>802.625</ele>
        <time>2020-01-07T14:23:01Z</time>
      </trkpt>
      <trkpt lat="46.0425" lon="6.12382">
        <ele>800.533752</ele>
        <time>2020-01-07T14:23:13Z</time>
      </trkpt>
      <trkpt lat="46.04229" lon="6.12383">
        <ele>799.614502</ele>
        <time>2020-01-07T14:23:17Z</time>
      </trkpt>
      <trkpt lat="46.04209" lon="6.12377">
        <ele>798.394653</ele>
        <time>2020-01-07T14:23:21Z</time>
      </trkpt>
      <trkpt lat="46.04191" lon="6.12363">
        <ele>798.115967</ele>
        <time>2020-01-07T14:23:24Z</time>
      </trkpt>
      <trkpt lat="46.04175" lon="6.12343">
        <ele>797.45636</ele>
        <time>2020-01-07T14:23:28Z</time>
      </trkpt>
      <trkpt lat="46.04168" lon="6.12329">
        <ele>796.534973</ele>
        <time>2020-01-07T14:23:30Z</time>
      </trkpt>
      <trkpt lat="46.04159" lon="6.12301">
        <ele>794.994995</ele>
        <time>2020-01-07T14:23:34Z</time>
      </trkpt>
      <trkpt lat="46.04147" lon="6.12227">
        <ele>792.815186</ele>
        <time>2020-01-07T14:23:44Z</time>
      </trkpt>
      <trkpt lat="46.04141" lon="6.12202">
        <ele>792.268982</ele>
        <time>2020-01-07T14:23:47Z</time>
      </trkpt>
      <trkpt lat="46.04131" lon="6.12177">
        <ele>792.007263</ele>
        <time>2020-01-07T14:23:50Z</time>
      </trkpt>
      <trkpt lat="46.04112" lon="6.12154">
        <ele>790.978271</ele>
        <time>2020-01-07T14:23:55Z</time>
      </trkpt>
      <trkpt lat="46.04101" lon="6.12145">
        <ele>790.343628</ele>
        <time>2020-01-07T14:23:57Z</time>
      </trkpt>
      <trkpt lat="46.04095" lon="6.12144">
        <ele>789.835876</ele>
        <time>2020-01-07T14:23:58Z</time>
      </trkpt>
      <trkpt lat="46.04084" lon="6.12137">
        <ele>789.26416</ele>
        <time>2020-01-07T14:24:00Z</time>
      </trkpt>
      <trkpt lat="46.03997" lon="6.12108">
        <ele>785.690002</ele>
        <time>2020-01-07T14:24:16Z</time>
      </trkpt>
      <trkpt lat="46.03942" lon="6.12086">
        <ele>784.335022</ele>
        <time>2020-01-07T14:24:26Z</time>
      </trkpt>
      <trkpt lat="46.03894" lon="6.12058">
        <ele>784.51123</ele>
        <time>2020-01-07T14:24:36Z</time>
      </trkpt>
      <trkpt lat="46.03847" lon="6.12019">
        <ele>784.553345</ele>
        <time>2020-01-07T14:24:45Z</time>
      </trkpt>
      <trkpt lat="46.0379" lon="6.11954">
        <ele>783.045227</ele>
        <time>2020-01-07T14:24:58Z</time>
      </trkpt>
      <trkpt lat="46.03758" lon="6.1189">
        <ele>781.407288</ele>
        <time>2020-01-07T14:25:08Z</time>
      </trkpt>
      <trkpt lat="46.03757" lon="6.11887">
        <ele>781.375977</ele>
        <time>2020-01-07T14:25:08Z</time>
      </trkpt>
      <trkpt lat="46.0376" lon="6.11858">
        <ele>782.658691</ele>
        <time>2020-01-07T14:25:12Z</time>
      </trkpt>
      <trkpt lat="46.03766" lon="6.11841">
        <ele>785.319214</ele>
        <time>2020-01-07T14:25:14Z</time>
      </trkpt>
    </trkseg>
  </trk>
</gpx>